     2              OBSERVATION DATA    GPS                 RINEX VERSION / TYPE
teqc 2000Feb29 Duncan Agnew 20030513 23:46:34UTC            PGM / RUN BY / DATE
                                                            COMMENT
L2: 1 -> 1; 150 -> 5; 250 -> 9                              COMMENT
L2: 1 -> 1; 150 -> 5; 250 -> 9                              COMMENT
L2: 1 -> 1; 150 -> 5; 250 -> 9                              COMMENT
L2: 1 -> 1; 150 -> 5; 250 -> 9                              COMMENT
L2: 1 -> 1; 150 -> 5; 250 -> 9                              COMMENT
Original Marker Name: FRIN                                  COMMENT
Campaign Name: Imperial Valley 2003                         COMMENT
4-Character Station Name: FRIN                              COMMENT
6-Character Antenna Code: DMRCHT                            COMMENT
Vertical Measurement Point: BCR                             COMMENT
Vertical Offset to Rinex Ref. Point: 0.0348                 COMMENT
Radial Measurement Point: ECF                               COMMENT
Radial Offset to Rinex Ref. Point: 0.1897                   COMMENT
Antenna Height from Field Measurement: 0.8320 m             COMMENT
Additional Antenna Identification Info.:                    COMMENT
Turborogue and Ashtech Choke Ring                           COMMENT
Original XYZ: -2305265.1195 -4812063.8379 3482476.7125      COMMENT
New XYZ position is based on association with SCEC monument COMMENT
E1D0J4A3+0011. Position of that monument is believed to be  COMMENT
valid to within 1 m horizontally; vertical accuracy         COMMENT
should be no worse than 3-times this value.                 COMMENT
                                                            COMMENT
Revised Rinex header created by UCSD GPS archive for        COMMENT
GSAC on 11-Jul-2003 (2003:192) 16:07:47 GMT                 COMMENT
For assistance contact dagnew@ucsd.edu                      COMMENT
or anderson@python.ucsd.edu                                 COMMENT
                                                            COMMENT
FRINK 1934                                                  MARKER NAME
SJB SCRIPPS INSTITUTION OF OCEANOGRAPHY                     OBSERVER / AGENCY
378 ASHTECH Z-XII3 CC00                                     REC # / TYPE / VERS
653 DORNE-MARGOL. TYPE T                                    ANT # / TYPE
 -2308055.8487 -4807160.0486  3487357.1962                  APPROX POSITION XYZ
        0.7753        0.0000        0.0000                  ANTENNA: DELTA H/E/N
     1     1     0                                          WAVELENGTH FACT L1/2
     7    C1    L1    L2    P1    P2    S1    S2            # / TYPES OF OBSERV
     0                                                      INTERVAL
  2003     5    12    17    20    0.000000                  TIME OF FIRST OBS
  2003     5    12    22     9    0.000000                  TIME OF LAST OBS
                                                            END OF HEADER
 03  5 12 17 20  0.0000000  0  7G17G30G 5G24G21G10G 6
  22206793.287     -317391.23459   -229893.70847  22206792.867    22206800.948
       231.000         188.000
  21168982.860      -28345.53059    -20251.36447  21168982.968    21168989.422
       246.000         205.000
  22626167.963       87374.63659     62356.72646  22626167.530    22626175.509
       223.000         171.000
                     34580.46759     23530.76743
       210.000          74.000
  22849588.889     -354619.98059   -260874.31746  22849588.789    22849594.962
       227.000         167.000
  21258470.772      -36780.35859    -27132.70947  21258469.548    21258476.739
       238.000         197.000
  21211635.505     -332083.01049   -239619.97247  21211635.400    21211642.142
       238.000         201.000
 03  5 12 17 20 30.0000000  0  8G17G30G 5G29G24G21G10G 6
  22185777.916     -427833.43249   -315952.53247  22185776.966    22185784.775
       232.000         188.000
  21167197.354      -37730.66449    -27564.46447  21167196.954    21167203.517
       243.000         204.000
  22632284.387      119513.62649     87399.99646  22632283.686    22632292.357
       226.000         173.000
                   -443619.73159   -330758.89245                  24008474.516
       204.000         132.000
  24531036.300       48548.38449     34414.73845  24531035.048    24531044.015
       207.000         133.000
  22825738.128     -479953.74449   -358536.93746  22825737.870    22825744.443
       225.000         170.000
  21256231.334      -48543.09149    -36298.48947  21256230.728    21256238.366
       237.000         198.000
  21189734.342     -447172.88149   -329300.38147  21189734.242    21189741.247
       239.000         202.000
 03  5 12 17 21  0.0000000  0  8G17G30G 5G29G24G21G10G 6
  22056952.672    -1104813.87049   -843469.74147  22056951.740    22056959.667
       232.000         190.000
  21057658.276     -613360.73449   -476107.41547  21057658.396    21057664.789
       242.000         203.000
  22530594.510     -414869.96149   -329002.89346  22530593.605    22530602.361
       224.000         173.000
  23875955.767    -1139957.48449   -873359.61045  23875956.060    23875966.910
       209.000         140.000
  24425836.648     -504278.61349   -396359.58045  24425834.067    24425845.399
       211.000         138.000
  22694075.307    -1171845.68549   -897673.48846  22694074.539    22694082.324
       224.000         171.000
  21146245.600     -626521.69549   -486671.44347  21146245.089    21146252.764
       235.000         197.000
  21060026.525    -1128792.79249   -860432.76647  21060026.517    21060033.506
       238.000         202.000
 03  5 12 17 21 30.0000000  0  8G17G30G 5G29G24G21G10G 6
  22048045.804    -1151618.63549   -879940.96747  22048044.996    22048053.011
       232.000         189.000
  21068092.937     -558526.15749   -433379.21447  21068093.332    21068099.645
       243.000         203.000
  22548824.789     -319068.39549   -254352.42046  22548824.074    22548832.781
       225.000         170.000
  23863361.631    -1206143.73959   -924933.52245  23863362.378    23863371.213
       209.000         141.000
  24440505.261     -427190.93259   -336291.58245  24440503.871    24440512.602
       203.000         136.000
  22682327.513    -1233581.09849   -945778.97246  22682328.341    22682334.757
       226.000         171.000
  21156238.990     -574006.96249   -445750.89647  21156238.431    21156245.913
       237.000         197.000
  21050239.051    -1180226.81649   -900511.21947  21050239.163    21050245.943
       240.000         202.000
 03  5 12 17 22  0.0000000  0  8G17G30G 5G29G24G21G10G 6
  22039178.256    -1198217.22649   -916251.53047  22039177.405    22039185.745
       232.000         189.000
  21078621.731     -503196.87749   -390265.52647  21078621.654    21078628.519
       241.000         203.000
  22567096.247     -223051.76449   -179534.35546  22567095.525    22567104.099
       225.000         172.000
  23850802.677    -1272142.89249   -976361.27545  23850803.922    23850812.811
       211.000         144.000
  24455164.438     -350154.58549   -276263.29145  24455165.551    24455173.513
       199.000         132.000
  22670615.337    -1295129.92449   -993739.04646  22670614.940    22670622.404
       226.000         171.000
  21166331.827     -520969.02349   -404422.65447  21166331.274    21166338.924
       238.000         197.000
  21040493.166    -1231442.27449   -940419.35547  21040493.090    21040500.008
       240.000         203.000
 03  5 12 17 22 30.0000000  0  8G17G30G 5G29G24G21G10G 6
  22030350.208    -1244608.85249   -952400.84047  22030349.416    22030357.419
       232.000         189.000
  21089244.490     -447373.90349   -346767.13947  21089244.920    21089250.855
       242.000         202.000
  22585408.220     -126821.84849   -104550.11146  22585408.317    22585416.352
       224.000         172.000
  23838279.628    -1337951.90149  -1027640.95045  23838278.593    23838289.817
       207.000         144.000
  24469814.035     -273169.94649   -216275.32245  24469815.509    24469821.747
       202.000         133.000
  22658938.882    -1356490.90849  -1041552.76546  22658938.623    22658944.666
       227.000         171.000
  21176524.128     -467409.00049   -362687.59847  21176523.678    21176531.006
       238.000         197.000
  21030789.283    -1282436.52849   -980155.13047  21030789.048    21030795.870
       240.000         203.000
 03  5 12 17 23  0.0000000  0  8G17G30G 5G29G24G21G10G 6
  22021561.602    -1290793.18449   -988388.62047  22021560.911    22021568.971
       231.000         189.000
  21099960.947     -391058.82149   -302885.29847  21099961.361    21099967.745
       242.000         202.000
  22603760.285      -30380.76049    -29401.29746  22603759.633    22603768.803
       224.000         171.000
  23825793.582    -1403567.25349  -1078769.67345  23825794.785    23825803.424
       213.000         146.000
  24484453.809     -196236.80249   -156327.50444  24484451.737    24484464.128
       198.000         131.000
  22647298.096    -1417663.39449  -1089219.60846  22647297.562    22647303.219
       227.000         171.000
  21186815.365     -413328.38449   -320546.87447  21186814.623    21186822.727
       237.000         198.000
  21021128.001    -1333207.38449  -1019716.83747  21021127.996    21021134.597
       240.000         203.000
 03  5 12 17 23 30.0000000  0  8G17G30G 5G29G24G21G10G 6
  22012812.238    -1336770.91049  -1024215.40047  22012811.378    22012819.596
       232.000         189.000
  21110770.604     -334253.84549   -258621.71947  21110771.277    21110777.341
       242.000         202.000
  22622152.043       66268.69249     45909.87346  22622151.091    22622159.241
       224.000         170.000
  23813345.147    -1468986.04649  -1129745.25745  23813345.664    23813354.990
       216.000         150.000
  24499083.478     -119355.81149    -96420.32345  24499081.639    24499094.163
       200.000         132.000
  22635693.144    -1478647.76349  -1136739.84946  22635692.566    22635699.456
       227.000         171.000
  21197205.204     -358729.72349   -278002.48547  21197204.651    21197211.924
       238.000         198.000
  21011509.552    -1383752.95449  -1059102.98047  21011509.545    21011516.057
       241.000         204.000
 03  5 12 17 24  0.0000000  0  8G17G30G 5G29G24G21G10G 6
  22004102.016    -1382543.71449  -1059882.49847  22004101.537    22004109.540
       233.000         189.000
  21121672.896     -276961.92549   -213978.70747  21121673.470    21121679.900
       241.000         202.000
  22640582.798      163122.90449    121380.59546  22640582.481    22640590.125
       223.000         170.000
  23800934.239    -1534206.19549  -1180566.04145  23800932.877    23800943.993
       210.000         150.000
  24513703.152      -42528.15349    -36554.66544  24513703.296    24513712.903
       201.000         130.000
  22624123.903    -1539445.27149  -1184114.49446  22624124.145    22624129.845
       228.000         172.000
  21207693.078     -303616.16849   -235056.87247  21207692.680    21207699.860
       238.000         198.000
  21001934.157    -1434072.36649  -1098312.89447  21001934.144    21001940.541
       240.000         203.000
 03  5 12 17 24 30.0000000  0  8G17G30G 5G29G24G21G10G 6
  21995431.046    -1428109.78049  -1095388.50647  21995430.490    21995438.517
       231.000         189.000
  21132667.730     -219184.07549   -168957.05147  21132668.178    21132674.462
       242.000         202.000
  22659052.204      260180.32949    197009.63746  22659051.765    22659060.499
       223.000         170.000
  23788561.550    -1599223.74249  -1231228.97545  23788560.682    23788571.102
       211.000         147.000
  24528312.886       34246.93349     23269.97445  24528314.012    24528323.849
       205.000         135.000
  22612590.498    -1600054.63749  -1231342.53846  22612590.679    22612597.002
       228.000         172.000
  21218278.695     -247988.94249   -191711.00547  21218278.112    21218285.518
       238.000         197.000
  20992402.251    -1484162.69649  -1137344.31647  20992402.003    20992408.742
       240.000         203.000
 03  5 12 17 25  0.0000000  0  8G17G30G 5G29G24G21G10G 6
  21986798.970    -1473471.26749  -1130735.09947  21986798.716    21986806.371
       232.000         189.000
  21143754.359     -160923.83749   -123559.50447  21143754.863    21143760.767
       241.000         201.000
  22677559.526      357436.88849    272793.86746  22677559.182    22677567.544
       222.000         169.000
  23776227.908    -1664036.79949  -1281732.59745  23776227.340    23776237.147
       210.000         146.000
  24542912.768      110967.65649     83052.28245  24542913.515    24542922.946
       211.000         135.000
  22601092.403    -1660477.34949  -1278425.13046  22601091.870    22601098.357
       227.000         172.000
  21228961.319     -191851.55249   -147967.60547  21228960.257    21228968.156
       237.000         198.000
  20982914.020    -1534023.46349  -1176196.85347  20982913.931    20982920.844
       240.000         203.000
 03  5 12 17 25 30.0000000  0  8G17G30G 5G29G24G21G10G 6
  21978205.859    -1518628.78949  -1165922.77047  21978205.345    21978213.235
       232.000         190.000
  21154932.433     -102183.24949    -77787.65247  21154932.895    21154939.380
       240.000         201.000
  22696104.217      454889.83049    348731.13646  22696102.965    22696112.843
       222.000         167.000
  23763933.750    -1728642.50849  -1332074.58745  23763932.912    23763943.904
       211.000         147.000
  24557502.388      187633.58449    142791.90245  24557502.825    24557511.524
       211.000         137.000
  22589629.977    -1720713.61149  -1325362.45046  22589629.455    22589636.255
       229.000         173.000
  21239740.437     -135206.46849   -103828.60147  21239739.624    21239747.437
       238.000         198.000
  20973469.840    -1583652.89349  -1214869.13247  20973469.839    20973476.367
       240.000         204.000
 03  5 12 17 26  0.0000000  0  9G17G30G 5G29G24G21G10G26G 6
  21969651.436    -1563582.82249  -1200951.86247  21969651.007    21969658.929
       232.000         190.000
  21166201.353      -42964.65649    -31643.34047  21166201.374    21166208.387
       240.000         201.000
  22714685.754      552536.33649    424819.22246  22714685.570    22714694.967
       222.000         168.000
  23751679.603    -1793037.84349  -1382252.63245  23751680.094    23751689.162
       214.000         148.000
  24572081.472      264244.37449    202488.57145  24572080.922    24572091.234
       209.000         135.000
  22578203.114    -1780763.29949  -1372154.37646  22578202.056    22578208.808
       228.000         174.000
  21250615.996      -78055.67149    -59295.53647  21250615.525    21250623.066
       239.000         198.000
                  -1923120.63359  -1469157.28344                  24042261.455
       203.000         112.000
  20964070.132    -1633049.22349  -1253359.77447  20964070.416    20964076.722
       240.000         204.000
 03  5 12 17 26 30.0000000  0  9G17G30G 5G29G24G21G10G26G 6
  21961135.848    -1608332.86549  -1235822.01747  21961135.492    21961142.998
       233.000         190.000
  21177560.932       16730.21749     14872.09847  21177561.589    21177567.858
       241.000         201.000
  22733303.738      650374.16849    501056.40346  22733304.331    22733313.363
       224.000         169.000
  23739466.403    -1857219.45649  -1432264.16445  23739466.070    23739475.388
       213.000         150.000
  24586649.720      340800.01449    262142.21245  24586648.977    24586658.725
       214.000         137.000
  22566811.296    -1840626.21849  -1418800.76346  22566809.733    22566816.892
       227.000         173.000
  21261587.429      -20401.31349    -14370.08647  21261586.760    21261594.163
       238.000         198.000
  24024867.976    -2014441.36949  -1540316.25544  24024869.899    24024880.614
       208.000         130.000
  20954715.250    -1682210.10749  -1291666.95347  20954715.362    20954721.831
       241.000         204.000
 03  5 12 17 27  0.0000000  0  9G17G30G 5G29G24G21G10G26G 6
  21952659.147    -1652878.00449  -1270532.50447  21952658.351    21952666.976
       232.000         190.000
  21189011.054       76900.49149     61757.97947  21189011.712    21189017.965
       241.000         201.000
  22751958.059      748401.78949    577441.46946  22751959.037    22751966.572
       223.000         169.000
  23727294.461    -1921182.85449  -1482105.66745  23727294.016    23727303.536
       211.000         151.000
  24601207.364      417301.56249    321753.77745  24601206.569    24601217.106
       210.000         138.000
  22555455.422    -1900301.29249  -1465300.79446  22555455.513    22555461.612
       228.000         173.000
  21272654.315       37755.63549     30946.99947  21272653.598    21272661.308
       238.000         197.000
  24007495.383    -2105740.74949  -1611458.58345  24007496.116    24007506.680
       203.000         134.000
  20945405.643    -1731132.44049  -1329788.24447  20945405.368    20945412.097
       240.000         204.000
 03  5 12 17 27 30.0000000  0  8G17G30G 5G29G21G10G26G 6
  21944220.334    -1697224.13049  -1305087.92047  21944220.212    21944228.011
       232.000         191.000
  21200550.200      137538.54649    109008.36747  21200550.994    21200557.156
       242.000         201.000
  22770646.843      846611.08349    653968.09046  22770646.659    22770655.774
       222.000         168.000
  23715163.610    -1984930.43249  -1531779.01445  23715163.664    23715173.661
       211.000         151.000
  22544134.504    -1959793.66949  -1511658.45946  22544133.881    22544140.287
       229.000         173.000
  21283815.341       96407.33149     76649.59647  21283814.722    21283822.102
       238.000         197.000
  23990125.667    -2197020.82649  -1682585.79345  23990126.591    23990136.881
       204.000         138.000
  20936140.751    -1779819.80249  -1367726.44747  20936140.701    20936147.142
       240.000         204.000
 03  5 12 17 28  0.0000000  0  9G17G30G 5G29G24G21G10G26G 6
  21935820.640    -1741365.26149  -1339483.58747  21935819.728    21935828.313
       233.000         191.000
  21212179.107      198648.34149    156626.34647  21212179.494    21212186.339
       241.000         201.000
  22789370.790      945005.64449    730639.06946  22789370.557    22789379.411
       222.000         167.000
  23703075.600    -2048453.35249  -1581277.27845  23703074.623    23703084.669
       211.000         149.000
                  -1226157.95159   -957440.75343
       209.000          74.000
  22532849.311    -2019097.37249  -1557869.09446  22532848.284    22532854.802
       227.000         174.000
  21295071.365      155557.71349    122740.78547  21295070.699    21295078.404
       237.000         197.000
  23972761.172    -2288272.01649  -1753690.47345  23972761.443    23972774.164
       209.000         140.000
  20926922.136    -1828264.15949  -1405475.28947  20926921.963    20926928.389
       240.000         205.000
 03  5 12 17 28 30.0000000  0  9G17G30G 5G29G24G21G10G26G 6
  21927459.510    -1785303.25349  -1373720.96747  21927458.816    21927466.547
       233.000         191.000
  21223897.020      260226.09049    204608.96347  21223897.362    21223904.077
       240.000         200.000
  22808129.095     1043581.11749    807451.01246  22808128.391    22808137.483
       221.000         167.000
  23691030.659    -2111750.00649  -1630599.23545  23691030.701    23691039.074
       210.000         148.000
                  -1149825.07749   -897960.47143
       211.000          74.000
  22521599.807    -2078214.02549  -1603933.98746  22521598.842    22521605.588
       228.000         174.000
  21306421.495      215202.94649    169217.57647  21306421.082    21306428.510
       237.000         197.000
  23955402.761    -2379492.41249  -1824771.25645  23955403.429    23955414.760
       208.000         140.000
  20917749.813    -1876465.11349  -1443034.46747  20917749.633    20917756.515
       240.000         205.000
 03  5 12 17 29  0.0000000  0  9G17G30G 5G29G24G21G10G26G 6
  21919137.153    -1829037.53149  -1407799.61347  21919136.548    21919144.507
       233.000         191.000
  21235703.720      322270.61949    252955.30247  21235703.938    21235710.375
       240.000         200.000
  22826921.620     1142335.78349    884402.60146  22826920.762    22826930.104
       222.000         167.000
  23679029.551    -2174816.10349  -1679741.54545  23679028.989    23679036.621
       211.000         146.000
                  -1073547.21049   -838523.34044                  24659340.824
       211.000         116.000
  22510385.911    -2137142.80049  -1649852.49946  22510385.015    22510392.067
       226.000         174.000
  21317865.557      275341.60549    216078.84847  21317864.849    21317872.400
       237.000         196.000
  23938050.900    -2470677.82049  -1895824.80245  23938050.632    23938060.779
       207.000         139.000
  20908624.374    -1924419.81049  -1480401.75947  20908624.401    20908631.119
       240.000         205.000
 03  5 12 17 29 30.0000000  0  9G17G30G 5G29G24G21G10G26G 6
  21910853.599    -1872567.77549  -1441719.26647  21910852.862    21910861.202
       233.000         191.000
  21247598.904      384780.43049    301664.19947  21247598.803    21247605.197
       240.000         199.000
  22845747.866     1241268.05249    961492.56546  22845747.968    22845756.124
       221.000         166.000
  23667072.753    -2237648.06449  -1728701.39145  23667072.127    23667082.026
       208.000         147.000
  24673834.097     -997323.74349   -779128.48944  24673836.119    24673842.659
       207.000         128.000
  22499207.938    -2195883.14849  -1695624.16346  22499208.152    22499213.018
       228.000         174.000
  21329403.188      335972.12849    263323.38947  21329402.422    21329410.054
       236.000         196.000
  23920706.290    -2561823.92949  -1966847.59645  23920705.660    23920717.274
       207.000         138.000
  20899546.315    -1972125.55949  -1517575.06447  20899546.235    20899552.718
       240.000         205.000
 03  5 12 17 30  0.0000000  0  9G17G30G 5G29G24G21G10G26G 6
  21902608.780    -1915894.92449  -1475480.66647  21902608.360    21902616.578
       233.000         192.000
  21259582.135      447752.51549    350733.31447  21259582.497    21259588.909
       240.000         199.000
  22864607.211     1340374.21749   1038718.04246  22864606.502    22864615.386
       221.000         165.000
  23655161.292    -2300243.67449  -1777477.08745  23655161.313    23655171.453
       212.000         149.000
  24688329.763     -921155.70949   -719776.81544  24688330.814    24688338.188
       209.000         126.000
  22488065.814    -2254435.80049  -1741249.56746  22488065.886    22488071.192
       228.000         175.000
  21341033.751      397091.26549    310948.67547  21341033.020    21341040.662
       236.000         196.000
  23903369.761    -2652928.06049  -2037837.67345  23903369.741    23903379.782
       201.000         136.000
  20890515.810    -2019581.38549  -1554553.61547  20890515.587    20890521.947
       240.000         205.000
 03  5 12 17 30 30.0000000  0  9G17G30G 5G29G24G21G10G26G 6
  21894401.868    -1959022.84849  -1509086.82947  21894401.211    21894409.023
       233.000         191.000
  21271652.244      511181.11349    400158.15047  21271652.831    21271659.190
       241.000         199.000
  22883498.506     1439648.29649   1116074.36846  22883498.104    22883508.006
       220.000         165.000
  23643294.491    -2362603.31649  -1826068.91845  23643294.268    23643303.744
       210.000         149.000
  24702813.469     -845046.53249   -660471.02144  24702812.439    24702821.913
       211.000         128.000
  22476958.623    -2312804.29649  -1786731.47746  22476958.066    22476964.610
       227.000         175.000
  21352756.292      458693.20649    358950.17047  21352755.415    21352762.949
       237.000         196.000
  23886041.024    -2743990.15749  -2108795.05145  23886040.148    23886052.017
       196.000         133.000
  20881532.498    -2066788.57549  -1591338.43547  20881532.246    20881538.798
       240.000         205.000
 03  5 12 17 31  0.0000000  0  9G17G30G 5G29G24G21G10G26G 6
  21886233.336    -2001948.41649  -1542535.30747  21886233.216    21886240.718
       233.000         191.000
  21283809.452      575067.31549    449939.55847  21283809.745    21283816.640
       240.000         199.000
  22902421.862     1539090.68749   1193561.83946  22902421.543    22902430.764
       220.000         165.000
  23631473.918    -2424720.63949  -1874471.94145  23631473.421    23631483.782
       210.000         150.000
  24717286.119     -768993.43949   -601208.91144  24717286.599    24717295.103
       204.000         128.000
  22465887.090    -2370985.46449  -1832067.42946  22465886.670    22465893.360
       227.000         175.000
  21364570.896      520778.99549    407328.68847  21364570.206    21364577.570
       237.000         195.000
  23868721.537    -2835003.67049  -2179714.61544  23868721.768    23868733.416
       198.000         131.000
  20872597.515    -2113742.16449  -1627925.64647  20872597.621    20872604.038
       239.000         205.000
 03  5 12 17 31 30.0000000  0  9G17G30G 5G29G24G21G10G26G 6
  21878102.684    -2044675.39849  -1575829.04347  21878102.275    21878109.683
       233.000         192.000
  21296052.657      639405.38849    500073.07047  21296053.269    21296059.863
       240.000         199.000
  22921376.094     1638695.31749   1271175.71846  22921375.862    22921385.418
       220.000         164.000
  23619699.352    -2486596.15849  -1922686.52545  23619699.193    23619708.473
       211.000         150.000
  24731747.294     -692999.75949   -541993.10744  24731748.557    24731754.162
       206.000         128.000
  22454850.639    -2428982.42749  -1877259.83446  22454851.010    22454856.118
       229.000         175.000
  21376476.403      583342.77249    456079.65847  21376475.564    21376483.315
       236.000         195.000
  23851411.514    -2925968.41349  -2250596.11845  23851410.942    23851421.976
       202.000         134.000
  20863710.550    -2160443.61449  -1664316.38747  20863710.424    20863716.982
       240.000         205.000
 03  5 12 17 32  0.0000000  0  9G17G30G 5G29G24G21G10G26G 6
  21870009.931    -2087203.25949  -1608967.61847  21870009.467    21870017.292
       234.000         192.000
  21308381.653      704193.91949    550557.59747  21308382.294    21308388.834
       241.000         199.000
  22940360.947     1738460.58949   1348914.77546  22940360.909    22940369.897
       220.000         164.000
  23607971.567    -2548225.75049  -1970709.46545  23607971.761    23607980.374
       213.000         151.000
  24746197.454     -617064.78949   -482823.03545  24746196.844    24746207.037
       206.000         134.000
  22443849.533    -2486794.10149  -1922307.85546  22443848.447    22443856.215
       228.000         176.000
  21388472.590      646383.17449    505202.03247  21388472.059    21388479.488
       237.000         195.000
  23834111.606    -3016879.99549  -2321436.14445  23834113.037    23834124.224
       204.000         133.000
  20854872.170    -2206889.92149  -1700508.30547  20854872.033    20854878.587
       240.000         205.000
 03  5 12 17 32 30.0000000  0  9G17G30G 5G29G24G21G10G26G 6
  21861954.882    -2129532.78949  -1641951.65347  21861954.164    21861962.016
       233.000         192.000
  21320795.718      769429.82949    601390.72947  21320796.160    21320802.573
       240.000         199.000
  22959375.687     1838382.92249   1426776.21946  22959375.815    22959384.042
       220.000         164.000
  23596291.009    -2609607.33049  -2018539.13745  23596291.038    23596299.856
       212.000         149.000
  24760635.943     -541189.61149   -423699.64045  24760635.059    24760644.627
       207.000         134.000
  22432883.297    -2544421.49049  -1967212.28346  22432882.309    22432889.101
       227.000         176.000
  21400558.843      709896.64749    554693.03147  21400557.772    21400565.891
       236.000         195.000
  23816822.569    -3107735.72149  -2392232.67445  23816822.177    23816832.184
       208.000         136.000
  20846082.366    -2253080.11649  -1736500.66047  20846082.088    20846089.059
       239.000         205.000
 03  5 12 17 33  0.0000000  0  9G17G30G 5G29G24G21G10G26G 6
  21853937.700    -2171663.31549  -1674780.61747  21853937.114    21853944.997
       234.000         192.000
  21333294.718      835112.29849    652571.83047  21333294.927    21333301.469
       240.000         198.000
  22978420.056     1938461.28949   1504759.26146  22978419.771    22978428.865
       219.000         163.000
  23584658.445    -2670736.43349  -2066172.12445  23584658.371    23584666.497
       212.000         148.000
  24775063.338     -465372.82249   -364621.70245  24775062.751    24775072.056
       209.000         134.000
  22421952.232    -2601864.26849  -2011972.85646  22421951.846    22421958.292
       229.000         176.000
  21412734.950      773882.35749    604552.00547  21412734.203    21412741.699
       236.000         195.000
  23799544.849    -3198530.72449  -2462981.97445  23799544.598    23799555.282
       206.000         141.000
  20837342.055    -2299010.63349  -1772290.67147  20837341.998    20837348.960
       240.000         205.000
 03  5 12 17 33 30.0000000  0  9G17G30G 5G29G24G21G10G26G 6
  21845958.316    -2213595.50649  -1707455.03747  21845957.688    21845965.420
       234.000         192.000
  21345878.126      901238.47749    704098.67847  21345878.955    21345885.059
       240.000         198.000
  22997493.511     2038692.38749   1582861.30645  22997493.676    22997501.770
       217.000         162.000
  23573074.386    -2731610.67149  -2113606.48745  23573073.731    23573083.381
       211.000         148.000
  24789479.523     -389615.46849   -305590.00845  24789479.231    24789488.288
       210.000         138.000
  22411056.445    -2659123.04149  -2056590.05346  22411055.919    22411062.989
       229.000         177.000
  21425000.452      838337.43749    654776.71547  21424999.911    21425006.961
       236.000         195.000
  23782279.069    -3289261.95549  -2533681.53945  23782278.951    23782289.971
       210.000         142.000
  20828651.505    -2344680.21049  -1807877.35347  20828651.525    20828658.038
       240.000         205.000
 03  5 12 17 34  0.0000000  0 10G17G30G 5G29G18G24G21G10G26G 6
  21838016.572    -2255329.51049  -1739975.02747  21838016.066    21838023.883
       233.000         192.000
  21358545.577      967806.05149    755969.46647  21358545.906    21358552.500
       239.000         198.000
  23016595.456     2139073.53649   1661080.27245  23016595.223    23016603.625
       217.000         162.000
  23561539.456    -2792226.83749  -2160839.73345  23561538.916    23561549.614
       210.000         150.000
  24775919.423    -1934611.09159  -1485123.97944  24775918.868    24775928.271
       199.000         131.000
  24803884.295     -313917.53149   -246604.65645  24803885.068    24803894.327
       210.000         141.000
  22400195.650    -2716196.55449  -2101062.89246  22400194.798    22400202.082
       228.000         177.000
  21437354.686      903259.52949    705365.33147  21437353.969    21437361.673
       236.000         195.000
  23765026.340    -3379925.98749  -2604328.69545  23765026.584    23765036.641
       208.000         144.000
  20820011.042    -2390086.75349  -1843259.07247  20820010.816    20820017.374
       240.000         206.000
 03  5 12 17 34 30.0000000  0 10G17G30G 5G29G18G24G21G10G26G 6
  21830111.851    -2296869.24049  -1772343.63547  21830111.228    21830119.190
       234.000         193.000
  21371295.843     1034809.16049    808179.63647  21371296.319    21371302.433
       239.000         197.000
  23035724.795     2239598.71449   1739411.45245  23035725.339    23035733.676
       219.000         162.000
  23550053.375    -2852585.57649  -2207872.42645  23550052.518    23550062.872
       212.000         151.000
  24755012.958    -2044475.03749  -1570732.22244  24755013.591    24755021.204
       199.000         130.000
  24818277.191     -238282.66249   -187668.45545  24818277.384    24818287.493
       209.000         143.000
  22389369.330    -2773088.64549  -2145394.36146  22389369.592    22389375.278
       228.000         177.000
  21449796.708      968642.87149    756313.36247  21449795.985    21449803.775
       236.000         194.000
  23747786.358    -3470522.67649  -2674923.35145  23747786.390    23747796.988
       206.000         145.000
  20811420.260    -2435231.78349  -1878437.01147  20811420.084    20811426.504
       240.000         206.000
 03  5 12 17 35  0.0000000  0 10G17G30G 5G29G18G24G21G10G26G 6
  21822245.102    -2338209.64249  -1804556.92547  21822244.554    21822252.639
       234.000         193.000
  21384129.616     1102250.77349    860731.50647  21384129.775    21384136.226
       239.000         197.000
  23054882.159     2340270.83049   1817857.15045  23054881.418    23054890.788
       219.000         162.000
  23538618.026    -2912678.27549  -2254697.80645  23538617.804    23538627.169
       213.000         152.000
  24734118.759    -2154274.61849  -1656290.32644  24734117.607    24734127.840
       195.000         129.000
  24832659.282     -162705.26149   -128777.02645  24832659.328    24832669.690
       209.000         145.000
  22378578.686    -2829793.84449  -2189580.21746  22378578.862    22378584.576
       229.000         178.000
  21462327.142     1034490.18749    807622.93047  21462326.321    21462333.833
       235.000         194.000
  23730560.841    -3561043.20549  -2745458.67445  23730559.955    23730571.423
       201.000         144.000
  20802880.594    -2480108.00949  -1913405.49447  20802880.286    20802886.968
       240.000         206.000
 03  5 12 17 35 30.0000000  0 10G17G30G 5G29G18G24G21G10G26G 6
  21814415.907    -2379352.22849  -1836616.06447  21814414.995    21814422.498
       234.000         193.000
  21397046.148     1170127.59449    913622.49447  21397046.663    21397053.211
       239.000         197.000
  23074066.853     2441086.16749   1896414.45345  23074067.026    23074075.721
       220.000         162.000
  23527233.936    -2972502.97849  -2301314.35245  23527233.335    23527242.802
       213.000         152.000
  24713236.990    -2264008.59049  -1741797.27444  24713235.893    24713246.439
       198.000         129.000
  24847030.236      -87186.58649    -69931.37245  24847030.389    24847038.990
       203.000         142.000
  22367823.414    -2886313.54749  -2233621.50046  22367823.028    22367829.314
       230.000         178.000
  21474945.141     1100797.96249    859291.29447  21474944.315    21474952.134
       235.000         194.000
  23713349.991    -3651484.96549  -2815932.63645  23713348.690    23713360.834
       200.000         141.000
  20794392.254    -2524714.49749  -1948163.79247  20794391.992    20794398.673
       240.000         206.000
 03  5 12 17 36  0.0000000  0 10G17G30G 5G29G18G24G21G10G26G 6
  21806624.244    -2420297.41349  -1868521.39347  21806624.198    21806631.139
       234.000         193.000
  21410044.994     1238436.66149    966850.29447  21410045.454    21410051.969
       240.000         197.000
  23093278.233     2542041.49549   1975080.82745  23093278.746    23093286.721
       219.000         162.000
  23515901.057    -3032057.33049  -2347720.24445  23515901.240    23515908.944
       211.000         150.000
  24692368.161    -2373675.19549  -1827251.75944  24692366.590    24692376.741
       198.000         129.000
  24861389.700      -11727.40949    -11132.07645  24861389.188    24861399.611
       199.000         138.000
  22357103.345    -2942648.04649  -2277518.49046  22357102.660    22357109.442
       229.000         178.000
  21487650.174     1167563.28249    911316.18947  21487649.550    21487657.425
       235.000         193.000
  23696154.859    -3741844.98549  -2886342.86445  23696155.233    23696165.814
       208.000         141.000
  20785955.387    -2569050.17349  -1982711.07247  20785955.083    20785962.062
       240.000         205.000
 03  5 12 17 36 30.0000000  0 10G17G30G 5G29G18G24G21G10G26G 6
  21798870.039    -2461046.48949  -1900273.91347  21798869.557    21798877.208
       234.000         193.000
  21423125.505     1307174.72949   1020412.38247  21423125.819    21423132.390
       239.000         197.000
  23112515.499     2643133.30049   2053853.56545  23112515.439    23112524.513
       217.000         161.000
  23504619.813    -3091339.13949  -2393913.76345  23504618.881    23504627.800
       211.000         148.000
  24671512.043    -2483272.78049  -1912652.46644  24671510.209    24671521.414
       202.000         131.000
  24875737.218       63671.55348     47620.27145  24875734.078    24875749.134
       191.000         134.000
  22346418.101    -2998799.04549  -2321272.49346  22346418.027    22346423.639
       229.000         178.000
  21500441.611     1234782.78149    963694.99147  21500441.094    21500448.608
       235.000         193.000
  23678976.076    -3832120.45949  -2956687.29045  23678976.496    23678986.774
       211.000         144.000
  20777570.391    -2613113.68849  -2017046.26747  20777570.397    20777577.199
       240.000         206.000
 03  5 12 17 37  0.0000000  0  9G17G30G 5G29G18G21G10G26G 6
  21791153.357    -2501597.88649  -1931872.39047  21791152.809    21791160.757
       234.000         193.000
  21436287.465     1376341.33349   1074308.38747  21436288.057    21436294.450
       239.000         196.000
  23131778.447     2744360.73349   2132731.96145  23131778.213    23131787.823
       216.000         161.000
  23493391.579    -3150343.66749  -2439891.22545  23493392.403    23493400.111
       216.000         151.000
  24650669.829    -2592797.28949  -1997996.21845  24650669.477    24650680.056
       204.000         134.000
  22335768.217    -3054764.47249  -2364881.89846  22335768.080    22335774.159
       230.000         178.000
  21513319.423     1302455.83749   1016427.21347  21513318.679    21513326.297
       235.000         193.000
  23661814.311    -3922306.16449  -3026961.78745  23661814.307    23661825.170
       212.000         145.000
  20769237.989    -2656901.20949  -2051166.40847  20769237.966    20769244.419
       242.000         206.000
 03  5 12 17 37 30.0000000  0  9G17G30G 5G29G18G21G10G26G 6
  21783473.141    -2541957.49849  -1963321.43747  21783472.726    21783480.248
       234.000         193.000
  21449529.566     1445928.67549   1128532.24147  21449529.889    21449536.468
       239.000         196.000
  23151065.719     2845715.81049   2211709.82245  23151065.181    23151075.239
       217.000         160.000
  23482216.058    -3209073.17049  -2485654.36945  23482216.140    23482224.815
       215.000         155.000
  24629841.269    -2702251.71749  -2083285.36645  24629839.717    24629851.255
       206.000         135.000
  22325152.848    -3110549.26049  -2408350.54346  22325152.339    22325157.828
       231.000         178.000
  21526281.993     1370574.68449   1069506.80247  21526281.316    21526288.662
       235.000         192.000
  23644669.260    -4012403.82049  -3097167.65345  23644669.866    23644680.276
       210.000         144.000
  20760957.465    -2700416.00149  -2085074.03647  20760957.248    20760963.800
       240.000         206.000
 03  5 12 17 38  0.0000000  0  9G17G30G 5G29G18G21G10G26G 6
  21775830.344    -2582120.68349  -1994617.42147  21775829.757    21775837.485
       234.000         194.000
  21462852.129     1515938.48549   1183085.28947  21462852.846    21462859.179
       239.000         196.000
  23170377.724     2947200.54949   2290788.73345  23170377.302    23170386.428
       217.000         160.000
  23471093.836    -3267520.43549  -2531197.61745  23471093.300    23471102.434
       214.000         157.000
  24609027.493    -2811629.39449  -2168514.71245  24609027.105    24609037.460
       209.000         137.000
  22314572.520    -3166149.53549  -2451675.40746  22314572.183    22314578.480
       230.000         179.000
  21539329.883     1439141.29449   1122935.29347  21539329.243    21539336.863
       234.000         192.000
  23627542.337    -4102405.36849  -3167298.61945  23627541.673    23627551.717
       207.000         143.000
  20752729.979    -2743651.61949  -2118764.12947  20752729.864    20752736.439
       240.000         206.000
 03  5 12 17 38 30.0000000  0  9G17G30G 5G29G18G21G10G26G 6
  21768224.153    -2622091.54349  -2025763.53747  21768223.303    21768231.694
       234.000         194.000
  21476253.957     1586365.18349   1237963.18947  21476254.558    21476260.826
       238.000         196.000
  23189713.243     3048808.80349   2369963.89045  23189713.226    23189721.624
       217.000         160.000
  23460025.001    -3325685.79749  -2576521.20345  23460023.943    23460033.713
       212.000         156.000
  24588228.013    -2920931.38749  -2253685.04745  24588226.965    24588237.821
       209.000         140.000
  22304026.442    -3221568.66049  -2494859.12146  22304024.885    22304032.437
       229.000         179.000
  21552461.733     1508149.59549   1176707.96747  21552460.752    21552468.718
       234.000         191.000
  23610433.757    -4192310.76849  -3237354.65545  23610433.777    23610444.631
       209.000         145.000
  20744555.368    -2786609.49949  -2152237.79147  20744555.363    20744561.692
       240.000         206.000
 03  5 12 17 39  0.0000000  0  9G17G30G 5G29G18G21G10G26G 6
  21760655.136    -2661866.86949  -2056757.29447  21760654.742    21760662.176
       234.000         194.000
  21489735.365     1657209.93049   1293166.84847  21489735.805    21489742.246
       239.000         196.000
  23209072.404     3150541.31149   2449235.86445  23209072.653    23209081.837
       217.000         159.000
  23449011.409    -3383562.62849  -2621619.98845  23449011.277    23449020.680
       214.000         156.000
  24567444.064    -3030151.61949  -2338791.68645  24567443.223    24567452.773
       212.000         141.000
  22293515.639    -3276802.93849  -2537898.80646  22293515.540    22293520.892
       230.000         179.000
  21565677.848     1577600.81549   1230825.76547  21565677.222    21565684.681
       235.000         191.000
  23593345.259    -4282112.54849  -3307329.94845  23593346.086    23593355.834
       210.000         148.000
  20736434.649    -2829284.19249  -2185490.79247  20736434.525    20736440.845
       240.000         206.000
 03  5 12 17 39 30.0000000  0  9G17G30G 5G29G18G21G10G26G 6
  21753122.791    -2701449.72349  -2087601.08047  21753122.127    21753130.057
       234.000         194.000
  21503295.223     1728467.31749   1348692.03947  21503295.598    21503302.010
       238.000         195.000
  23228454.268     3252392.66549   2528600.44345  23228453.816    23228463.351
       218.000         158.000
  23438052.869    -3441150.89949  -2666493.89145  23438052.214    23438061.237
       215.000         156.000
  24546675.521    -3139290.90049  -2423835.23945  24546675.220    24546685.106
       210.000         141.000
  22283039.733    -3331855.28549  -2580796.72546  22283039.563    22283045.714
       230.000         179.000
  21578977.328     1647489.32949   1285284.30647  21578977.155    21578984.052
       234.000         191.000
  23576276.180    -4371810.26549  -3377224.15645  23576275.214    23576285.433
       204.000         145.000
  20728367.640    -2871676.65249  -2218523.87947  20728367.500    20728374.095
       240.000         206.000
 03  5 12 17 40  0.0000000  0  9G17G30G 5G29G18G21G10G26G 6
  21745627.043    -2740839.86649  -2118294.69547  21745626.326    21745634.262
       234.000         194.000
  21516933.165     1800135.15649   1404537.06747  21516933.337    21516939.823
       238.000         194.000
  23247858.301     3354360.82849   2608056.03345  23247858.033    23247867.391
       216.000         158.000
  23427149.682    -3498447.23249  -2711140.29745  23427149.422    23427157.471
       215.000         156.000
  24525923.091    -3248346.33749  -2508813.43145  24525923.437    24525931.455
       214.000         140.000
  22272598.317    -3386725.43449  -2623552.66046  22272597.192    22272603.645
       230.000         179.000
  21592359.459     1717812.92549   1340081.88547  21592358.541    21592366.160
       233.000         190.000
  23559227.397    -4461399.86249  -3447034.10945  23559227.846    23559236.809
       210.000         144.000
  20720354.764    -2913784.55749  -2251335.23247  20720354.527    20720361.234
       241.000         206.000
 03  5 12 17 40 30.0000000  0  9G17G30G 5G29G18G21G10G26G 6
  21738167.922    -2780037.98449  -2148838.68047  21738167.790    21738175.323
       235.000         194.000
  21530648.736     1872210.86249   1460699.90947  21530649.232    21530655.633
       237.000         194.000
  23267283.916     3456442.84549   2687600.33445  23267283.595    23267292.997
       215.000         157.000
  23416302.400    -3555448.97249  -2755557.15145  23416302.481    23416311.083
       217.000         155.000
  24505187.133    -3357315.92849  -2593724.75945  24505187.931    24505195.419
       212.000         139.000
  22262191.285    -3441413.90449  -2666167.03846  22262190.586    22262196.829
       230.000         180.000
  21605823.965     1788569.10249   1395216.52947  21605823.150    21605831.339
       234.000         190.000
  23542200.525    -4550877.88749  -3516757.13845  23542201.553    23542211.476
       215.000         149.000
  20712396.405    -2955606.06349  -2283923.41647  20712396.177    20712402.927
       240.000         206.000
 03  5 12 17 41  0.0000000  0  9G17G30G 5G29G18G21G10G26G 6
  21730745.285    -2819044.90649  -2179233.67247  21730744.778    21730752.523
       234.000         194.000
  21544441.271     1944691.15949   1517178.01847  21544441.843    21544448.722
       238.000         194.000
  23286730.564     3558635.28949   2767230.68545  23286729.752    23286739.671
       216.000         157.000
  23405511.910    -3612153.84349  -2799742.69445  23405512.351    23405520.552
       217.000         156.000
  24484467.581    -3466198.09049  -2678567.91645  24484468.045    24484474.900
       210.000         138.000
  22251818.885    -3495921.53949  -2708640.50046  22251818.607    22251824.744
       231.000         180.000
  21619370.114     1859754.46549   1450685.61447  21619369.512    21619376.800
       234.000         190.000
  23525195.327    -4640241.48849  -3586391.00545  23525194.477    23525205.801
       208.000         149.000
  20704492.809    -2997139.86649  -2316287.41147  20704492.838    20704499.027
       241.000         206.000
 03  5 12 17 41 30.0000000  0  9G17G30G 5G29G18G21G10G26G 6
  21723359.207    -2857858.70249  -2209478.19547  21723358.342    21723366.117
       234.000         194.000
  21558310.857     2017575.92649   1573971.29247  21558311.262    21558318.067
       238.000         195.000
  23306198.259     3660938.00949   2846946.94645  23306198.245    23306207.643
       216.000         157.000
  23394778.866    -3668556.46049  -2843692.73545  23394779.181    23394787.857
       214.000         157.000
  24463765.475    -3574988.10249  -2763339.29745  24463765.128    24463773.381
       209.000         135.000
  22241481.434    -3550245.89549  -2750971.14946  22241480.983    22241487.086
       232.000         180.000
  21632997.964     1931368.99549   1506489.10147  21632997.298    21633004.700
       233.000         189.000
  23508212.480    -4729484.60849  -3655930.98445  23508212.313    23508221.196
       206.000         144.000
  20696644.767    -3038381.61449  -2348423.83647  20696644.421    20696651.317
       240.000         206.000
 03  5 12 17 42  0.0000000  0  9G17G30G 5G29G18G21G10G26G 6
  21716009.248    -2896482.66449  -2239574.77747  21716008.720    21716016.808
       235.000         194.000
  21572256.422     2090859.78249   1631075.55347  21572256.468    21572262.995
       237.000         194.000
  23325685.915     3763345.24649   2926744.68345  23325685.204    23325694.631
       217.000         157.000
  23384103.084    -3724657.07349  -2887407.41945  23384102.822    23384112.255
       214.000         158.000
  24443080.682    -3683686.60849  -2848039.33345  24443080.018    24443090.653
       209.000         135.000
  22231178.197    -3604389.84849  -2793161.22246  22231177.296    22231182.793
       231.000         180.000
  21646706.347     2003407.04849   1562622.62147  21646705.727    21646712.974
       233.000         189.000
  23491253.019    -4818606.61849  -3725376.58945  23491252.694    23491262.578
       209.000         143.000
  20688852.137    -3079332.29049  -2380333.44647  20688851.916    20688858.588
       240.000         206.000
 03  5 12 17 42 30.0000000  0  9G17G30G 5G29G18G21G10G26G 6
  21708695.669    -2934916.33749  -2269523.09047  21708695.103    21708703.001
       235.000         195.000
  21586277.419     2164540.80949   1688489.29547  21586277.821    21586284.455
       238.000         193.000
  23345193.049     3865855.05049   3006622.32545  23345193.179    23345202.511
       219.000         158.000
  23373485.686    -3780451.95549  -2930883.90745  23373484.773    23373494.116
       216.000         158.000
  24422414.054    -3792290.62049  -2932665.72945  24422413.045    24422423.018
       209.000         136.000
  22220909.342    -3658352.39249  -2835209.93846  22220908.655    22220915.651
       230.000         180.000
  21660495.041     2075866.57249   1619084.54747  21660494.592    21660502.094
       234.000         189.000
  23474317.616    -4907603.34849  -3794724.57045  23474317.448    23474328.248
       209.000         144.000
  20681115.317    -3119989.36549  -2412014.28347  20681115.142    20681121.869
       240.000         206.000
 03  5 12 17 43  0.0000000  0  9G17G30G 5G29G18G21G10G26G 6
  21701418.285    -2973159.26749  -2299322.76847  21701417.341    21701425.428
       235.000         195.000
  21600373.798     2238617.49049   1746211.33747  21600374.032    21600380.931
       237.000         193.000
  23364719.468     3968466.28849   3086579.01845  23364718.512    23364728.568
       217.000         157.000
  23362927.175    -3835937.27149  -2974119.18645  23362926.652    23362935.073
       216.000         157.000
  24401766.087    -3900796.62849  -3017215.77645  24401764.840    24401774.445
       207.000         135.000
  22210675.024    -3712133.61649  -2877117.36046  22210674.970    22210680.210
       231.000         181.000
  21674363.680     2148746.17049   1675873.80247  21674363.171    21674370.697
       234.000         189.000
  23457406.706    -4996470.01549  -3863971.23545  23457406.905    23457417.622
       210.000         145.000
  20673435.093    -3160349.61149  -2443463.81847  20673434.999    20673441.415
       241.000         206.000
 03  5 12 17 43 30.0000000  0  9G17G30G 5G29G18G21G10G26G 6
  21694176.948    -3011212.33949  -2328974.50947  21694176.844    21694184.172
       235.000         194.000
  21614544.732     2313086.25749   1804238.90347  21614545.282    21614551.728
       237.000         193.000
  23384264.392     4071175.27349   3166611.85745  23384263.661    23384272.311
       213.000         156.000
  23352427.918    -3891110.96449  -3017111.61545  23352428.430    23352436.587
       215.000         158.000
  24381137.062    -4009203.55549  -3101688.61345  24381136.301    24381147.817
       202.000         132.000
  22200475.305    -3765734.25049  -2918884.07246  22200474.801    22200481.028
       230.000         181.000
  21688311.431     2222042.47149   1732987.76847  21688311.045    21688318.116
       233.000         189.000
  23440521.277    -5085203.98849  -3933114.48445  23440521.904    23440530.536
       210.000         145.000
  20665811.530    -3200412.14649  -2474681.37347  20665811.247    20665817.936
       241.000         206.000
 03  5 12 17 44  0.0000000  0  9G17G30G 5G29G18G21G10G26G 6
  21686971.874    -3049075.48949  -2358478.25547  21686971.842    21686979.288
       236.000         195.000
  21628790.010     2387945.08249   1862570.41447  21628790.490    21628796.993
       238.000         193.000
  23403827.482     4173979.76749   3246719.12045  23403827.307    23403836.934
       211.000         154.000
  23341988.545    -3945969.77949  -3059858.66645  23341988.188    23341997.239
       216.000         158.000
  24360527.109    -4117508.37949  -3186081.87944  24360526.139    24360534.092
       203.000         129.000
  22190309.862    -3819153.71349  -2960509.60046  22190309.408    22190315.531
       231.000         181.000
  21702338.182     2295753.18449   1790424.65447  21702338.034    21702345.305
       233.000         189.000
  23423661.662    -5173801.21849  -4002151.12945  23423660.347    23423671.918
       206.000         145.000
  20658244.934    -3240174.70049  -2505665.17947  20658244.605    20658251.159
       240.000         206.000
 03  5 12 17 44 30.0000000  0  9G17G30G 5G29G18G21G10G26G 6
  21679802.606    -3086750.65349  -2387835.51747  21679801.885    21679809.661
       235.000         195.000
  21643108.677     2463189.87349   1921202.67347  21643108.937    21643116.006
       237.000         193.000
  23423407.936     4276875.62349   3326897.57245  23423407.412    23423417.220
       214.000         152.000
  23331609.511    -4000512.54549  -3102359.46145  23331609.433    23331617.597
       216.000         156.000
  24339936.636    -4225710.38449  -3270395.03444  24339933.245    24339945.399
       200.000         128.000
  22180178.555    -3872393.53749  -3001995.15546  22180177.922    22180184.346
       231.000         181.000
  21716443.080     2369874.33349   1848181.36247  21716442.130    21716450.189
       233.000         189.000
  23406828.218    -5262259.52149  -4071079.58245  23406828.560    23406838.359
       209.000         143.000
  20650735.473    -3279636.67949  -2536414.76747  20650735.223    20650741.617
       240.000         206.000
 03  5 12 17 45  0.0000000  0  9G17G30G 5G29G18G21G10G26G 6
  21672669.349    -3124235.83949  -2417044.74447  21672668.684    21672676.020
       235.000         195.000
  21657500.735     2538820.60649   1980135.65647  21657501.074    21657507.927
       238.000         193.000
  23443005.843     4379862.64549   3407147.06545  23443005.685    23443014.762
       215.000         152.000
  23321291.593    -4054733.52849  -3144609.53145  23321291.536    23321298.692
       213.000         155.000
  24319366.777    -4333804.56949  -3354624.18444  24319366.643    24319375.281
       201.000         130.000
  22170081.984    -3925451.22849  -3043338.79546  22170081.782    22170088.402
       231.000         181.000
  21730625.870     2444405.77349   1906257.77647  21730624.981    21730632.638
       233.000         188.000
  23390022.929    -5350572.71649  -4139894.97645  23390022.255    23390032.940
       212.000         146.000
  20643284.152    -3318793.51149  -2566926.58447  20643283.792    20643290.646
       241.000         207.000
 03  5 12 17 45 30.0000000  0  9G17G30G 5G29G18G21G10G26G 6
  21665571.436    -3161535.73049  -2446109.59247  21665571.007    21665578.492
       236.000         195.000
  21671964.942     2614830.08249   2039363.77147  21671964.921    21671971.869
       237.000         193.000
  23462619.778     4482934.04549   3487462.31045  23462619.876    23462628.294
       216.000         153.000
  23311034.436    -4108634.48149  -3186610.22045  23311033.717    23311043.080
       213.000         155.000
  24298817.235    -4441793.39849  -3438771.23944  24298815.900    24298826.777
       203.000         130.000
  22160019.289    -3978331.02449  -3084543.80646  22160018.498    22160025.303
       232.000         182.000
  21744885.568     2519340.56049   1964648.48547  21744884.610    21744892.356
       233.000         188.000
  23373244.971    -5438741.71849  -4208597.96345  23373244.490    23373254.633
       210.000         145.000
  20635890.503    -3357647.62149  -2597202.51447  20635890.340    20635897.062
       240.000         207.000
 03  5 12 17 46  0.0000000  0  9G17G30G 5G29G18G21G10G26G 6
  21658509.434    -3198646.92049  -2475027.39047  21658508.706    21658516.729
       236.000         195.000
  21686501.435     2691219.49149   2098887.93547  21686502.127    21686508.527
       237.000         192.000
  23482250.056     4586090.88949   3567844.15145  23482250.286    23482259.177
       215.000         154.000
  23300839.406    -4162208.82049  -3228356.39045  23300839.275    23300848.802
       215.000         158.000
  24278288.833    -4549670.82849  -3522831.46945  24278287.881    24278297.915
       204.000         132.000
  22149991.079    -4031029.73749  -3125607.71046  22149990.711    22149996.526
       231.000         182.000
  21759222.200     2594679.57449   2023354.17447  21759221.494    21759229.012
       232.000         188.000
  23356495.608    -5526758.96049  -4277182.68945  23356494.665    23356505.268
       207.000         142.000
  20628555.531    -3396193.27549  -2627238.08847  20628555.528    20628562.018
       240.000         207.000
 03  5 12 17 46 30.0000000  0  9G17G30G 5G29G18G21G10G26G 6
  21651482.640    -3235572.81349  -2503800.80447  21651481.721    21651489.964
       235.000         195.000
  21701109.200     2767983.27049   2158703.81947  21701109.724    21701116.158
       237.000         192.000
  23501895.374     4689327.66649   3648288.24445  23501895.416    23501904.385
       213.000         153.000
  23290706.767    -4215456.59249  -3269848.11345  23290706.649    23290715.833
       217.000         160.000
  24257781.467    -4657437.36249  -3606805.29745  24257779.769    24257789.826
       207.000         136.000
  22139996.723    -4083550.51049  -3166532.95746  22139996.050    22140002.116
       231.000         182.000
  21773634.512     2670417.18249   2082370.46147  21773633.747    21773641.956
       232.000         188.000
  23339775.381    -5614623.80549  -4345648.70045  23339776.019    23339784.810
       210.000         145.000
  20621279.061    -3434431.49049  -2657034.10147  20621278.996    20621285.466
       241.000         207.000
 03  5 12 17 47  0.0000000  0  9G17G30G 5G29G18G21G10G26G 6
  21644491.549    -3272311.17049  -2532428.09047  21644491.101    21644498.814
       236.000         195.000
  21715788.033     2845120.91549   2218811.03047  21715788.522    21715795.090
       237.000         191.000
  23521555.821     4792643.66449   3728794.07545  23521555.656    23521566.218
       214.000         153.000
  23280637.094    -4268373.13649  -3311081.73145  23280635.991    23280645.131
       216.000         159.000
  24237296.023    -4765088.76949  -3690689.41445  24237295.040    24237305.747
       210.000         141.000
  22130036.540    -4135891.40649  -3207318.03446  22130036.495    22130042.419
       232.000         182.000
  21788122.679     2746552.85649   2141696.92746  21788122.057    21788129.784
       232.000         187.000
  23323085.380    -5702330.66749  -4413991.64045  23323084.954    23323095.553
       211.000         148.000
  20614061.863    -3472358.30649  -2686587.45347  20614061.762    20614068.255
       242.000         206.000
 03  5 12 17 47 30.0000000  0  9G17G30G 5G29G18G21G10G26G 6
  21637535.832    -3308863.68449  -2560910.56147  21637535.256    21637543.301
       236.000         195.000
  21730537.384     2922628.83749   2279206.76647  21730537.502    21730544.037
       237.000         191.000
  23541230.821     4896035.57849   3809359.04445  23541231.664    23541240.320
       213.000         152.000
  23270630.721    -4320956.34249  -3352055.60445  23270630.628    23270638.565
       217.000         158.000
  24216832.727    -4872623.50149  -3774482.62845  24216832.226    24216841.626
       213.000         146.000
  22120110.546    -4188053.13549  -3247963.51246  22120110.216    22120115.807
       232.000         182.000
  21802685.945     2823083.34749   2201331.04146  21802684.925    21802692.810
       232.000         187.000
  23306425.859    -5789876.67249  -4482209.18645  23306426.507    23306435.854
       211.000         147.000
  20606904.120    -3509972.71449  -2715897.37247  20606903.797    20606910.356
       240.000         207.000
 03  5 12 17 48  0.0000000  0  9G17G30G 5G29G18G21G10G26G 6
  21630615.515    -3345230.49149  -2589248.32047  21630614.817    21630622.482
       236.000         195.000
  21745356.666     3000504.27949   2339888.87347  21745356.933    21745363.252
       237.000         191.000
  23560919.770     4999500.62049   3889981.00345  23560919.785    23560929.094
       213.000         152.000
  23260688.454    -4373203.48849  -3392767.59545  23260688.460    23260697.073
       215.000         157.000
  24196392.192    -4980039.30949  -3858183.17745  24196392.616    24196401.223
       214.000         150.000
  22110218.533    -4240035.97049  -3288469.58746  22110218.504    22110224.130
       232.000         183.000
  21817323.889     2900005.61549   2261270.42846  21817323.042    21817331.230
       232.000         187.000
  23289797.587    -5877258.28049  -4550298.65045  23289797.858    23289805.996
       211.000         146.000
  20599806.109    -3547272.74449  -2744962.33347  20599805.881    20599812.556
       241.000         207.000
 03  5 12 17 48 30.0000000  0  9G17G30G 5G29G18G21G10G26G 6
  21623730.259    -3381412.99349  -2617442.47647  21623729.903    21623737.057
       235.000         195.000
  21760245.218     3078743.57249   2400854.50847  21760245.735    21760252.143
       237.000         191.000
  23580621.982     5103035.03049   3970657.02145  23580622.445    23580631.353
       214.000         151.000
  23250810.466    -4425113.00449  -3433216.50945  23250810.749    23250820.268
       213.000         154.000
  24175974.564    -5087335.31549  -3941790.37145  24175974.501    24175983.554
       215.000         152.000
  22100360.279    -4291841.02449  -3328837.12446  22100359.529    22100366.137
       231.000         183.000
  21832035.595     2977315.78249   2321512.08246  21832034.547    21832042.728
       231.000         187.000
  23273201.252    -5964472.90449  -4618257.95745  23273201.528    23273210.737
       213.000         147.000
  20592768.125    -3584257.53049  -2773781.64547  20592767.684    20592774.261
       241.000         207.000
 03  5 12 17 49  0.0000000  0  9G17G30G 5G29G18G21G10G26G 6
  21616880.048    -3417411.02649  -2645492.87747  21616879.256    21616887.432
       236.000         195.000
  21775202.574     3157344.66549   2462102.06547  21775202.831    21775209.195
       236.000         191.000
  23600336.845     5206637.07749   4051385.73345  23600337.546    23600345.779
       212.000         150.000
  23240997.156    -4476681.30649  -3473399.52745  23240996.083    23241006.090
       212.000         153.000
  24155580.431    -5194508.12449  -4025301.56945  24155580.100    24155589.001
       214.000         152.000
  22090535.993    -4343468.07449  -3369065.95846  22090535.720    22090541.397
       232.000         183.000
  21846820.736     3055012.37349   2382054.84246  21846819.891    21846827.885
       231.000         186.000
  23256637.475    -6051516.18449  -4686083.81645  23256637.215    23256647.903
       212.000         150.000
  20585790.690    -3620924.50949  -2802353.31247  20585790.764    20585797.003
       241.000         207.000
 03  5 12 17 49 30.0000000  0  9G17G30G 5G29G18G21G10G26G 6
  21610064.818    -3453225.11449  -2673399.94547  21610064.074    21610071.942
       236.000         195.000
  21790228.071     3236304.63549   2523629.25347  21790228.429    21790234.746
       235.000         190.000
  23620064.096     5310303.94949   4132164.97245  23620064.130    23620072.795
       212.000         149.000
  23231249.243    -4527905.83949  -3513314.69845  23231250.100    23231258.217
       217.000         155.000
  24135209.892    -5301556.08849  -4108715.48845  24135208.873    24135218.215
       212.000         151.000
  22080745.687    -4394916.80049  -3409155.84346  22080744.858    22080751.393
       231.000         183.000
  21861678.929     3133092.42449   2442896.39146  21861678.205    21861685.915
       232.000         186.000
  23240106.882    -6138384.75149  -4753773.52445  23240107.378    23240116.443
       214.000         151.000
  20578874.051    -3657271.94949  -2830675.98947  20578873.862    20578880.224
       241.000         207.000
 03  5 12 17 50  0.0000000  0  9G17G30G 5G29G18G21G10G26G 6
  21603284.646    -3488854.92249  -2701163.42447  21603283.758    21603291.658
       235.000         195.000
  21805321.550     3315621.22949   2585434.33947  21805322.020    21805328.474
       236.000         190.000
  23639803.259     5414033.22049   4212992.81345  23639802.795    23639812.827
       211.000         149.000
  23221567.766    -4578783.45849  -3552959.56545  23221568.303    23221575.604
       216.000         157.000
  24114863.553    -5408476.22849  -4192029.80345  24114862.378    24114871.904
       210.000         148.000
  22070989.102    -4446187.44649  -3449106.94846  22070988.413    22070994.461
       232.000         183.000
  21876609.641     3211553.39349   2504034.75946  21876609.159    21876617.118
       231.000         186.000
  23223610.394    -6225074.47149  -4821323.80845  23223610.429    23223618.421
       215.000         150.000
  20572018.644    -3693297.40649  -2858747.76747  20572018.658    20572024.820
       241.000         207.000
 03  5 12 17 50 30.0000000  0  9G17G30G 5G29G18G21G10G26G 6
  21596539.223    -3524302.65549  -2728785.01647  21596538.637    21596546.178
       235.000         196.000
  21820482.101     3395290.30149   2647514.08047  21820482.644    21820488.855
       236.000         189.000
  23659553.349     5517820.99149   4293866.24645  23659553.632    23659563.368
       211.000         149.000
  23211952.205    -4629312.99249  -3592333.17045  23211952.130    23211960.705
       216.000         159.000
  24094541.699    -5515267.83249  -4275243.95645  24094540.467    24094549.848
       208.000         146.000
  22061266.272    -4497281.75949  -3488920.67146  22061266.023    22061271.526
       232.000         184.000
  21891612.016     3290391.35149   2565466.88746  21891611.463    21891619.548
       232.000         186.000
  23207148.298    -6311583.11249  -4888733.03645  23207147.476    23207158.385
       212.000         149.000
  20565224.625    -3729000.28549  -2886568.18747  20565224.401    20565231.178
       241.000         207.000
 03  5 12 17 51  0.0000000  0  9G17G30G 5G29G18G21G10G26G 6
  21589828.615    -3559567.29749  -2756263.94047  21589828.143    21589835.563
       236.000         196.000
  21835709.536     3475310.31249   2709867.28047  21835710.212    21835716.644
       237.000         190.000
  23679314.496     5621665.81249   4374784.12445  23679314.572    23679324.320
       213.000         149.000
  23202403.701    -4679490.57949  -3631432.52945  23202403.081    23202412.498
       217.000         160.000
  24074244.846    -5621927.43249  -4358355.22845  24074244.367    24074252.845
       208.000         145.000
  22051577.172    -4548198.31849  -3528595.86846  22051575.682    22051582.645
       232.000         184.000
  21906685.925     3369604.71649   2627191.53046  21906685.237    21906693.086
       232.000         186.000
  23190721.349    -6397905.79349  -4955997.39645  23190721.278    23190731.395
       213.000         151.000
  20558492.482    -3764377.67449  -2914134.98547  20558492.172    20558498.886
       241.000         207.000
 03  5 12 17 51 30.0000000  0  9G17G30G 5G29G18G21G10G26G 6
  21583152.781    -3594649.06149  -2783600.36747  21583151.885    21583159.718
       235.000         196.000
  21851003.244     3555678.73949   2772491.97747  21851003.765    21851010.347
       236.000         189.000
  23699086.205     5725565.34449   4455744.64145  23699085.674    23699096.339
       213.000         150.000
  23192922.770    -4729313.14049  -3670255.28745  23192922.594    23192930.173
       212.000         156.000
  24053973.707    -5728452.84049  -4441361.94945  24053973.001    24053983.021
       207.000         143.000
  22041921.790    -4598937.16949  -3568132.59246  22041921.285    22041927.547
       233.000         184.000
  21921830.692     3449191.00149   2689206.75946  21921830.363    21921838.027
       231.000         185.000
  23174330.788    -6484038.96149  -5023114.07945  23174331.054    23174340.621
       215.000         153.000
  20551822.737    -3799427.41749  -2941446.46547  20551822.749    20551829.049
       242.000         207.000
 03  5 12 17 52  0.0000000  0  9G17G30G 5G29G18G21G10G26G 6
  21576511.608    -3629548.41749  -2810794.65647  21576511.092    21576518.585
       235.000         196.000
  21866362.536     3636392.55849   2835385.80147  21866362.732    21866369.723
       235.000         188.000
  23718867.736     5829516.75949   4536745.56745  23718867.480    23718876.762
       212.000         149.000
  23183509.813    -4778778.26249  -3708799.51245  23183510.340    23183517.770
       213.000         153.000
  24033728.373    -5834841.71549  -4524262.29245  24033727.207    24033735.451
       205.000         141.000
  22032300.384    -4649498.52849  -3607531.02746  22032299.986    22032305.384
       233.000         184.000
  21937045.830     3529147.29149   2751510.31146  21937045.100    21937052.809
       231.000         185.000
  23157977.001    -6569978.96949  -5090080.17545  23157977.406    23157985.405
       215.000         153.000
  20545215.765    -3834147.75849  -2968501.27647  20545215.563    20545222.056
       242.000         207.000
 03  5 12 17 52 30.0000000  0 10G17G30G 5G15G29G18G21G10G26G 6
  21569903.779    -3664272.86549  -2837852.64547  21569903.427    21569911.244
       235.000         196.000
  21881785.754     3717441.86649   2898541.05147  21881786.305    21881792.764
       235.000         188.000
  23738657.090     5933510.25149   4617779.28145  23738656.480    23738665.898
       210.000         148.000
  24742254.772    -3051545.53459  -2342317.16544  24742253.524    24742262.471
       204.000         126.000
  23174163.923    -4827890.60349  -3747068.82945  23174163.860    23174171.350
       215.000         151.000
  24013508.045    -5941098.92949  -4607060.02945  24013507.435    24013516.844
       207.000         139.000
  22022711.244    -4699889.73449  -3646796.85746  22022710.015    22022716.016
       232.000         185.000
  21952329.629     3609463.76649   2814094.51846  21952328.969    21952336.885
       230.000         185.000
  23141659.062    -6655729.41449  -5156898.58745  23141658.653    23141667.293
       211.000         148.000
  20538670.402    -3868544.00149  -2995303.53147  20538670.075    20538676.609
       241.000         207.000
 03  5 12 17 53  0.0000000  0 10G17G30G 5G15G29G18G21G10G26G 6
  21563329.490    -3698820.92549  -2864773.19747  21563329.038    21563336.356
       236.000         196.000
  21897272.595     3798825.53549   2961956.82247  21897273.223    21897279.647
       235.000         188.000
  23758454.354     6037544.99049   4698845.13645  23758453.635    23758463.655
       211.000         148.000
  24727420.520    -3129501.68949  -2403062.17344  24727419.734    24727429.648
       206.000         127.000
  23164886.087    -4876645.78549  -3785059.82645  23164886.213    23164894.016
       219.000         154.000
  23993313.783    -6047220.77449  -4689752.29745  23993313.265    23993320.195
       209.000         137.000
  22013154.638    -4750109.33949  -3685928.98146  22013154.280    22013159.989
       234.000         184.000
  21967681.717     3690139.17549   2876958.41146  21967680.981    21967688.866
       230.000         184.000
  23125378.264    -6741284.76149  -5223565.03045  23125378.993    23125388.229
       213.000         151.000
  20532187.288    -3902612.57349  -3021850.47447  20532187.183    20532193.574
       241.000         207.000
 03  5 12 17 53 30.0000000  0 10G17G30G 5G15G29G18G21G10G26G 6
  21556790.380    -3733184.10249  -2891549.67347  21556789.845    21556797.627
       235.000         196.000
  21912824.217     3880549.82549   3025638.02747  21912824.837    21912831.578
       235.000         188.000
  23778260.665     6141627.28349   4779948.05745  23778260.743    23778270.912
       212.000         148.000
  24712603.763    -3207363.04349  -2463733.27544  24712601.052    24712615.108
       202.000         128.000
  23155678.538    -4925031.99649  -3822763.30945  23155678.178    23155686.814
       219.000         157.000
  23973147.431    -6153196.13149  -4772330.44445  23973147.186    23973153.837
       209.000         137.000
  22003632.489    -4800148.53349  -3724920.53546  22003632.272    22003638.053
       233.000         185.000
  21983103.298     3771179.80949   2940106.90746  21983102.005    21983109.958
       229.000         184.000
  23109137.131    -6826632.72249  -5290069.83145  23109136.718    23109146.672
       214.000         155.000
  20525768.642    -3936342.61549  -3048133.62247  20525768.536    20525774.940
       241.000         207.000
 03  5 12 17 54  0.0000000  0 10G17G30G 5G15G29G18G21G10G26G 6
  21550286.078    -3767364.32349  -2918183.59347  21550285.758    21550293.053
       235.000         196.000
  21928439.982     3962610.78049   3089581.56046  21928440.007    21928446.592
       235.000         187.000
  23798075.134     6245753.42649   4861085.14545  23798074.626    23798085.428
       212.000         149.000
  24697804.946    -3285130.55049  -2524331.24544  24697802.607    24697814.477
       201.000         128.000
  23146541.410    -4973048.00949  -3860178.33545  23146540.833    23146549.534
       217.000         159.000
  23953009.022    -6259023.92849  -4854793.57245  23953008.777    23953018.654
       207.000         138.000
  21994144.467    -4850008.54649  -3763772.46446  21994143.991    21994149.434
       233.000         185.000
  21998593.693     3852581.86649   3003537.02546  21998592.491    21998601.082
       229.000         183.000
  23092935.715    -6911770.72949  -5356411.02045  23092935.603    23092944.645
       212.000         151.000
  20519414.675    -3969733.34949  -3074152.37247  20519414.645    20519420.889
       242.000         207.000
 03  5 12 17 54 30.0000000  0 10G17G30G 5G15G29G18G21G10G26G 6
  21543816.421    -3801362.82149  -2944675.90647  21543815.817    21543823.807
       236.000         196.000
  21944118.963     4045004.19049   3153784.15546  21944119.812    21944126.236
       234.000         186.000
  23817897.450     6349919.55649   4942253.38445  23817897.263    23817908.113
       211.000         150.000
  24683023.781    -3362805.65849  -2584857.24144  24683024.278    24683035.819
       195.000         126.000
  23137474.891    -5020692.42049  -3897303.81345  23137474.390    23137482.539
       217.000         161.000
  23932898.746    -6364703.25949  -4937141.00645  23932897.080    23932907.168
       209.000         141.000
  21984690.126    -4899690.99649  -3802486.02046  21984689.016    21984695.321
       234.000         185.000
  22014151.927     3934341.28349   3067245.62446  22014151.480    22014159.067
       228.000         183.000
  23076774.848    -6996696.37449  -5422586.78545  23076774.841    23076782.755
       216.000         150.000
  20513125.349    -4002784.27149  -3099906.32847  20513125.179    20513131.216
       242.000         208.000
 03  5 12 17 55  0.0000000  0 10G17G30G 5G15G29G18G21G10G26G 6
  21537380.828    -3835181.68649  -2971028.24547  21537380.322    21537388.001
       235.000         196.000
  21959860.425     4127726.17549   3218242.77846  21959860.235    21959867.865
       233.000         186.000
  23837726.632     6454121.91249   5023449.85445  23837726.585    23837737.907
       212.000         151.000
  24668259.752    -3440389.28449  -2645311.89744  24668257.880    24668270.573
       198.000         126.000
  23128479.432    -5067963.76749  -3934138.59245  23128479.537    23128488.421
       215.000         160.000
  23912816.900    -6470233.09649  -5019371.95345  23912816.801    23912825.755
       211.000         144.000
  21975269.411    -4949197.28749  -3841062.32646  21975268.608    21975274.794
       235.000         185.000
  22029777.548     4016454.18649   3131229.64746  22029777.412    22029784.853
       229.000         182.000
  23060654.896    -7081407.25749  -5488595.17045  23060655.241    23060664.649
       215.000         154.000
  20506900.705    -4035494.78349  -3125395.03147  20506900.378    20506906.847
       243.000         207.000
 03  5 12 17 55 30.0000000  0 10G17G30G 5G15G29G18G21G10G26G 6
  21530979.329    -3868821.78149  -2997241.29047  21530978.973    21530986.407
       236.000         197.000
  21975663.651     4210772.81449   3282954.36746  21975663.914    21975671.270
       234.000         186.000
  23857561.990     6558356.90449   5104671.73545  23857561.754    23857572.839
       212.000         151.000
  24653513.620    -3517882.43449  -2705696.08044  24653513.877    24653524.293
       201.000         130.000
  23119555.211    -5114860.65649  -3970681.59145  23119554.625    23119563.155
       213.000         159.000
  23892763.919    -6575612.32249  -5101485.53745  23892763.684    23892772.856
       212.000         145.000
  21965882.065    -4998528.48649  -3879502.19546  21965881.537    21965887.277
       234.000         186.000
  22045469.879     4098916.80949   3195486.18346  22045469.359    22045477.173
       229.000         182.000
  23044576.242    -7165900.66949  -5554434.08445  23044575.902    23044585.957
       215.000         156.000
  20500740.977    -4067863.94649  -3150617.75547  20500740.573    20500747.234
       243.000         207.000
 03  5 12 17 56  0.0000000  0 10G17G30G 5G15G29G18G21G10G26G 6
  21524611.665    -3902284.42449  -3023316.04847  21524610.752    21524618.589
       235.000         197.000
  21991528.016     4294140.28849   3347915.96646  21991528.691    21991535.246
       233.000         186.000
  23877402.906     6662620.86649   5185916.20345  23877402.168    23877413.317
       212.000         150.000
  24638784.377    -3595285.70849  -2766010.21144  24638783.215    24638795.409
       202.000         131.000
  23110702.557    -5161381.29849  -4006931.40345  23110703.013    23110711.195
       217.000         159.000
  23872739.853    -6680839.32949  -5183480.49645  23872739.376    23872748.068
       213.000         145.000
  21956527.710    -5047685.56949  -3917806.37646  21956526.933    21956533.267
       234.000         186.000
  22061227.917     4181725.55349   3260012.43746  22061226.990    22061235.394
       228.000         183.000
  23028539.573    -7250174.05749  -5620101.58745  23028539.014    23028548.646
       212.000         154.000
  20494646.479    -4099890.71749  -3175573.67247  20494646.541    20494652.876
       243.000         208.000
 03  5 12 17 56 30.0000000  0 10G17G30G 5G15G29G18G21G10G26G 6
  21518277.858    -3935568.56449  -3049251.72547  21518277.187    21518284.741
       236.000         197.000
  22007453.264     4377827.91349   3413127.02946  22007454.296    22007460.263
       233.000         185.000
  23897249.062     6766913.26449   5267182.82145  23897249.598    23897260.075
       212.000         150.000
  24624072.644    -3672597.29149  -2826252.90045  24624071.410    24624082.083
       202.000         133.000
  23101922.497    -5207521.25449  -4042884.55745  23101922.002    23101929.941
       218.000         160.000
  23852745.566    -6785910.26549  -5265353.86045  23852743.849    23852754.305
       211.000         145.000
  21947206.883    -5096666.74149  -3955973.49746  21947206.205    21947212.594
       236.000         186.000
  22077051.420     4264879.31649   3324807.53046  22077050.726    22077058.775
       229.000         183.000
  23012545.668    -7334221.83049  -5685593.26345  23012546.316    23012554.169
       216.000         152.000
  20488617.913    -4131571.47749  -3200259.97447  20488617.865    20488624.134
       243.000         208.000
 03  5 12 17 57  0.0000000  0 10G17G30G 5G15G29G18G21G10G26G 6
  21511977.803    -3968675.58249  -3075049.39247  21511977.168    21511984.816
       235.000         197.000
  22023438.644     4461831.24649   3478584.09546  22023438.930    22023446.261
       232.000         185.000
  23917099.919     6871230.02249   5348468.42745  23917100.146    23917110.300
       211.000         148.000
  24609377.690    -3749818.86649  -2886425.42045  24609376.004    24609387.318
       202.000         133.000
  23093214.846    -5253279.56149  -4078540.29245  23093214.860    23093223.581
       220.000         160.000
  23832781.085    -6890824.45549  -5347105.07845  23832780.280    23832788.841
       212.000         147.000
  21937919.276    -5145473.78749  -3994004.93646  21937918.515    21937924.669
       233.000         186.000
  22092939.947     4348374.00249   3389868.28846  22092939.246    22092947.168
       230.000         183.000
  22996595.331    -7418041.82449  -5750907.42145  22996594.869    22996605.239
       215.000         155.000
  20482655.227    -4162905.74649  -3224676.27947  20482654.993    20482661.467
       243.000         208.000
 03  5 12 17 57 30.0000000  0 10G17G30G 5G15G29G18G21G10G26G 6
  21505711.728    -4001603.82149  -3100707.73947  21505710.816    21505718.595
       235.000         197.000
  22039483.966     4546149.63349   3544286.65746  22039484.752    22039491.197
       233.000         184.000
  23936955.523     6975570.68749   5429772.67545  23936956.240    23936965.554
       209.000         146.000
  24594700.218    -3826947.77249  -2946525.76445  24594698.914    24594711.210
       206.000         135.000
  23084580.881    -5298651.31749  -4113894.80645  23084580.537    23084588.776
       221.000         160.000
  23812847.029    -6995577.36749  -5428730.61945  23812846.599    23812855.971
       213.000         148.000
  21928664.952    -5194104.62449  -4031899.06346  21928664.072    21928670.429
       235.000         186.000
  22108893.375     4432209.17849   3455194.35446  22108892.582    22108900.312
       229.000         183.000
  22980689.165    -7501628.20449  -5816039.58545  22980688.810    22980699.413
       212.000         155.000
  20476759.203    -4193889.44549  -3248819.41847  20476758.735    20476765.348
       243.000         208.000
 03  5 12 17 58  0.0000000  0 10G17G30G 5G15G29G18G21G10G26G 6
  21499478.952    -4034356.95149  -3126229.64247  21499478.341    21499486.207
       236.000         197.000
  22055588.187     4630777.22449   3610230.16546  22055587.984    22055595.292
       233.000         184.000
  23956814.467     7079929.61349   5511091.13745  23956814.942    23956824.628
       210.000         144.000
  24580040.362    -3903987.12649  -3006556.33845  24580039.872    24580050.631
       204.000         136.000
  23076020.321    -5343637.15749  -4148948.61445  23076020.114    23076027.699
       221.000         161.000
  23792943.658    -7100169.85549  -5510231.16945  23792942.868    23792952.530
       214.000         149.000
  21919443.765    -5242562.69749  -4069658.57246  21919443.535    21919449.159
       235.000         187.000
  22124910.471     4516378.77049   3520781.00746  22124909.864    22124917.296
       230.000         183.000
  22964827.604    -7584980.40749  -5880989.31645  22964826.881    22964836.389
       214.000         155.000
  20470929.650    -4224523.78249  -3272690.31747  20470929.360    20470935.855
       243.000         207.000
 03  5 12 17 58 30.0000000  0 10G17G30G 5G15G29G18G21G10G26G 6
  21493279.667    -4066934.60549  -3151614.80647  21493279.053    21493286.544
       236.000         197.000
  22071750.629     4715711.41149   3676412.55746  22071751.295    22071757.554
       232.000         183.000
  23976676.578     7184304.60549   5592422.12145  23976677.212    23976686.438
       208.000         142.000
  24565397.172    -3980936.66949  -3066516.89145  24565395.940    24565407.016
       205.000         135.000
  23067533.824    -5388234.23849  -4183699.49445  23067532.270    23067542.456
       219.000         161.000
  23773071.292    -7204599.70149  -5591604.96745  23773069.836    23773079.768
       215.000         151.000
  21910255.248    -5290847.87449  -4107283.35346  21910254.446    21910260.346
       234.000         186.000
  22140990.736     4600880.66049   3586626.59146  22140989.772    22140998.171
       229.000         183.000
  22949011.467    -7668094.50849  -5945753.43045  22949011.420    22949019.771
       216.000         155.000
  20465167.001    -4254806.67049  -3296287.36647  20465166.900    20465173.063
       243.000         208.000
 03  5 12 17 59  0.0000000  0 10G17G30G 5G15G29G18G21G10G26G 6
  21487113.943    -4099336.02549  -3176862.65447  21487112.951    21487121.090
       236.000         197.000
  22087971.232     4800950.63049   3742832.64846  22087971.925    22087979.272
       233.000         184.000
  23996541.471     7288694.60549   5673764.80445  23996540.441    23996551.180
       206.000         139.000
  24550771.252    -4057795.10549  -3126406.48345  24550770.235    24550780.627
       205.000         136.000
  23059121.963    -5432438.94349  -4218144.63945  23059121.742    23059129.922
       217.000         162.000
  23753230.565    -7308863.39949  -5672849.30445  23753230.621    23753238.808
       214.000         151.000
  21901100.121    -5338958.76549  -4144772.34046  21901099.564    21901105.725
       235.000         187.000
  22157133.760     4685713.15849   3652729.79346  22157132.786    22157140.921
       228.000         182.000
  22933241.666    -7750965.63549  -6010328.22545  22933241.677    22933249.963
       215.000         156.000
  20459471.791    -4284735.08149  -3319608.19947  20459471.802    20459478.255
       243.000         208.000
 03  5 12 17 59 30.0000000  0 10G17G30G 5G15G29G18G21G10G26G 6
  21480981.611    -4131561.51449  -3201973.40947  21480980.876    21480988.518
       236.000         197.000
  22104249.262     4886491.98849   3809488.17446  22104249.636    22104256.688
       231.000         184.000
  24016408.786     7393096.83849   5755117.00345  24016409.726    24016419.020
       206.000         138.000
  24536162.668    -4134562.09849  -3186224.81545  24536160.779    24536173.699
       206.000         137.000
  23050785.110    -5476248.66049  -4252282.01646  23050784.754    23050793.735
       217.000         163.000
  23733421.800    -7412958.73149  -5753962.43845  23733420.815    23733428.738
       214.000         152.000
  21891978.091    -5386895.53049  -4182125.62746  21891977.150    21891983.676
       234.000         187.000
  22173339.152     4770873.51949   3719088.47946  22173338.517    22173346.095
       228.000         182.000
  22917518.526    -7833590.02849  -6074710.82045  22917518.042    22917528.616
       214.000         156.000
  20453844.455    -4314306.98749  -3342651.22947  20453844.368    20453850.753
       243.000         208.000
 03  5 12 18  0  0.0000000  0 10G17G30G 5G15G29G18G21G10G26G 6
  21474882.414    -4163613.00149  -3226948.57547  21474881.899    21474889.476
       236.000         197.000
  22120584.022     4972331.59949   3876376.10046  22120584.818    22120591.552
       231.000         183.000
  24036277.667     7497507.51149   5836475.78745  24036277.361    24036288.451
       207.000         136.000
  24521571.403    -4211238.78549  -3245972.77245  24521570.660    24521581.977
       206.000         138.000
  23042523.771    -5519662.09149  -4286110.58146  23042523.943    23042530.757
       218.000         165.000
  23713645.335    -7516884.54049  -5834943.47945  23713645.245    23713653.070
       213.000         152.000
  21882888.807    -5434659.50049  -4219344.27346  21882888.551    21882893.945
       234.000         187.000
  22189606.390     4856357.75649   3785699.53146  22189606.065    22189613.751
       228.000         181.000
  22901843.127    -7915965.23749  -6138899.23345  22901843.694    22901852.151
       217.000         158.000
  20448285.093    -4343521.67449  -3365415.91147  20448284.777    20448291.279
       243.000         208.000
 03  5 12 18  0 30.0000000  0 10G17G30G 5G15G29G18G21G10G26G 6
  21468816.248    -4195491.17049  -3251788.69647  21468815.149    21468823.008
       236.000         197.000
  22136974.967     5058465.85149   3943493.62746  22136975.851    22136982.298
       231.000         182.000
  24056147.375     7601923.36049   5917838.61445  24056146.406    24056156.932
       205.000         136.000
  24506997.484    -4287825.97749  -3305650.99245  24506995.950    24507007.153
       206.000         137.000
  23034338.210    -5562677.42349  -4319628.93646  23034338.799    23034346.998
       222.000         167.000
  23693901.360    -7620639.41649  -5915791.32645  23693900.224    23693909.001
       214.000         152.000
  21873832.324    -5482251.34949  -4256428.80746  21873832.181    21873837.985
       235.000         187.000
  22205934.570     4942162.43049   3852560.27446  22205934.382    22205941.520
       226.000         180.000
  22886215.555    -7998088.42749  -6202891.20745  22886215.033    22886224.508
       218.000         158.000
  20442793.876    -4372378.03549  -3387901.37847  20442793.598    20442799.975
       243.000         208.000
 03  5 12 18  1  0.0000000  0 10G17G30G 5G15G29G18G21G10G26G 6
  21462783.268    -4227194.40949  -3276492.50647  21462782.605    21462789.813
       236.000         197.000
  22153421.588     5144892.99749   4010839.37946  22153421.535    22153428.801
       231.000         182.000
  24076017.918     7706343.25849   5999204.57945  24076016.980    24076028.080
       207.000         137.000
  24492440.408    -4364322.57249  -3365258.62645  24492437.668    24492451.301
       202.000         135.000
  23026229.050    -5605291.18549  -4352834.35146  23026228.664    23026235.841
       221.000         167.000
  23674190.532    -7724220.01849  -5996503.36345  23674189.979    23674198.395
       214.000         151.000
  21864808.817    -5529670.44949  -4293378.73247  21864808.548    21864814.212
       236.000         188.000
  22222323.425     5028286.14649   3919669.61846  22222322.836    22222330.054
       226.000         179.000
  22870636.896    -8079954.58549  -6266682.93245  22870636.138    22870646.295
       215.000         156.000
  20437371.528    -4400872.97749  -3410105.22147  20437371.402    20437377.677
       243.000         208.000
 03  5 12 18  1 30.0000000  0 10G17G30G 5G15G29G18G21G10G26G 6
  21456783.446    -4258723.66449  -3301060.74147  21456783.098    21456790.389
       237.000         197.000
  22169923.450     5231610.49049   4078411.37746  22169924.361    22169931.259
       231.000         182.000
  24095888.948     7810764.81349   6080571.82845  24095889.713    24095899.167
       207.000         139.000
  24477900.533    -4440728.08849  -3424795.28545  24477899.773    24477911.840
       208.000         135.000
  23018196.791    -5647500.61049  -4385724.69946  23018196.294    23018205.099
       221.000         166.000
  23654513.365    -7827624.10649  -6077077.87145  23654513.431    23654522.101
       216.000         151.000
  21855818.208    -5576916.48549  -4330193.79346  21855817.263    21855823.490
       235.000         187.000
  22238772.417     5114726.41549   3987025.63346  22238771.909    22238779.719
       225.000         178.000
  22855107.753    -8161559.86649  -6330271.42245  22855107.578    22855117.100
       215.000         157.000
  20432018.340    -4429004.41149  -3432025.81147  20432018.128    20432024.414
       244.000         208.000
 03  5 12 18  2  0.0000000  0 10G17G30G 5G15G29G18G21G10G26G 6
  21450816.561    -4290079.88949  -3325494.15147  21450815.879    21450823.565
       236.000         197.000
  22186479.934     5318614.76149   4146206.83446  22186480.429    22186487.287
       230.000         182.000
  24115759.668     7915184.77749   6161937.82445  24115758.518    24115770.810
       208.000         141.000
  24463378.832    -4517043.13949  -3484261.48545  24463378.695    24463388.714
       210.000         136.000
  23010241.833    -5689303.89649  -4418298.58946  23010241.182    23010249.777
       219.000         163.000
  23634869.978    -7930850.28249  -6157513.74045  23634869.111    23634876.447
       214.000         150.000
  21846860.416    -5623989.70749  -4366874.20647  21846860.123    21846865.042
       236.000         188.000
  22255280.975     5201479.85349   4054625.67746  22255279.740    22255288.092
       225.000         178.000
  22839629.024    -8242901.45149  -6393654.38545  22839629.174    22839638.325
       218.000         160.000
  20426734.500    -4456771.33849  -3453662.36747  20426734.256    20426740.531
       243.000         208.000
 03  5 12 18  2 30.0000000  0 10G17G30G 5G15G29G18G21G10G26G 6
  21444882.262    -4321264.69549  -3349793.98347  21444881.517    21444888.837
       236.000         198.000
  22203090.104     5405901.77049   4214222.61146  22203090.370    22203097.644
       230.000         181.000
  24135629.411     8019599.66549   6243299.87245  24135629.272    24135640.635
       208.000         143.000
  24448873.819    -4593268.70449  -3543657.93945  24448872.548    24448881.348
       204.000         135.000
  23002364.372    -5730699.73049  -4450554.96845  23002364.135    23002373.114
       218.000         162.000
  23615260.747    -8033897.12349  -6237809.85845  23615259.746    23615267.351
       213.000         150.000
  21837935.174    -5670893.03449  -4403422.21947  21837934.403    21837939.912
       234.000         188.000
  22271848.420     5288542.36049   4122466.55446  22271847.921    22271856.209
       227.000         178.000
  22824200.780    -8323976.84249  -6456829.91945  22824199.605    22824210.539
       215.000         159.000
  20421520.141    -4484173.06749  -3475014.35047  20421519.726    20421526.231
       243.000         208.000
 03  5 12 18  3  0.0000000  0 10G17G30G 5G15G29G18G21G10G26G 6
  21438980.646    -4352277.97049  -3373960.15747  21438980.343    21438987.812
       237.000         198.000
  22219753.664     5493469.04949   4282456.76946  22219754.424    22219761.312
       231.000         182.000
  24155497.755     8124007.42449   6324656.36445  24155497.477    24155507.917
       209.000         145.000
  24434385.260    -4669404.35149  -3602984.30945  24434384.088    24434394.501
       206.000         134.000
  22994564.880    -5771685.53149  -4482491.85845  22994564.554    22994572.711
       216.000         160.000
  23595686.009    -8136762.26449  -6317964.37845  23595685.187    23595694.705
       214.000         150.000
  21829042.162    -5717625.25249  -4439836.90647  21829041.329    21829048.034
       234.000         188.000
  22288474.459     5375911.61549   4190546.44946  22288473.781    22288481.533
       227.000         178.000
  22808823.993    -8404781.83949  -6519794.78545  22808824.180    22808832.782
       216.000         157.000
  20416375.666    -4511207.35549  -3496080.02447  20416375.287    20416381.516
       243.000         208.000
 03  5 12 18  3 30.0000000  0 10G17G30G 5G15G29G18G21G10G26G 6
  21433111.970    -4383118.29849  -3397991.56947  21433111.066    21433118.728
       236.000         198.000
  22236470.426     5581315.53849   4350908.50646  22236470.312    22236477.384
       229.000         181.000
  24175364.393     8228407.40149   6406006.78345  24175363.464    24175376.134
       209.000         146.000
  24419914.833    -4745448.14349  -3662239.11745  24419914.365    24419924.512
       206.000         135.000
  22986844.383    -5812256.97049  -4514105.89346  22986844.059    22986851.375
       218.000         163.000
  23576146.735    -8239441.74749  -6397974.22345  23576146.573    23576155.323
       216.000         152.000
  21820182.134    -5764184.36449  -4476116.70247  21820181.772    21820187.561
       235.000         188.000
  22305158.567     5463586.72349   4258864.67746  22305157.501    22305165.670
       226.000         178.000
  22793499.886    -8485311.08549  -6582544.76145  22793499.988    22793508.393
       217.000         158.000
  20411301.798    -4537870.63649  -3516856.59647  20411301.510    20411307.797
       243.000         208.000
 03  5 12 18  4  0.0000000  0 10G17G30G 5G15G29G18G21G10G26G 6
  21427275.605    -4413788.10849  -3421890.11047  21427274.946    21427282.293
       236.000         198.000
  22253239.186     5669435.84049   4419573.60046  22253239.293    22253246.801
       230.000         180.000
  24195228.629     8332794.41249   6487347.10145  24195228.972    24195239.954
       209.000         147.000
  24405461.357    -4821402.48949  -3721424.21345  24405459.182    24405471.379
       203.000         135.000
  22979202.564    -5852414.29749  -4545397.24046  22979202.499    22979211.216
       219.000         165.000
  23556642.699    -8341935.78349  -6477839.57145  23556642.855    23556650.296
       218.000         153.000
  21811354.749    -5810573.13149  -4512263.76547  21811354.234    21811360.033
       235.000         188.000
  22321899.788     5551562.66249   4327417.32346  22321899.021    22321906.915
       227.000         178.000
  22778228.284    -8565563.55149  -6645079.03945  22778228.171    22778236.973
       217.000         160.000
  20406298.414    -4564163.46849  -3537344.50347  20406298.334    20406304.480
       243.000         208.000
 03  5 12 18  4 30.0000000  0 10G17G30G 5G15G29G18G21G10G26G 6
  21421471.751    -4444287.89749  -3445656.16047  21421471.054    21421478.866
       236.000         198.000
  22270059.627     5757827.61649   4488450.22946  22270059.928    22270067.410
       229.000         181.000
  24215090.087     8437166.58749   6568675.83845  24215090.432    24215101.370
       209.000         147.000
  24391024.348    -4897267.03749  -3780539.34245  24391023.246    24391035.817
       204.000         135.000
  22971640.192    -5892154.60849  -4576363.63546  22971639.605    22971647.795
       221.000         168.000
  23537174.400    -8444242.03549  -6557558.59645  23537173.884    23537181.326
       217.000         154.000
  21802559.782    -5856791.15049  -4548277.77847  21802559.042    21802564.763
       233.000         188.000
  22338697.777     5639836.95849   4396202.44746  22338697.112    22338704.816
       225.000         178.000
  22763010.172    -8645534.90349  -6707394.30845  22763008.637    22763018.766
       213.000         158.000
  20401366.049    -4590083.61449  -3557542.00447  20401365.908    20401372.156
       242.000         208.000
 03  5 12 18  5  0.0000000  0 10G17G30G 5G15G29G18G21G10G26G 6
  21415700.303    -4474617.02149  -3469289.22947  21415699.390    21415707.276
       236.000         198.000
  22286931.335     5846488.65949   4557536.67246  22286931.918    22286938.946
       231.000         181.000
  24234948.574     8541522.32049   6649991.78145  24234948.684    24234960.767
       209.000         147.000
  24376604.589    -4973040.84349  -3839583.76145  24376603.049    24376614.085
       204.000         135.000
  22964157.865    -5931474.79849  -4607002.65646  22964157.475    22964166.228
       222.000         170.000
  23517742.367    -8546357.56349  -6637128.98645  23517741.816    23517750.823
       217.000         153.000
  21793797.284    -5902837.88449  -4584158.32347  21793796.679    21793802.729
       234.000         188.000
  22355552.400     5728407.73749   4465218.59246  22355551.654    22355560.023
       227.000         178.000
  22747846.209    -8725220.75849  -6769487.10745  22747846.394    22747854.615
       217.000         157.000
  20396505.057    -4615628.43449  -3577447.04447  20396504.594    20396511.195
       241.000         208.000
 03  5 12 18  5 30.0000000  0 10G17G30G 5G15G29G18G21G10G26G 6
  21409961.115    -4504776.25749  -3492789.92447  21409960.433    21409968.033
       237.000         198.000
  22303853.480     5935415.09449   4626829.92346  22303853.763    22303860.895
       229.000         180.000
  24254803.370     8645858.09049   6731292.16845  24254803.549    24254814.159
       207.000         146.000
  24362202.308    -5048724.96349  -3898558.30845  24362201.169    24362212.307
       206.000         135.000
  22956755.578    -5970373.69749  -4637313.41146  22956755.629    22956762.944
       222.000         169.000
  23498346.926    -8648280.99749  -6716549.72845  23498346.293    23498353.673
       219.000         154.000
  21785067.320    -5948714.63349  -4619906.41447  21785066.782    21785072.012
       236.000         189.000
  22372462.623     5817271.28449   4534462.87146  22372462.167    22372469.538
       226.000         178.000
  22732737.348    -8804618.69549  -6831355.52045  22732737.723    22732746.035
       219.000         160.000
  20391715.555    -4640797.08049  -3597058.96947  20391715.289    20391721.564
       241.000         208.000
 03  5 12 18  6  0.0000000  0 10G17G30G 5G15G29G18G21G10G26G 6
  21404254.297    -4534766.26949  -3516158.73947  21404253.704    21404261.274
       237.000         198.000
  22320825.587     6024604.06549   4696327.76046  22320826.603    22320833.238
       229.000         179.000
  24274653.690     8750171.25549   6812574.91345  24274654.876    24274665.820
       209.000         144.000
  24347817.210    -5124319.56949  -3957463.09745  24347816.108    24347826.428
       208.000         136.000
  22949433.982    -6008848.70749  -4667293.85946  22949433.228    22949441.389
       220.000         168.000
  23478988.474    -8750010.24149  -6795819.15945  23478988.125    23478995.458
       219.000         154.000
  21776369.623    -5994421.29949  -4655521.96847  21776368.694    21776374.874
       235.000         188.000
  22389427.963     5906424.78149   4603933.09646  22389427.212    22389435.004
       226.000         178.000
  22717683.906    -8883725.01049  -6892996.68045  22717682.686    22717693.392
       214.000         160.000
  20386997.994    -4665587.86349  -3616376.44647  20386997.635    20387004.133
       241.000         208.000
 03  5 12 18  6 30.0000000  0 10G17G30G 5G15G29G18G21G10G26G 6
  21398579.524    -4564587.44649  -3539396.01047  21398578.632    21398586.434
       236.000         198.000
  22337847.152     6114052.78349   4766027.97546  22337847.920    22337855.228
       230.000         179.000
  24294499.385     8854459.59149   6893838.33545  24294498.798    24294510.279
       207.000         143.000
  24333449.163    -5199824.42649  -4016297.95445  24333447.115    24333457.845
       203.000         137.000
  22942193.344    -6046897.68149  -4696942.33746  22942192.970    22942200.618
       217.000         165.000
  23459667.366    -8851542.93749  -6874935.41545  23459665.721    23459673.872
       218.000         154.000
  21767704.156    -6039957.96249  -4691005.05847  21767703.792    21767709.655
       235.000         189.000
  22406448.097     5995865.66849   4673627.23746  22406447.539    22406455.710
       227.000         177.000
  22702686.411    -8962535.91749  -6954407.68945  22702685.208    22702694.842
       214.000         158.000
  20382352.714    -4689998.86149  -3635397.99647  20382352.501    20382358.932
       241.000         208.000
 03  5 12 18  7  0.0000000  0 10G17G30G 5G15G29G18G21G10G26G 6
  21392936.799    -4594239.51349  -3562501.50347  21392936.358    21392943.713
       236.000         198.000
  22354917.721     6203758.76949   4835928.65046  22354918.642    22354926.164
       230.000         179.000
  24314339.855     8958720.88449   6975080.68745  24314338.883    24314350.905
       205.000         141.000
  24319097.920    -5275239.08749  -4075062.50745  24319096.890    24319107.140
       200.000         136.000
  22935034.422    -6084517.68649  -4726256.56545  22935033.087    22935042.618
       214.000         161.000
  23440383.952    -8952877.02749  -6953896.91945  23440383.730    23440392.033
       217.000         153.000
  21759071.296    -6085324.61349  -4726355.67047  21759070.549    21759076.220
       235.000         189.000
  22423522.473     6085591.79649   4743543.67146  22423521.979    22423529.474
       227.000         177.000
  22687746.043    -9041047.33349  -7015585.32345  22687746.940    22687754.526
       219.000         160.000
  20377780.139    -4714027.99849  -3654121.98447  20377779.797    20377786.196
       241.000         208.000
 03  5 12 18  7 30.0000000  0 10G17G30G 5G15G29G18G21G10G26G 6
  21387326.284    -4623723.29149  -3585475.85547  21387325.713    21387332.886
       236.000         198.000
  22372036.653     6293718.54049   4906027.09646  22372037.661    22372044.205
       230.000         179.000
  24334174.524     9062952.20649   7056299.65745  24334174.142    24334186.194
       205.000         140.000
  24304764.178    -5350563.79849  -4133756.96345  24304764.052    24304773.741
       209.000         137.000
  22927957.445    -6121707.26049  -4755235.38945  22927957.056    22927965.471
       216.000         160.000
  23421138.705    -9054010.48849  -7032702.07845  23421137.294    23421145.591
       217.000         155.000
  21750470.469    -6130521.75949  -4761574.20447  21750469.383    21750475.668
       234.000         189.000
  22440650.369     6175599.57349   4813679.56846  22440648.732    22440657.093
       227.000         176.000
  22672863.519    -9119256.26549  -7076527.20145  22672863.533    22672871.338
       219.000         161.000
  20373280.494    -4737673.90849  -3672547.35447  20373280.272    20373286.234
       241.000         208.000
 03  5 12 18  8  0.0000000  0 10G17G30G 5G15G29G18G21G10G26G 6
  21381747.505    -4653039.87749  -3608319.93247  21381746.755    21381754.385
       237.000         198.000
  22389203.139     6383928.50149   4976320.49646  22389203.387    22389210.447
       229.000         179.000
  24354002.829     9167150.44649   7137492.86645  24354003.075    24354014.676
       203.000         137.000
  24290447.722    -5425799.13049  -4192381.80945  24290446.264    24290456.344
       208.000         138.000
  22920962.763    -6158464.76649  -4783877.54245  22920962.118    22920969.156
       216.000         160.000
  23401931.935    -9154942.00549  -7111349.88945  23401931.060    23401939.887
       217.000         156.000
  21741901.766    -6175550.13749  -4796661.22347  21741901.195    21741906.841
       235.000         189.000
  22457831.196     6265885.69349   4884032.35346  22457830.078    22457839.057
       226.000         176.000
  22658039.057    -9197159.74749  -7137231.07445  22658037.597    22658046.698
       215.000         159.000
  20368853.950    -4760935.55849  -3690673.30047  20368853.596    20368859.879
       242.000         208.000
 03  5 12 18  8 30.0000000  0 10G17G30G 5G15G29G18G21G10G26G 6
  21376200.621    -4682188.99449  -3631033.52047  21376200.205    21376207.439
       237.000         199.000
  22406416.615     6474386.02149   5046806.78646  22406416.780    22406424.798
       227.000         178.000
  24373824.463     9271313.56549   7218658.69445  24373822.534    24373836.366
       201.000         133.000
  24276147.699    -5500944.89349  -4250936.83545  24276145.834    24276157.682
       205.000         138.000
  22914050.673    -6194787.72249  -4812181.07245  22914050.163    22914057.654
       220.000         162.000
  23382764.023    -9255669.35949  -7189838.60045  23382763.020    23382771.501
       217.000         157.000
  21733365.325    -6220409.57649  -4831616.61347  21733364.905    21733370.465
       235.000         190.000
  22475064.575     6356448.07349   4954600.40046  22475063.767    22475071.850
       225.000         175.000
  22643273.083    -9274753.91349  -7197693.99645  22643273.058    22643281.745
       216.000         158.000
  20364500.930    -4783810.92649  -3708498.25047  20364500.640    20364507.177
       241.000         208.000
 03  5 12 18  9  0.0000000  0 10G17G30G 5G15G29G18G21G10G26G 6
  21370685.569    -4711170.81149  -3653616.73647  21370684.833    21370692.149
       236.000         198.000
  22423676.724     6565088.86949   5117484.25246  22423676.702    22423684.468
       227.000         177.000
  24393638.925     9375439.63649   7299795.64544  24393641.393    24393649.355
       202.000         131.000
  24261864.615    -5576000.36149  -4309421.51845  24261863.511    24261874.284
       203.000         138.000
  22907221.922    -6230673.32149  -4840143.81746  22907221.131    22907229.063
       219.000         165.000
  23363635.614    -9356189.84849  -7268166.13245  23363634.612    23363643.284
       219.000         158.000
  21724861.119    -6265099.52849  -4866439.93047  21724860.722    21724866.029
       235.000         189.000
  22492350.259     6447284.37549   5025381.89846  22492349.950    22492357.316
       225.000         175.000
  22628567.072    -9352034.62149  -7257912.60445  22628568.118    22628575.913
       222.000         162.000
  20360221.774    -4806297.67249  -3726020.38047  20360221.492    20360227.920
       241.000         208.000
 03  5 12 18  9 30.0000000  0 11G17G30G 5G15G29G18G23G21G10G26G 6
  21365201.448    -4739989.65349  -3676072.96447  21365200.819    21365208.575
       236.000         199.000
  22440982.278     6656029.82849   5188347.25346  22440982.761    22440990.984
       227.000         177.000
  24413445.451     9479522.08549   7380898.62144  24413446.103    24413457.470
       202.000         129.000
  24247598.191    -5650969.61149  -4367839.01845  24247597.318    24247608.897
       204.000         137.000
  22900475.752    -6266123.55849  -4867767.30046  22900475.980    22900483.284
       222.000         167.000
  23344546.264    -9456505.42249  -7346333.99345  23344545.927    23344553.425
       219.000         159.000
  24508272.366    -2403764.28759  -1851562.52845  24508272.406    24508284.215
       203.000         133.000
  21716388.237    -6309624.46649  -4901134.66547  21716387.688    21716393.859
       235.000         189.000
  22509686.834     6538387.61449   5096371.39546  22509685.719    22509694.172
       223.000         174.000
  22613920.696    -9429002.50649  -7317887.43146  22613920.169    22613928.419
       220.000         163.000
  20356016.192    -4828398.14949  -3743241.52047  20356015.943    20356022.226
       242.000         208.000
 03  5 12 18 10  0.0000000  0 11G17G30G 5G15G29G18G23G21G10G26G 6
  21359749.119    -4768642.05249  -3698399.49747  21359748.614    21359756.268
       236.000         199.000
  22458333.423     6747210.06349   5259396.71046  22458333.699    22458341.216
       226.000         177.000
  24433244.083     9583562.44949   7461968.80844  24433244.337    24433256.806
       203.000         127.000
  24233348.824    -5725848.86749  -4426186.36745  24233347.882    24233358.984
       206.000         138.000
  22893813.807    -6301132.32649  -4895046.80046  22893814.172    22893821.520
       222.000         168.000
  23325496.920    -9556610.21149  -7424337.61545  23325495.975    23325503.942
       217.000         158.000
  24488675.167    -2506749.19249  -1931810.44545  24488674.164    24488685.072
       200.000         134.000
  21707947.581    -6353980.71049  -4935697.94447  21707947.001    21707953.031
       235.000         190.000
  22527074.219     6629758.91049   5167569.76846  22527073.502    22527081.534
       223.000         173.000
  22599334.987    -9505649.85649  -7377612.50645  22599333.497    22599343.247
       213.000         157.000
  20351885.206    -4850106.72649  -3760157.28147  20351885.073    20351891.268
       241.000         208.000
 03  5 12 18 10 30.0000000  0 11G17G30G 5G15G29G18G23G21G10G26G 6
  21354328.559    -4797127.51849  -3720595.95347  21354327.527    21354335.014
       236.000         199.000
  22475729.589     6838627.11549   5330630.68146  22475729.816    22475737.876
       226.000         177.000
  24453034.076     9687558.89549   7543004.78044  24453032.498    24453044.879
       203.000         126.000
  24219117.179    -5800637.56949  -4484463.17745  24219117.424    24219127.101
       208.000         140.000
  22887236.538    -6335696.69849  -4921980.02946  22887236.996    22887244.179
       221.000         169.000
  23306488.175    -9656501.32249  -7502174.73845  23306486.885    23306495.206
       219.000         157.000
  24469106.219    -2609584.54549  -2011941.80845  24469105.091    24469116.545
       199.000         133.000
  21699539.067    -6398167.60149  -4970129.26747  21699538.242    21699543.875
       235.000         190.000
  22544512.103     6721396.29049   5238975.47746  22544511.410    22544519.992
       224.000         172.000
  22584810.870    -9581972.46949  -7437084.57645  22584811.161    22584819.378
       218.000         157.000
  20347829.225    -4871421.09049  -3776765.86947  20347829.211    20347835.172
       241.000         208.000
 03  5 12 18 11  0.0000000  0 11G17G30G 5G15G29G18G23G21G10G26G 6
  21348939.469    -4825446.87049  -3742662.97247  21348938.937    21348946.079
       236.000         199.000
  22493170.179     6930277.56749   5402046.53646  22493171.232    22493177.687
       227.000         177.000
  24472815.075     9791508.49849   7624004.23344  24472814.783    24472827.245
       200.000         125.000
  24204902.637    -5875336.18349  -4542669.76845  24204902.285    24204912.366
       208.000         141.000
  22880743.947    -6369815.31049  -4948565.90546  22880743.131    22880751.860
       219.000         167.000
  23287520.376    -9756177.35449  -7579844.27045  23287519.196    23287527.118
       219.000         158.000
  24449565.905    -2712268.74149  -2091955.39145  24449565.308    24449576.285
       200.000         134.000
  21691162.613    -6442185.78849  -5004429.12347  21691162.281    21691167.594
       235.000         190.000
  22562000.047     6813296.45649   5310585.97446  22561999.623    22562007.166
       224.000         172.000
  22570349.562    -9657967.63349  -7496301.44946  22570349.742    22570359.352
       221.000         164.000
  20343848.484    -4892340.12949  -3793066.41047  20343848.357    20343854.356
       241.000         208.000
 03  5 12 18 11 30.0000000  0 11G17G30G 5G15G29G18G23G21G10G26G 6
  21343581.871    -4853601.82949  -3764601.89347  21343581.136    21343588.668
       237.000         199.000
  22510654.414     7022157.30749   5473641.05346  22510655.098    22510661.944
       227.000         176.000
  24492586.728     9895407.59649   7704964.34444  24492587.564    24492598.955
       204.000         126.000
  24190704.885    -5949945.94849  -4600807.13245  24190704.144    24190714.192
       208.000         141.000
  22874336.430    -6403487.19849  -4974803.69746  22874336.896    22874343.300
       215.000         165.000
  23268593.689    -9855637.46349  -7657345.53845  23268592.519    23268600.434
       220.000         159.000
  24430054.523    -2814800.80149  -2171850.46245  24430053.346    24430065.698
       204.000         135.000
  21682818.198    -6486036.59949  -5038598.55547  21682818.037    21682823.810
       237.000         190.000
  22579537.569     6905455.38249   5382398.07346  22579537.032    22579544.511
       224.000         171.000
  22555950.973    -9733632.78949  -7555261.17446  22555950.440    22555959.659
       218.000         165.000
  20339943.047    -4912863.33549  -3809058.50847  20339942.721    20339949.178
       242.000         208.000
 03  5 12 18 12  0.0000000  0 11G17G30G 5G15G29G18G23G21G10G26G 6
  21338255.557    -4881591.75449  -3786412.21647  21338254.904    21338262.331
       237.000         199.000
  22528181.798     7114264.00349   5545412.41146  22528181.744    22528189.554
       226.000         175.000
  24512348.427     9999254.47049   7785883.78444  24512349.194    24512360.535
       204.000         128.000
  24176524.149    -6024466.01749  -4658874.60345  24176523.991    24176533.571
       208.000         140.000
  22868014.145    -6436709.69949  -5000691.32846  22868014.063    22868022.377
       215.000         163.000
  23249708.650    -9954878.83749  -7734676.39145  23249708.202    23249715.362
       220.000         161.000
  24410572.593    -2917177.97049  -2251624.85245  24410571.483    24410583.212
       204.000         136.000
  21674505.634    -6529719.18849  -5072636.91247  21674504.583    21674511.010
       235.000         191.000
  22597123.895     6997871.29249   5454410.43146  22597123.277    22597130.814
       224.000         171.000
  22541615.799    -9808963.41949  -7613960.27345  22541615.234    22541622.733
       213.000         160.000
  20336113.407    -4932988.23949  -3824740.23947  20336113.172    20336119.336
       241.000         208.000
 03  5 12 18 12 30.0000000  0 12G17G30G 5G15G29G18G16G23G21G10G26G 6
  21332959.577    -4909422.15849  -3808098.23247  21332958.680    21332966.467
       236.000         199.000
  22545750.880     7206589.95149   5617354.61546  22545751.651    22545757.952
       228.000         175.000
  24532098.568    10103041.77749   7866756.75744  24532098.172    24532111.720
       206.000         130.000
  24162359.514    -6098901.32249  -4716876.02845  24162358.527    24162369.126
       208.000         140.000
  22861777.029    -6469485.36049  -5026230.76946  22861777.421    22861785.458
       217.000         163.000
  23230864.585   -10053904.58149  -7811839.18845  23230863.848    23230871.944
       220.000         160.000
  24742102.151    -6117355.17459  -4731708.49844  24742101.619    24742111.256
       200.000         130.000
  24391119.764    -3019403.04349  -2331280.71945  24391118.940    24391130.539
       203.000         137.000
  21666223.959    -6573239.13649  -5106548.52647  21666223.835    21666229.078
       236.000         191.000
  22614757.437     7090536.41449   5526616.98646  22614756.260    22614764.218
       223.000         170.000
  22527343.840    -9883961.36749  -7672400.11245  22527344.634    22527351.866
       220.000         158.000
  20332358.914    -4952718.12849  -3840114.16247  20332358.631    20332364.894
       241.000         208.000
 03  5 12 18 13  0.0000000  0 12G17G30G 5G15G29G18G16G23G21G10G26G 6
  21327695.157    -4937086.54549  -3829654.88947  21327694.684    21327702.196
       237.000         199.000
  22563362.512     7299138.86949   5689470.58046  22563363.139    22563370.428
       227.000         175.000
  24551838.426    10206773.87449   7947586.71545  24551837.377    24551849.838
       204.000         133.000
  24148212.177    -6173245.32349  -4774806.30645  24148210.422    24148223.237
       207.000         142.000
  22855626.754    -6501805.68749  -5051415.39346  22855626.129    22855634.508
       219.000         163.000
  23212063.212   -10152705.84049  -7888827.08145  23212062.603    23212070.063
       220.000         160.000
  24727563.931    -6193753.41149  -4791239.59644  24727562.555    24727572.547
       198.000         131.000
  24371697.436    -3121467.14949  -2410811.10645  24371695.866    24371709.680
       203.000         136.000
  21657974.693    -6616589.90549  -5140328.31947  21657974.296    21657979.811
       235.000         191.000
  22632439.193     7183454.90849   5599020.96546  22632438.259    22632445.658
       224.000         170.000
  22513137.651    -9958616.12949  -7730572.50046  22513137.949    22513145.990
       222.000         163.000
  20328681.151    -4972044.69949  -3855173.81847  20328680.807    20328687.186
       241.000         208.000
 03  5 12 18 13 30.0000000  0 12G17G30G 5G15G29G18G16G23G21G10G26G 6
  21322462.251    -4964586.08649  -3851083.08747  21322461.627    21322468.904
       237.000         199.000
  22581015.688     7391906.45149   5761756.92546  22581015.818    22581023.648
       226.000         174.000
  24571566.993    10310447.14149   8028370.82445  24571567.288    24571578.703
       208.000         136.000
  24134081.813    -6247499.27749  -4832666.42845  24134081.353    24134091.178
       210.000         143.000
  22849563.127    -6533669.82949  -5076244.53646  22849562.257    22849570.260
       221.000         164.000
  23193304.773   -10251281.63249  -7965639.29245  23193303.900    23193310.628
       220.000         160.000
  24713096.139    -6269782.07249  -4850482.71345  24713094.001    24713105.740
       201.000         132.000
  24352306.050    -3223369.66549  -2490215.61645  24352306.459    24352317.773
       205.000         137.000
  21649757.260    -6659772.51249  -5173977.07747  21649756.356    21649762.129
       236.000         191.000
  22650168.612     7276622.71249   5671619.21546  22650167.505    22650175.386
       225.000         170.000
  22498997.081   -10032925.46949  -7788475.73546  22498996.859    22499005.973
       219.000         165.000
  20325080.285    -4990967.62649  -3869918.93847  20325080.240    20325086.275
       242.000         208.000
 03  5 12 18 14  0.0000000  0 12G17G30G 5G15G29G18G16G23G21G10G26G 6
  21317260.399    -4991922.20449  -3872383.94747  21317259.688    21317267.387
       237.000         200.000
  22598709.714     7484889.04049   5834210.80946  22598710.288    22598717.938
       225.000         173.000
  24591283.945    10414058.30549   8109106.53045  24591284.038    24591296.312
       205.000         138.000
  24119969.011    -6321663.90149  -4890456.95245  24119968.983    24119977.390
       210.000         143.000
  22843586.634    -6565076.60149  -5100717.28346  22843586.434    22843594.884
       221.000         164.000
  23174589.425   -10349630.89349  -8042274.98445  23174588.636    23174596.107
       220.000         161.000
  24698698.660    -6345439.28649  -4909436.40544  24698699.076    24698705.460
       204.000         131.000
  24332945.584    -3325109.28049  -2569493.19445  24332944.903    24332957.818
       202.000         136.000
  21641571.659    -6702787.89249  -5207495.52647  21641571.212    21641576.706
       236.000         191.000
  22667944.828     7370036.28449   5744408.95946  22667944.239    22667951.758
       224.000         171.000
  22484922.563   -10106886.68149  -7846107.77446  22484921.962    22484930.247
       216.000         163.000
  20321556.387    -5009485.91449  -3884348.75947  20321556.030    20321562.256
       242.000         208.000
 03  5 12 18 14 30.0000000  0 12G17G30G 5G15G29G18G16G23G21G10G26G 6
  21312089.266    -5019096.25549  -3893558.52047  21312088.568    21312096.112
       236.000         199.000
  22616443.939     7578082.75649   5906829.19646  22616444.511    22616452.433
       224.000         172.000
  24610988.231    10517603.87849   8189791.14645  24610988.677    24611000.673
       204.000         137.000
  24105872.952    -6395739.91249  -4948178.39845  24105871.872    24105881.198
       207.000         142.000
  22837697.291    -6596024.99949  -5124832.86646  22837696.712    22837705.582
       222.000         166.000
  23155917.476   -10447752.37749  -8118733.18945  23155917.592    23155924.272
       221.000         162.000
  24684372.708    -6420723.77949  -4968099.67945  24684373.254    24684380.873
       205.000         133.000
  24313616.293    -3426684.90249  -2648642.97145  24313615.184    24313626.678
       206.000         135.000
  21633417.695    -6745637.25949  -5240884.61547  21633417.337    21633422.674
       236.000         191.000
  22685766.797     7463691.92749   5817387.34346  22685766.151    22685774.406
       223.000         171.000
  22470914.846   -10180497.20449  -7903466.54845  22470914.939    22470922.917
       222.000         162.000
  20318109.573    -5027599.02249  -3898462.85747  20318109.346    20318115.469
       241.000         208.000
 03  5 12 18 15  0.0000000  0 12G17G30G 5G15G29G18G16G23G21G10G26G 6
  21306949.125    -5046107.79849  -3914606.45747  21306948.447    21306955.691
       238.000         199.000
  22634217.887     7671485.28149   5979610.30046  22634217.887    22634226.602
       225.000         173.000
  24630679.794    10621082.43149   8270423.48545  24630680.485    24630692.251
       205.000         137.000
  24091793.349    -6469726.85449  -5005830.44945  24091791.310    24091802.467
       209.000         141.000
  22831895.727    -6626512.22549  -5148589.09646  22831895.248    22831902.321
       222.000         166.000
  23137289.398   -10545643.41949  -8195011.84445  23137288.159    23137296.274
       220.000         162.000
  24670118.433    -6495632.75049  -5026470.30644  24670117.523    24670126.760
       207.000         131.000
  24294318.876    -3528093.54649  -2727662.64445  24294319.013    24294329.217
       208.000         136.000
  21625295.507    -6788319.90249  -5274143.79447  21625295.240    21625300.518
       237.000         191.000
  22703634.403     7557587.52049   5890552.70846  22703633.302    22703641.334
       223.000         171.000
  22456974.775   -10253752.81149  -7960548.69146  22456974.080    22456982.958
       225.000         164.000
  20314740.307    -5045304.53449  -3912259.34047  20314739.918    20314746.329
       241.000         208.000
 03  5 12 18 15 30.0000000  0 12G17G30G 5G15G29G18G16G23G21G10G26G 6
  21301839.891    -5072957.30349  -3935528.13347  21301839.204    21301846.941
       237.000         199.000
  22652031.040     7765093.39749   6052551.60546  22652031.285    22652039.588
       227.000         173.000
  24650357.965    10724491.13349   8351001.44045  24650356.883    24650369.320
       202.000         136.000
  24077730.801    -6543625.18249  -5063413.45945  24077729.785    24077740.722
       209.000         144.000
  22826182.033    -6656536.82449  -5171984.83546  22826181.413    22826190.241
       220.000         166.000
  23118705.359   -10643302.68949  -8271109.87045  23118703.874    23118712.828
       219.000         161.000
  24655935.546    -6570164.08649  -5084546.66045  24655934.432    24655944.365
       207.000         133.000
  24275053.644    -3629333.62349  -2806550.94545  24275053.600    24275065.554
       209.000         137.000
  21617204.873    -6830836.54649  -5307273.62347  21617203.781    21617210.146
       235.000         191.000
  22721547.329     7651720.17349   5963902.77046  22721546.770    22721554.639
       223.000         172.000
  22443102.899   -10326650.41349  -8017351.86646  22443102.384    22443111.390
       221.000         165.000
  20311448.853    -5062601.12949  -3925737.19647  20311448.647    20311454.834
       241.000         208.000
 03  5 12 18 16  0.0000000  0 12G17G30G 5G15G29G18G16G23G21G10G26G 6
  21296761.342    -5099645.33149  -3956323.98147  21296760.659    21296767.854
       237.000         200.000
  22669882.630     7858903.60149   6125650.37746  22669882.547    22669890.616
       227.000         173.000
  24670022.385    10827826.93449   8431522.55445  24670022.159    24670034.618
       202.000         137.000
  24063685.219    -6617435.11549  -5120927.60145  24063684.538    24063694.659
       211.000         144.000
  22820556.940    -6686097.25849  -5195018.90946  22820556.198    22820564.553
       220.000         166.000
  23100165.630   -10740728.53049  -8347026.01545  23100164.469    23100173.336
       221.000         161.000
  24641824.854    -6644316.08649  -5142327.44345  24641820.802    24641834.043
       203.000         132.000
  24255820.783    -3730403.46249  -2885306.58945  24255819.695    24255832.377
       209.000         138.000
  21609145.609    -6873187.53549  -5340274.36547  21609144.880    21609151.069
       236.000         191.000
  22739504.913     7746086.87549   6037435.21646  22739504.009    22739511.625
       222.000         172.000
  22429299.470   -10399186.87149  -8073873.69546  22429298.320    22429307.431
       215.000         164.000
  20308235.474    -5079487.60149  -3938895.46647  20308235.201    20308241.108
       241.000         208.000
 03  5 12 18 16 30.0000000  0 12G17G30G 5G15G29G18G16G23G21G10G26G 6
  21291713.327    -5126172.37049  -3976994.38247  21291712.364    21291719.916
       237.000         200.000
  22687772.161     7952913.21049   6198904.53546  22687772.902    22687780.781
       224.000         171.000
  24689672.482    10931087.77249   8511985.28045  24689672.715    24689682.843
       203.000         134.000
  24049656.542    -6691156.57449  -5178372.79245  24049656.140    24049665.658
       210.000         144.000
  22815020.607    -6715191.42549  -5217689.67346  22815019.810    22815028.553
       217.000         166.000
  23081670.953   -10837918.68949  -8422758.52345  23081670.842    23081677.021
       222.000         162.000
  24627786.665    -6718085.99349  -5199810.49745  24627786.888    24627795.161
       207.000         133.000
  24236620.670    -3831300.71249  -2963927.79045  24236619.667    24236631.549
       207.000         134.000
  21601118.101    -6915372.61449  -5373145.83847  21601117.577    21601122.671
       237.000         192.000
  22757506.555     7840685.25249   6111148.19546  22757506.336    22757513.842
       221.000         171.000
  22415565.409   -10471358.42549  -8130111.20646  22415565.127    22415573.812
       222.000         165.000
  20305100.452    -5095962.17449  -3951732.78447  20305100.092    20305106.147
       241.000         208.000
 03  5 12 18 17  0.0000000  0 12G17G30G 5G15G29G18G16G23G21G10G26G 6
  21286696.029    -5152538.46649  -3997539.37447  21286695.547    21286702.719
       238.000         200.000
  22705699.024     8047119.50349   6272311.94246  22705699.291    22705706.976
       225.000         171.000
  24709307.838    11034271.72649   8592388.09545  24709307.502    24709319.792
       202.000         134.000
  24035644.560    -6764789.17549  -5235748.75945  24035643.690    24035653.775
       208.000         143.000
  22809573.289    -6743816.89249  -5239995.22246  22809573.031    22809580.455
       216.000         165.000
  23063221.649   -10934870.84149  -8498305.57746  23063220.804    23063228.683
       221.000         163.000
  24613822.062    -6791471.47749  -5256993.99844  24613822.076    24613829.539
       209.000         131.000
  24217453.551    -3932023.18049  -3042412.76344  24217450.428    24217463.133
       204.000         130.000
  21593122.072    -6957391.99549  -5405888.18447  21593121.153    21593127.293
       236.000         192.000
  22775551.586     7935512.67949   6185039.64946  22775550.365    22775558.572
       220.000         171.000
  22401901.760   -10543161.60449  -8186061.61746  22401902.326    22401910.128
       224.000         168.000
  20302044.149    -5112023.08849  -3964247.76947  20302043.977    20302050.015
       242.000         208.000
 03  5 12 18 17 30.0000000  0 12G17G30G 5G15G29G18G16G23G21G10G26G 6
  21281709.279    -5178744.38049  -4017959.55047  21281708.500    21281715.830
       236.000         200.000
  22723662.664     8141518.78049   6345869.73646  22723663.335    22723670.281
       224.000         171.000
  24728927.704    11137375.70749   8672728.57744  24728928.349    24728940.127
       199.000         131.000
  24021649.163    -6838333.75349  -5293056.12845  24021648.239    24021659.663
       209.000         144.000
  22804215.200    -6771973.02249  -5261935.05346  22804214.421    22804223.139
       213.000         164.000
  23044817.637   -11031583.79349  -8573666.22146  23044816.935    23044824.914
       221.000         163.000
  24599930.952    -6864471.02749  -5313876.77045  24599931.132    24599939.870
       208.000         133.000
  24198319.968    -4032569.53649  -3120760.48444  24198318.842    24198329.886
       204.000         129.000
  21585157.330    -6999246.59249  -5438502.13247  21585157.017    21585162.389
       237.000         192.000
  22793639.338     8030565.63949   6259106.85746  22793638.432    22793647.078
       219.000         170.000
  22388308.745   -10614593.53149  -8241722.72246  22388307.667    22388316.435
       221.000         167.000
  20299066.767    -5127669.36949  -3976439.66047  20299066.619    20299072.695
       242.000         208.000
 03  5 12 18 18  0.0000000  0 12G17G30G 5G15G29G18G16G23G21G10G26G 6
  21276752.892    -5204790.06349  -4038254.87847  21276752.391    21276759.772
       238.000         200.000
  22741662.529     8236108.78749   6419576.13646  22741662.455    22741671.314
       224.000         172.000
  24748532.452    11240398.11749   8753005.50645  24748532.857    24748543.832
       203.000         132.000
  24007670.685    -6911789.84849  -5350294.55145  24007670.865    24007680.797
       211.000         144.000
  22798947.001    -6799656.97149  -5283506.95746  22798947.427    22798954.734
       216.000         165.000
  23026459.632   -11128054.92649  -8648838.44446  23026458.305    23026466.269
       221.000         163.000
  24586113.660    -6937081.62349  -5370456.46845  24586111.899    24586120.567
       208.000         133.000
  24179220.647    -4132937.03849  -3198968.87344  24179219.425    24179230.238
       207.000         131.000
  21577224.318    -7040935.49149  -5470986.97447  21577223.729    21577229.023
       237.000         192.000
  22811769.864     8125842.36649   6333348.41546  22811768.681    22811777.957
       220.000         170.000
  22374786.874   -10685650.08949  -8297091.37246  22374785.558    22374793.978
       219.000         164.000
  20296168.736    -5142898.68449  -3988306.64847  20296168.555    20296174.625
       241.000         209.000
 03  5 12 18 18 30.0000000  0 12G17G30G 5G15G29G18G16G23G21G10G26G 6
  21271826.967    -5230676.11449  -4058425.80047  21271826.171    21271833.871
       238.000         200.000
  22759698.035     8330885.95149   6493428.37846  22759698.539    22759706.972
       223.000         171.000
  24768121.187    11343335.70749   8833216.33945  24768121.386    24768132.841
       204.000         133.000
  23993709.427    -6985158.14549  -5407464.57345  23993708.571    23993719.555
       214.000         145.000
  22793769.120    -6826867.61949  -5304710.04546  22793768.482    22793776.496
       215.000         165.000
  23008147.852   -11224283.02149  -8723821.28246  23008146.981    23008155.834
       221.000         163.000
  24572370.341    -7009301.96249  -5426732.03144  24572368.723    24572376.344
       206.000         130.000
  24160155.800    -4233124.29649  -3277036.73545  24160155.952    24160167.320
       206.000         134.000
  21569322.452    -7082459.74849  -5503343.50547  21569322.009    21569327.321
       236.000         192.000
  22829942.294     8221339.16049   6407761.46246  22829941.830    22829950.615
       220.000         169.000
  22361337.138   -10756328.46749  -8352165.35746  22361336.959    22361344.704
       222.000         163.000
  20293350.125    -5157710.27549  -3999848.13647  20293349.846    20293356.148
       241.000         209.000
 03  5 12 18 19  0.0000000  0 12G17G30G 5G15G29G18G16G23G21G10G26G 6
  21266931.234    -5256402.97749  -4078472.69347  21266930.620    21266938.179
       237.000         200.000
  22777768.656     8425847.22249   6567424.08246  22777769.818    22777776.604
       225.000         171.000
  24787692.978    11446186.27149   8913359.37545  24787692.318    24787705.195
       203.000         134.000
  23979764.784    -7058438.62149  -5464566.15645  23979763.905    23979772.443
       212.000         144.000
  22788681.523    -6853603.25649  -5325543.02246  22788682.264    22788689.129
       220.000         167.000
  22989882.768   -11320266.11949  -8798613.22346  22989882.306    22989889.242
       222.000         164.000
  24558701.867    -7081129.60549  -5482701.65244  24558702.114    24558709.190
       207.000         131.000
  24141125.618    -4333129.30149  -3354962.61045  24141126.146    24141134.683
       208.000         135.000
  21561451.873    -7123819.48749  -5535571.84847  21561451.558    21561457.240
       237.000         192.000
  22848156.076     8317053.42049   6482343.95946  22848155.211    22848164.293
       220.000         169.000
  22347960.124   -10826625.26849  -8406941.98446  22347959.649    22347968.464
       224.000         168.000
  20290611.352    -5172102.59049  -4011062.91247  20290611.152    20290617.491
       241.000         209.000
 03  5 12 18 19 30.0000000  0 12G17G30G 5G15G29G18G16G23G21G10G26G 6
  21262065.776    -5281971.45649  -4098396.17747  21262065.229    21262072.357
       238.000         200.000
  22795873.753     8520989.34949   6641560.72246  22795874.494    22795882.074
       225.000         170.000
  24807247.796    11548947.10849   8993432.45845  24807248.829    24807261.493
       205.000         135.000
  23965836.651    -7131631.42549  -5521599.43345  23965836.147    23965844.937
       211.000         143.000
  22783684.648    -6879862.18149  -5346004.50346  22783684.064    22783691.885
       220.000         168.000
  22971664.697   -11416002.60349  -8873213.00946  22971664.787    22971671.377
       223.000         164.000
  24545108.916    -7152562.67549  -5538363.80745  24545107.456    24545116.169
       204.000         132.000
  24122130.321    -4432950.49749  -3432745.23845  24122130.517    24122140.210
       201.000         134.000
  21553612.732    -7165014.76849  -5567672.05047  21553612.015    21553617.794
       237.000         193.000
  22866410.903     8412982.34149   6557093.72846  22866409.754    22866418.431
       220.000         169.000
  22334656.261   -10896537.44749  -8461418.90346  22334656.149    22334664.898
       223.000         170.000
  20287952.617    -5186074.36649  -4021950.00347  20287952.383    20287958.468
       241.000         209.000
 03  5 12 18 20  0.0000000  0 11G17G30G15G29G18G16G23G21G10G26G 6
  21257230.536    -5307381.00449  -4118195.80647  21257229.606    21257237.017
       237.000         200.000
  22814012.862     8616310.03349   6715836.48846  22814014.187    22814021.001
       225.000         170.000
  23951925.203    -7204735.93549  -5578563.91545  23951924.248    23951933.817
       211.000         143.000
  22778778.756    -6905642.24749  -5366092.85346  22778778.650    22778787.107
       222.000         169.000
  22953494.149   -11511489.79549  -8947618.51246  22953493.257    22953501.198
       221.000         164.000
  24531591.381    -7223598.30049  -5593716.19245  24531591.133    24531601.111
       204.000         132.000
  24103170.419    -4532585.16949  -3510382.51345  24103168.763    24103178.982
       201.000         133.000
  21545804.777    -7206045.56749  -5599644.06847  21545803.980    21545809.447
       237.000         192.000
  22884706.108     8509123.82049   6632009.11146  22884705.578    22884713.752
       220.000         168.000
  22321426.399   -10966060.70349  -8515592.79546  22321425.888    22321433.831
       219.000         168.000
  20285374.262    -5199623.53749  -4032507.78647  20285374.048    20285379.900
       241.000         208.000
 03  5 12 18 20 30.0000000  0 11G17G30G15G29G18G16G23G21G10G26G 6
  21252425.499    -5332631.03649  -4137871.13747  21252424.713    21252432.413
       237.000         200.000
  22832185.436     8711806.97449   6790249.58946  22832185.657    22832193.847
       223.000         170.000
  23938030.694    -7277751.43849  -5635459.03145  23938029.797    23938040.363
       213.000         145.000
  22773964.576    -6930940.89249  -5385806.04246  22773964.702    22773971.636
       223.000         169.000
  22935371.370   -11606725.03749  -9021827.70146  22935371.043    22935378.051
       222.000         164.000
  24518149.735    -7294233.67049  -5648756.75644  24518149.159    24518157.441
       207.000         129.000
  24084246.407    -4632030.41549  -3587872.16444  24084245.774    24084256.263
       201.000         131.000
  21538028.278    -7246910.98549  -5631487.22647  21538027.874    21538033.140
       237.000         193.000
  22903041.253     8605476.04149   6707088.72646  22903040.195    22903049.130
       219.000         168.000
  22308271.172   -11035191.07449  -8569460.54946  22308271.475    22308279.590
       219.000         165.000
  20282876.772    -5212747.84549  -4042734.50547  20282876.567    20282882.644
       242.000         208.000
 03  5 12 18 21  0.0000000  0 11G17G30G15G29G18G16G23G21G10G26G 6
  21247650.617    -5357723.38349  -4157423.60447  21247650.008    21247657.278
       237.000         200.000
  22850390.662     8807475.79749   6864796.61646  22850390.854    22850399.131
       223.000         169.000
  23924152.719    -7350679.64849  -5692286.12845  23924151.744    23924162.809
       212.000         145.000
  22769242.123    -6955757.90649  -5405143.94346  22769241.052    22769250.424
       224.000         168.000
  22917296.659   -11701708.15149  -9095840.40946  22917296.196    22917303.884
       223.000         165.000
  24504784.430    -7364468.11849  -5703484.88644  24504783.032    24504792.233
       204.000         128.000
  24065358.773    -4731285.89349  -3665213.94445  24065357.380    24065368.944
       201.000         132.000
  21530283.104    -7287612.78549  -5663202.88947  21530282.346    21530287.999
       237.000         193.000
  22921415.669     8702034.74649   6782329.22746  22921414.925    22921423.119
       221.000         167.000
  22295191.050   -11103926.73249  -8623020.68246  22295191.140    22295199.000
       225.000         167.000
  20280460.097    -5225447.46449  -4052630.30347  20280459.880    20280465.961
       241.000         208.000
 03  5 12 18 21 30.0000000  0 11G17G30G15G29G18G16G23G21G10G26G 6
  21242905.606    -5382658.63049  -4176853.65547  21242905.223    21242912.062
       238.000         200.000
  22868627.861     8903313.30749   6939475.09846  22868628.068    22868636.163
       222.000         169.000
  23910291.601    -7423520.51649  -5749045.16645  23910290.061    23910300.388
       211.000         144.000
  22764611.510    -6980091.70649  -5424105.30346  22764611.567    22764619.528
       224.000         168.000
  22899270.335   -11796437.17949  -9169655.15346  22899269.616    22899276.934
       223.000         166.000
  24491495.630    -7434299.67049  -5757899.07144  24491495.151    24491503.668
       199.000         128.000
  24046507.391    -4830349.77649  -3742406.41945  24046507.030    24046517.077
       209.000         136.000
  21522568.853    -7328151.10149  -5694791.16047  21522567.846    21522573.962
       237.000         193.000
  22939829.097     8798797.18849   6857728.48846  22939828.387    22939836.427
       220.000         166.000
  22282186.916   -11172264.51249  -8676270.79746  22282187.852    22282194.313
       225.000         170.000
  20278124.515    -5237720.99649  -4062194.08947  20278124.227    20278130.361
       241.000         208.000
 03  5 12 18 22  0.0000000  0 11G17G30G15G29G18G16G23G21G10G26G 6
  21238190.322    -5407437.55549  -4196161.89847  21238189.577    21238196.810
       237.000         200.000
  22886896.532     8999315.81949   7014282.13946  22886896.551    22886905.172
       223.000         169.000
  23896446.722    -7496274.99549  -5805736.88545  23896447.144    23896455.713
       211.000         143.000
  22760073.192    -7003941.34049  -5442689.39646  22760073.339    22760080.271
       224.000         166.000
  22881292.465   -11890911.24549  -9243271.22846  22881292.321    22881299.967
       223.000         166.000
  24478284.077    -7503726.80849  -5811998.09944  24478283.087    24478292.780
       204.000         129.000
  24027692.985    -4929220.72549  -3819448.57845  24027692.445    24027702.744
       209.000         141.000
  21514885.513    -7368526.80049  -5726252.71847  21514885.185    21514890.426
       236.000         193.000
  22958280.750     8895760.05249   6933283.90546  22958280.073    22958286.989
       221.000         166.000
  22269258.921   -11240201.59849  -8729208.71846  22269258.733    22269266.664
       220.000         168.000
  20275870.221    -5249567.55949  -4071425.17247  20275870.117    20275876.312
       241.000         208.000
 03  5 12 18 22 30.0000000  0 11G17G30G15G29G18G16G23G21G10G26G 6
  21233504.838    -5432059.81349  -4215348.06047  21233504.211    21233511.345
       237.000         200.000
  22905196.345     9095481.43649   7089216.29246  22905197.112    22905205.459
       225.000         169.000
  23882618.564    -7568942.10649  -5862360.53745  23882617.628    23882627.911
       212.000         143.000
  22755627.416    -7027304.04249  -5460894.05046  22755626.967    22755634.805
       222.000         165.000
  22863363.782   -11985127.22049  -9316686.19646  22863363.443    22863370.092
       224.000         166.000
  24465150.115    -7572746.42449  -5865779.60144  24465150.109    24465157.295
       207.000         130.000
  24008915.775    -5027895.85749  -3896338.14845  24008914.165    24008926.550
       209.000         144.000
  21507233.393    -7408739.26549  -5757587.08147  21507232.803    21507237.847
       237.000         193.000
  22976770.174     8992921.63549   7008994.18846  22976769.414    22976777.890
       220.000         166.000
  22256407.678   -11307733.54949  -8781830.95546  22256406.630    22256416.294
       218.000         166.000
  20273697.633    -5260984.73149  -4080321.66447  20273697.341    20273703.599
       241.000         209.000
 03  5 12 18 23  0.0000000  0 11G17G30G15G29G18G16G23G21G10G26G 6
  21228849.211    -5456525.14549  -4234411.94247  21228848.524    21228855.837
       237.000         200.000
  22923526.663     9191807.16749   7164275.20046  22923527.292    22923535.332
       223.000         169.000
  23868807.159    -7641521.87349  -5918916.10145  23868806.609    23868815.335
       212.000         143.000
  22751274.424    -7050178.36249  -5478718.14246  22751273.471    22751282.485
       221.000         164.000
  22845484.582   -12079083.23249  -9389898.57746  22845483.731    22845490.847
       223.000         167.000
  24452094.229    -7641356.53949  -5919241.99944  24452093.038    24452100.742
       204.000         129.000
  23990175.871    -5126373.15649  -3973073.53045  23990174.858    23990186.545
       208.000         145.000
  21499612.166    -7448788.51749  -5788794.26947  21499611.599    21499617.345
       236.000         193.000
  22995296.596     9090279.18749   7084857.17946  22995295.868    22995304.965
       220.000         165.000
  22243634.356   -11374857.23949  -8834135.04746  22243634.812    22243642.715
       222.000         168.000
  20271606.981    -5271971.07749  -4088882.44747  20271606.649    20271612.895
       241.000         209.000
 03  5 12 18 23 30.0000000  0 11G17G30G15G29G18G16G23G21G10G26G 6
  21224223.320    -5480834.25549  -4253354.10147  21224222.666    21224230.024
       237.000         200.000
  22941886.741     9288289.71849   7239456.29046  22941887.272    22941896.807
       222.000         168.000
  23855012.192    -7714014.66849  -5975403.91245  23855010.160    23855021.776
       212.000         144.000
  22747014.870    -7072562.97549  -5496160.66546  22747013.990    22747022.081
       219.000         163.000
  22827654.954   -12172777.86949  -9462907.29446  22827652.645    22827662.227
       223.000         167.000
  24439116.405    -7709555.32449  -5972383.83344  24439115.083    24439123.910
       202.000         130.000
  23971474.082    -5224651.09049  -4049653.56245  23971473.264    23971484.417
       211.000         147.000
  21492022.079    -7488674.48949  -5819874.22447  21492021.363    21492027.403
       236.000         193.000
  23013859.801     9187829.74349   7160870.55346  23013858.837    23013867.521
       220.000         165.000
  22230939.565   -11441569.62149  -8886118.63246  22230939.651    22230947.187
       223.000         170.000
  20269598.530    -5282525.59749  -4097106.74847  20269598.309    20269604.439
       241.000         208.000
 03  5 12 18 24  0.0000000  0 11G17G30G15G29G18G16G23G21G10G26G 6
  21219627.142    -5504987.40349  -4272174.72747  21219626.698    21219633.900
       238.000         200.000
  22960276.190     9384926.33849   7314757.43946  22960275.972    22960284.162
       222.000         167.000
  23841233.777    -7786420.15449  -6031823.68445  23841232.538    23841243.163
       211.000         143.000
  22742848.755    -7094455.94549  -5513220.09646  22742848.943    22742855.669
       217.000         163.000
  22809875.519   -12266208.88749  -9535710.59846  22809875.042    22809882.412
       223.000         167.000
  24426217.182    -7777340.56949  -6025203.51844  24426217.052    24426225.177
       200.000         131.000
  23952810.708    -5322727.64049  -4126076.69545  23952810.045    23952820.293
       214.000         148.000
  21484463.022    -7528397.43849  -5850827.14247  21484462.636    21484467.960
       237.000         193.000
  23032459.479     9285570.99749   7237032.53446  23032458.711    23032466.434
       220.000         164.000
  22218323.428   -11507867.16349  -8937778.95946  22218323.155    22218330.533
       221.000         168.000
  20267672.602    -5292646.51949  -4104993.17847  20267672.412    20267678.548
       241.000         208.000
 03  5 12 18 24 30.0000000  0 11G17G30G15G29G18G16G23G21G10G26G 6
  21215060.598    -5528985.00549  -4290874.15147  21215059.870    21215067.145
       237.000         201.000
  22978694.368     9481714.00149   7390176.30046  22978694.531    22978703.187
       223.000         167.000
  23827471.977    -7858738.53249  -6088175.57645  23827471.854    23827480.172
       212.000         143.000
  22738776.509    -7115855.83949  -5529895.29745  22738776.353    22738783.770
       216.000         162.000
  22792146.481   -12359374.74449  -9608307.29046  22792145.826    22792154.176
       223.000         167.000
  24413397.191    -7844710.12849  -6077699.25044  24413397.207    24413404.767
       198.000         131.000
  23934185.871    -5420600.80649  -4202341.34445  23934184.959    23934195.098
       215.000         150.000
  21476935.125    -7567957.33749  -5881653.01247  21476934.158    21476939.800
       238.000         194.000
  23051094.929     9383500.25049   7313341.00646  23051094.260    23051102.478
       219.000         163.000
  22205786.911   -11573746.52249  -8989113.45946  22205786.944    22205795.267
       219.000         167.000
  20265829.419    -5302332.52949  -4112540.71647  20265829.078    20265835.237
       242.000         208.000
 03  5 12 18 25  0.0000000  0 11G17G30G15G29G18G16G23G21G10G26G 6
  21210523.534    -5552827.25549  -4309452.51747  21210523.020    21210530.270
       238.000         200.000
  22997140.659     9578649.31449   7465710.20746  22997140.821    22997148.175
       222.000         166.000
  23813726.695    -7930970.29049  -6144459.99645  23813726.850    23813735.103
       210.000         142.000
  22734798.203    -7136761.45249  -5546185.37545  22734797.567    22734806.029
       216.000         162.000
  22774468.150   -12452274.08049  -9680696.30946  22774467.484    22774473.797
       223.000         167.000
  24400656.664    -7911662.27849  -6129869.69445  24400655.188    24400665.168
       202.000         134.000
  23915600.151    -5518269.03449  -4278446.32145  23915599.505    23915609.938
       214.000         151.000
  21469438.011    -7607354.81949  -5912352.32547  21469437.038    21469443.219
       237.000         194.000
  23069765.436     9481614.50749   7389793.62946  23069764.764    23069772.315
       219.000         163.000
  22193330.409   -11639204.80449  -9040119.85946  22193330.477    22193338.201
       221.000         169.000
  20264069.173    -5311582.73049  -4119748.65847  20264069.027    20264074.960
       242.000         208.000
 03  5 12 18 25 30.0000000  0 11G17G30G15G29G18G16G23G21G10G26G 6
  21206015.986    -5576514.44749  -4327910.05947  21206015.401    21206022.646
       238.000         200.000
  23015614.505     9675729.68449   7541357.14246  23015614.901    23015623.213
       222.000         166.000
  23799997.936    -8003115.26649  -6200676.76645  23799997.015    23800006.973
       211.000         143.000
  22730914.261    -7157171.21549  -5562089.05846  22730913.546    22730921.493
       215.000         163.000
  22756841.244   -12544904.40549  -9752875.70346  22756841.067    22756847.688
       225.000         167.000
  24387995.997    -7978194.75149  -6181713.14945  24387995.612    24388003.166
       201.000         133.000
  23897053.725    -5615730.16649  -4354389.92345  23897052.695    23897063.162
       213.000         150.000
  21461971.781    -7646589.81649  -5942925.02547  21461971.306    21461976.422
       237.000         194.000
  23088470.770     9579911.58649   7466388.72645  23088470.045    23088478.125
       218.000         162.000
  22180954.954   -11704238.60149  -9090795.47346  22180955.314    22180962.410
       223.000         170.000
  20262392.221    -5320395.37249  -4126615.64647  20262392.108    20262397.919
       242.000         208.000
 03  5 12 18 26  0.0000000  0 11G17G30G15G29G18G16G23G21G10G26G 6
  21201537.921    -5600047.08649  -4346247.17547  21201537.341    21201544.669
       238.000         201.000
  23034115.395     9772951.66749   7617114.41846  23034115.783    23034124.304
       222.000         166.000
  23786285.742    -8075173.88149  -6256826.24745  23786283.878    23786294.305
       208.000         143.000
  22727124.914    -7177083.77749  -5577605.32846  22727124.409    22727132.649
       217.000         165.000
  22739265.824   -12637264.48849  -9824844.51546  22739266.513    22739272.759
       226.000         169.000
  24375415.377    -8044305.98449  -6233228.34545  24375415.121    24375422.188
       201.000         132.000
  23878546.961    -5712982.60249  -4430170.89045  23878545.937    23878557.473
       211.000         148.000
  21454536.394    -7685662.74249  -5973371.44047  21454535.614    21454541.139
       237.000         194.000
  23107210.253     9678388.14849   7543123.66845  23107209.832    23107217.734
       217.000         161.000
  22168660.805   -11768844.93949  -9141137.99646  22168660.825    22168667.799
       224.000         171.000
  20260798.731    -5328769.31449  -4133140.78847  20260798.351    20260804.520
       241.000         208.000
 03  5 12 18 26 30.0000000  0 11G17G30G15G29G18G16G23G21G10G26G 6
  21197089.340    -5623424.66649  -4364463.46047  21197088.541    21197096.058
       238.000         201.000
  23052642.748     9870312.77549   7692980.10146  23052643.077    23052651.083
       223.000         166.000
  23772589.655    -8147145.91849  -6312908.24645  23772588.489    23772598.675
       210.000         143.000
  22723430.638    -7196497.33849  -5592732.76646  22723430.396    22723438.464
       219.000         167.000
  22721742.147   -12729352.27449  -9896601.14746  22721741.036    22721748.641
       224.000         170.000
  24362915.435    -8109993.42949  -6284413.34945  24362914.975    24362922.192
       201.000         134.000
  23860080.348    -5810024.18349  -4505787.57545  23860078.451    23860090.498
       209.000         146.000
  21447131.927    -7724573.20449  -6003691.26147  21447131.640    21447136.705
       237.000         194.000
  23125983.507     9777042.03049   7619996.79445  23125982.745    23125989.783
       218.000         160.000
  22156448.578   -11833020.13049  -9191144.58446  22156448.360    22156455.795
       222.000         170.000
  20259288.973    -5336702.90449  -4139322.80047  20259288.836    20259294.749
       241.000         208.000
 03  5 12 18 27  0.0000000  0 11G17G30G15G29G18G16G23G21G10G26G 6
  21192670.016    -5646648.17449  -4382559.69047  21192669.120    21192676.637
       238.000         201.000
  23071196.007     9967809.90449   7768951.78146  23071196.603    23071204.604
       221.000         167.000
  23758910.320    -8219031.30049  -6368922.76845  23758909.919    23758918.969
       210.000         143.000
  22719831.732    -7215410.45749  -5607470.25646  22719831.598    22719839.106
       220.000         169.000
  22704270.413   -12821165.88249  -9968144.13146  22704269.132    22704276.794
       223.000         169.000
  24350496.542    -8175255.39349  -6335266.77445  24350496.852    24350504.411
       201.000         133.000
  23841654.116    -5906853.03449  -4581238.48245  23841652.787    23841663.377
       208.000         144.000
  21439758.428    -7763321.65449  -6033884.83547  21439757.795    21439763.082
       237.000         195.000
  23144790.149     9875870.81849   7697006.20545  23144790.465    23144796.946
       218.000         160.000
  22144319.144   -11896761.04549  -9240812.77946  22144319.447    22144326.326
       221.000         168.000
  20257863.271    -5344194.95349  -4145160.75447  20257863.143    20257869.137
       241.000         208.000
 03  5 12 18 27 30.0000000  0 11G17G30G15G29G18G16G23G21G10G26G 6
  21188279.802    -5669718.79649  -4400536.78647  21188279.140    21188286.124
       238.000         201.000
  23089774.291    10065439.05449   7845026.31746  23089775.011    23089782.799
       221.000         166.000
  23745247.247    -8290831.01749  -6424870.53145  23745244.689    23745255.813
       208.000         142.000
  22716327.805    -7233822.83149  -5621817.54846  22716327.294    22716335.273
       220.000         171.000
  22686850.867   -12912704.46349 -10039472.82646  22686849.451    22686858.362
       223.000         169.000
  24338159.084    -8240090.86349  -6385787.87645  24338158.713    24338166.708
       203.000         135.000
  23823268.857    -6003468.19749  -4656522.91445  23823269.124    23823279.761
       206.000         141.000
  21432415.431    -7801908.89749  -6063952.79247  21432414.528    21432420.322
       237.000         194.000
  23163629.353     9974870.73149   7774148.95745  23163627.594    23163637.297
       218.000         158.000
  22132272.609   -11960065.54649  -9290140.89046  22132272.317    22132280.639
       223.000         169.000
  20256521.661    -5351245.19549  -4150654.44247  20256521.482    20256527.552
       241.000         209.000
 03  5 12 18 28  0.0000000  0 11G17G30G15G29G18G16G23G21G10G26G 6
  21183918.990    -5692635.08149  -4418393.62547  21183918.478    21183925.305
       238.000         201.000
  23108377.431    10163198.83749   7921202.64946  23108378.093    23108386.449
       222.000         166.000
  23731600.480    -8362543.66849  -6480750.42745  23731598.916    23731610.437
       211.000         144.000
  22712919.778    -7251731.54049  -5635772.37146  22712919.793    22712927.542
       224.000         173.000
  22669484.503   -13003964.83049 -10110584.74546  22669483.403    22669491.200
       224.000         169.000
  24325903.316    -8304496.24749  -6435973.86945  24325902.628    24325909.897
       198.000         135.000
  23804924.749    -6099866.66649  -4731638.49345  23804923.714    23804933.820
       206.000         138.000
  21425103.476    -7840333.60249  -6093894.10947  21425103.070    21425108.391
       238.000         195.000
  23182500.631    10074040.41149   7851423.99445  23182499.859    23182507.772
       217.000         158.000
  22120310.109   -12022928.84449  -9339125.21046  22120309.518    22120317.816
       224.000         171.000
  20255264.628    -5357850.94849  -4155801.77847  20255264.572    20255270.445
       241.000         209.000
 03  5 12 18 28 30.0000000  0 11G17G30G15G29G18G16G23G21G10G26G 6
  21179587.316    -5715398.12849  -4436131.05247  21179586.807    21179593.551
       238.000         201.000
  23127004.852    10261085.66549   7997477.99946  23127005.487    23127014.602
       222.000         166.000
  23717970.632    -8434169.86049  -6536562.96645  23717970.291    23717979.180
       211.000         146.000
  22709608.010    -7269135.67149  -5649334.02946  22709608.016    22709615.140
       224.000         174.000
  22652171.368   -13094945.86949 -10181478.98446  22652171.288    22652178.349
       226.000         170.000
  24313729.192    -8368470.13649  -6485823.58145  24313728.236    24313735.435
       201.000         136.000
  23786621.946    -6196046.80049  -4806583.91545  23786621.115    23786631.191
       208.000         139.000
  21417822.387    -7878596.42749  -6123709.27347  21417821.860    21417826.955
       237.000         195.000
  23201403.633    10173376.93949   7928829.04645  23201403.722    23201410.283
       216.000         157.000
  22108432.051   -12085348.39149  -9387763.76546  22108432.011    22108440.177
       222.000         171.000
  20254092.377    -5364011.26749  -4160602.01747  20254092.144    20254098.232
       241.000         209.000
 03  5 12 18 29  0.0000000  0 11G17G30G15G29G18G16G23G21G10G26G 6
  21175284.814    -5738008.14849  -4453749.23447  21175284.006    21175291.421
       238.000         201.000
  23145655.593    10359096.02249   8073849.59246  23145655.456    23145664.099
       221.000         165.000
  23704357.114    -8505710.32149  -6592308.70245  23704355.726    23704365.007
       211.000         145.000
  22706392.189    -7286034.44249  -5662501.88746  22706392.711    22706399.495
       225.000         175.000
  22634911.638   -13185646.55349 -10252154.76946  22634910.977    22634918.525
       227.000         171.000
  24301637.742    -8432011.20649  -6535336.05045  24301637.906    24301645.588
       202.000         138.000
  23768361.195    -6292007.32649  -4881358.24545  23768359.917    23768370.821
       209.000         139.000
  21410571.878    -7916697.92649  -6153398.73347  21410570.990    21410576.999
       237.000         195.000
  23220337.907    10272877.43149   8006361.85545  23220337.145    23220345.043
       216.000         157.000
  22096638.845   -12147321.54949  -9436054.48946  22096638.655    22096646.595
       222.000         170.000
  20253004.964    -5369725.55649  -4165054.70547  20253004.527    20253010.940
       242.000         208.000
 03  5 12 18 29 30.0000000  0 11G17G30G15G29G18G16G23G21G10G26G 6
  21171011.238    -5760465.58349  -4471248.52647  21171010.225    21171017.744
       238.000         201.000
  23164329.268    10457227.03049   8150315.19446  23164329.468    23164338.540
       219.000         163.000
  23690759.494    -8577164.86749  -6647987.48445  23690758.519    23690768.732
       209.000         143.000
  22703272.951    -7302426.46849  -5675274.88046  22703273.041    22703279.851
       226.000         176.000
  22617705.653   -13276064.70749 -10322610.38846  22617704.719    22617711.396
       227.000         171.000
  24289629.091    -8495117.44949  -6584509.72845  24289629.180    24289635.645
       203.000         138.000
  23750142.602    -6387746.38549  -4955959.99045  23750142.009    23750151.052
       207.000         140.000
  21403352.033    -7954638.31849  -6182962.65347  21403351.658    21403356.498
       238.000         195.000
  23239303.017    10372539.20749   8084020.36445  23239302.106    23239310.576
       217.000         156.000
  22084931.335   -12208845.09749  -9483994.87546  22084931.250    22084939.204
       224.000         172.000
  20252002.677    -5374992.52849  -4169158.83547  20252002.261    20252008.565
       241.000         208.000
 03  5 12 18 30  0.0000000  0 11G17G30G15G29G18G16G23G21G10G26G 6
  21166766.819    -5782770.11049  -4488628.65547  21166766.482    21166773.400
       239.000         201.000
  23183025.439    10555476.09849   8226872.77646  23183026.445    23183034.123
       220.000         163.000
  23677178.252    -8648533.28349  -6703599.15845  23677177.741    23677187.168
       212.000         146.000
  22700250.472    -7318310.05749  -5687651.69646  22700250.174    22700258.323
       226.000         176.000
  22600553.658   -13366198.52549 -10392844.45146  22600552.603    22600559.126
       227.000         171.000
  24277703.510    -8557786.80649  -6633342.91745  24277702.896    24277710.196
       203.000         139.000
  23731966.551    -6483261.85049  -5030387.48745  23731966.102    23731977.131
       208.000         141.000
  21396162.919    -7992417.34449  -6212400.83147  21396162.155    21396167.838
       238.000         195.000
  23258298.433    10472359.62049   8161802.45545  23258297.406    23258304.682
       216.000         156.000
  22073309.902   -12269915.70649  -9531582.30046  22073310.005    22073316.983
       225.000         172.000
  20251085.814    -5379810.53749  -4172913.12947  20251085.495    20251091.805
       241.000         208.000
 03  5 12 18 30 30.0000000  0 11G17G30G15G29G18G16G23G21G10G26G 6
  21162551.254    -5804923.17349  -4505890.76347  21162550.591    21162557.824
       239.000         201.000
  23201743.524    10653839.39349   8303519.38246  23201744.377    23201753.044
       220.000         164.000
  23663613.664    -8719816.29649  -6759144.27645  23663611.922    23663622.731
       211.000         147.000
  22697324.788    -7333684.80349  -5699631.99246  22697324.229    22697332.377
       227.000         175.000
  22583455.978   -13456046.99749 -10462856.17646  22583455.049    22583462.138
       227.000         172.000
  24265861.048    -8620018.08949  -6681834.78945  24265860.464    24265868.137
       204.000         140.000
  23713833.237    -6578552.70449  -5104639.96945  23713832.585    23713843.186
       211.000         143.000
  21389004.404    -8030035.76049  -6241713.86347  21389003.411    21389009.415
       237.000         195.000
  23277323.302    10572335.71749   8239705.86245  23277322.625    23277330.515
       215.000         156.000
  22061775.190   -12330530.68149  -9578814.67546  22061775.371    22061782.814
       225.000         172.000
  20250254.460    -5384179.21149  -4176317.28747  20250254.051    20250260.228
       241.000         208.000
 03  5 12 18 31  0.0000000  0 11G17G30G15G29G18G16G23G21G10G26G 6
  21158364.539    -5826924.65149  -4523034.76747  21158363.690    21158371.333
       239.000         201.000
  23220482.860    10752314.81549   8380253.33546  23220483.054    23220491.370
       221.000         165.000
  23650065.433    -8791013.28749  -6814622.35445  23650063.792    23650074.467
       214.000         146.000
  22694496.141    -7348548.84049  -5711214.34646  22694496.227    22694503.796
       227.000         173.000
  22566413.025   -13545607.66549 -10532643.61846  22566412.538    22566419.820
       227.000         172.000
  24254102.554    -8681808.57949  -6729983.18545  24254101.975    24254109.922
       206.000         139.000
  23695743.150    -6673616.36049  -5178715.41845  23695742.539    23695752.847
       212.000         145.000
  21381876.469    -8067493.07249  -6270901.36147  21381875.815    21381881.343
       238.000         195.000
  23296377.304    10672465.52549   8317729.06845  23296376.564    23296384.863
       215.000         157.000
  22050327.962   -12390686.54049  -9625689.32446  22050328.066    22050335.353
       224.000         171.000
  20249509.061    -5388096.38449  -4179369.62947  20249509.157    20249515.121
       241.000         208.000
 03  5 12 18 31 30.0000000  0 11G17G30G15G29G18G16G23G21G10G26G 6
  21154206.701    -5848773.91549  -4540060.14547  21154205.868    21154213.162
       238.000         201.000
  23239242.979    10850899.53549   8457072.47746  23239244.366    23239252.842
       220.000         165.000
  23636533.582    -8862124.28549  -6870033.42545  23636532.299    23636541.457
       213.000         148.000
  22691765.220    -7362900.35249  -5722397.32346  22691765.238    22691772.878
       227.000         172.000
  22549425.289   -13634878.54349 -10602205.25946  22549424.648    22549431.902
       229.000         173.000
  24242428.555    -8743156.35349  -6777786.62845  24242427.936    24242435.541
       207.000         141.000
  23677696.660    -6768450.69249  -5252612.17845  23677695.932    23677705.784
       213.000         146.000
  21374779.334    -8104789.06049  -6299963.14647  21374778.469    21374783.710
       237.000         195.000
  23315460.220    10772747.04449   8395870.45045  23315459.223    23315467.660
       215.000         156.000
  22038968.662   -12450379.62749  -9672203.36646  22038967.730    22038976.039
       223.000         171.000
  20248849.887    -5391560.60549  -4182069.01947  20248849.703    20248855.679
       242.000         208.000
 03  5 12 18 32  0.0000000  0 11G17G30G15G29G18G16G23G21G10G26G 6
  21150077.676    -5870471.88349  -4556967.63547  21150076.856    21150083.986
       239.000         201.000
  23258023.151    10949589.75549   8533973.82446  23258024.295    23258032.559
       220.000         163.000
  23623017.749    -8933150.25149  -6925378.26645  23623016.096    23623026.629
       210.000         149.000
  22689131.860    -7376739.14749  -5733180.77446  22689131.651    22689138.720
       224.000         170.000
  22532493.026   -13723858.86349 -10671540.49746  22532492.790    22532499.628
       229.000         174.000
  24230838.971    -8804060.17949  -6825244.07845  24230838.470    24230846.675
       207.000         142.000
  23659693.919    -6863054.73749  -5326329.48745  23659692.915    23659704.552
       212.000         149.000
  21367712.537    -8141924.69549  -6328899.98847  21367712.091    21367717.137
       237.000         195.000
  23334571.428    10873176.67149   8474127.27245  23334570.423    23334579.285
       216.000         157.000
  22027697.764   -12509607.82849  -9718355.16946  22027697.332    22027706.017
       225.000         173.000
  20248276.964    -5394571.52149  -4184415.18347  20248276.830    20248282.713
       241.000         208.000
 03  5 12 18 32 30.0000000  0 11G17G30G15G29G18G16G23G21G10G26G 6
  21145977.597    -5892018.00949  -4573756.81847  21145976.835    21145984.266
       239.000         202.000
  23276823.091    11048383.42049   8610955.75045  23276822.571    23276832.392
       220.000         162.000
  23609518.013    -9004090.65549  -6980656.40045  23609516.562    23609525.295
       213.000         149.000
  22686596.300    -7390063.28349  -5743563.19346  22686596.846    22686603.537
       223.000         168.000
  22515616.330   -13812546.35849 -10740647.55046  22515615.614    22515622.601
       228.000         174.000
  24219334.272    -8864517.84649  -6872353.91445  24219334.534    24219342.504
       211.000         143.000
  23641735.540    -6957426.27649  -5399865.62145  23641735.257    23641745.818
       214.000         151.000
  21360676.555    -8178899.29449  -6357711.34047  21360675.722    21360681.371
       238.000         196.000
  23353710.427    10973752.42349   8552497.94345  23353709.803    23353718.309
       216.000         158.000
  22016516.261   -12568367.43449  -9764141.83846  22016515.673    22016524.127
       225.000         174.000
  20247790.639    -5397127.33649  -4186406.72147  20247790.177    20247796.242
       241.000         208.000
 03  5 12 18 33  0.0000000  0 11G17G30G15G29G18G16G23G21G10G26G 6
  21141906.263    -5913413.21349  -4590428.39447  21141905.713    21141912.662
       238.000         202.000
  23295641.932    11147276.99449   8688015.52545  23295642.013    23295650.767
       218.000         161.000
  23596034.736    -9074945.84449  -7035868.13345  23596033.246    23596042.377
       213.000         150.000
  22684158.803    -7402872.10049  -5753544.06746  22684158.814    22684165.974
       222.000         166.000
  22498795.490   -13900939.59449 -10809525.31646  22498794.918    22498801.061
       229.000         174.000
  24207914.784    -8924527.93049  -6919114.98645  24207913.430    24207922.778
       208.000         143.000
  23623821.758    -7051564.11749  -5473219.65945  23623821.399    23623831.111
       215.000         152.000
  21353671.067    -8215713.29149  -6386397.55747  21353670.112    21353675.658
       237.000         196.000
  23372876.603    11074471.35249   8630980.18245  23372875.355    23372884.728
       215.000         158.000
  22005424.294   -12626655.82649  -9809561.30046  22005424.282    22005431.961
       224.000         173.000
  20247390.968    -5399227.49949  -4188043.21447  20247390.433    20247396.730
       241.000         208.000
 03  5 12 18 33 30.0000000  0 11G17G30G15G29G18G16G23G21G10G26G 6
  21137863.551    -5934657.58949  -4606982.43347  21137862.682    21137870.339
       238.000         202.000
  23314479.435    11246267.52349   8765150.86745  23314480.431    23314488.811
       220.000         161.000
  23582567.563    -9145715.76649  -7091013.43445  23582567.049    23582575.463
       213.000         150.000
  22681819.672    -7415164.23749  -5763122.31446  22681819.203    22681826.851
       221.000         164.000
  22482031.023   -13989036.93749 -10878172.50746  22482030.704    22482037.360
       229.000         175.000
  24196580.687    -8984088.35549  -6965525.66445  24196579.626    24196588.748
       210.000         144.000
  23605952.795    -7145466.17349  -5546389.96145  23605951.970    23605961.632
       212.000         152.000
  21346696.105    -8252366.61549  -6414958.55747  21346695.800    21346700.759
       239.000         196.000
  23392069.568    11175331.30449   8709572.31045  23392069.477    23392076.982
       217.000         158.000
  21994422.523   -12684470.02349  -9854611.28646  21994422.228    21994430.716
       223.000         171.000
  20247078.278    -5400870.59049  -4189323.54347  20247078.080    20247084.057
       242.000         208.000
 03  5 12 18 34  0.0000000  0 11G17G30G15G29G18G16G23G21G10G26G 6
  21133849.418    -5955751.65049  -4623419.35247  21133849.061    21133856.156
       239.000         202.000
  23333334.849    11345351.93849   8842359.36745  23333335.518    23333343.749
       220.000         161.000
  23569116.559    -9216400.60849  -7146092.46545  23569115.451    23569125.322
       212.000         150.000
  22679579.093    -7426938.82049  -5772297.27745  22679578.914    22679586.450
       219.000         162.000
  22465323.163   -14076836.97249 -10946588.03246  22465322.101    22465328.741
       228.000         175.000
  24185332.733    -9043197.67149  -7011584.85045  24185332.673    24185339.138
       211.000         145.000
  23588128.934    -7239130.84749  -5619375.29245  23588128.169    23588137.547
       212.000         151.000
  21339751.776    -8288859.69949  -6443394.70947  21339750.958    21339756.432
       238.000         196.000
  23411288.955    11276329.42449   8788272.10045  23411288.152    23411296.328
       218.000         159.000
  21983511.643   -12741806.94149  -9899289.37046  21983511.612    21983519.510
       224.000         171.000
  20246852.828    -5402055.66349  -4190246.97547  20246852.486    20246858.539
       241.000         208.000
 03  5 12 18 34 30.0000000  0 11G17G30G15G29G18G16G23G21G10G26G 6
  21129863.910    -5976695.79549  -4639739.45047  21129863.470    21129870.328
       239.000         202.000
  23352207.406    11444527.23549   8919638.67845  23352207.813    23352216.787
       218.000         161.000
  23555681.797    -9287000.45049  -7201105.23745  23555680.492    23555690.284
       216.000         151.000
  22677437.004    -7438194.93749  -5781068.22645  22677436.417    22677444.331
       217.000         159.000
  22448672.225   -14164337.95149 -11014770.54146  22448671.538    22448678.297
       228.000         175.000
  24174171.130    -9101854.22249  -7057291.18045  24174169.541    24174177.193
       211.000         144.000
  23570350.461    -7332556.58349  -5692174.43745  23570349.816    23570358.981
       212.000         151.000
  21332837.737    -8325192.79649  -6471706.18847  21332836.904    21332842.629
       238.000         196.000
  23430534.108    11377462.97449   8867077.42845  23430533.000    23430541.717
       217.000         158.000
  21972692.068   -12798663.95949  -9943593.48446  21972692.671    21972699.527
       227.000         173.000
  20246714.603    -5402781.82949  -4190812.81847  20246714.101    20246720.382
       241.000         208.000
 03  5 12 18 35  0.0000000  0 11G17G30G15G29G18G16G23G21G10G26G 6
  21125906.828    -5997490.69249  -4655943.25947  21125906.269    21125913.327
       239.000         202.000
  23371096.534    11543789.82549   8996985.98545  23371097.376    23371104.993
       220.000         161.000
  23542263.154    -9357516.10549  -7256052.40845  23542262.021    23542271.731
       215.000         152.000
  22675393.753    -7448932.11649  -5789434.81845  22675394.171    22675400.539
       214.000         157.000
  22432078.361   -14251539.15649 -11082719.44146  22432077.336    22432084.925
       228.000         175.000
  24163095.197    -9160056.83949  -7102643.82045  24163093.828    24163102.025
       209.000         143.000
  23552617.839    -7425742.25649  -5764786.54345  23552617.542    23552626.557
       214.000         151.000
  21325954.086    -8361366.52549  -6499893.48947  21325953.400    21325959.028
       238.000         196.000
  23449804.459    11478728.74949   8945985.76545  23449803.029    23449811.223
       214.000         158.000
  21961964.498   -12855038.54749  -9987521.69946  21961964.179    21961971.963
       225.000         175.000
  20246663.819    -5403048.60849  -4191020.70047  20246663.586    20246669.670
       241.000         208.000
 03  5 12 18 35 30.0000000  0 11G17G30G15G29G18G16G23G21G10G26G 6
  21121978.391    -6018134.57849  -4672029.39647  21121977.939    21121984.772
       239.000         202.000
  23390001.987    11643138.46449   9074400.36245  23390002.468    23390011.226
       219.000         160.000
  23528860.829    -9427946.00349  -7310932.75645  23528860.159    23528868.097
       214.000         152.000
  22673449.759    -7459147.40349  -5797394.75245  22673449.597    22673456.050
       215.000         155.000
  22415542.064   -14338437.13749 -11150432.07646  22415541.324    22415547.590
       229.000         176.000
  24152106.257    -9217802.18749  -7147640.14945  24152105.685    24152112.267
       211.000         143.000
  23534931.521    -7518684.38849  -5837208.86645  23534930.507    23534940.710
       213.000         151.000
  21319101.174    -8397379.00349  -6527955.14547  21319100.744    21319105.938
       239.000         196.000
  23469099.706    11580126.00249   9024996.57745  23469099.261    23469106.662
       215.000         157.000
  21951329.306   -12910926.11849 -10031070.40846  21951328.891    21951337.198
       225.000         174.000
  20246701.032    -5402853.24349  -4190868.46547  20246700.761    20246706.818
       241.000         208.000
 03  5 12 18 36  0.0000000  0 11G17G30G15G29G18G16G23G21G10G26G 6
  21118078.568    -6038628.41449  -4687998.61047  21118077.909    21118085.050
       239.000         202.000
  23408923.198    11742569.60449   9151879.01845  23408922.430    23408932.542
       218.000         158.000
  23515474.445    -9498290.64349  -7365746.68245  23515472.837    23515481.378
       213.000         152.000
  22671605.380    -7468840.51249  -5804947.78345  22671605.094    22671612.444
       215.000         155.000
  22399063.740   -14425031.09749 -11217907.80746  22399063.471    22399070.021
       229.000         177.000
  24141204.983    -9275089.14549  -7192279.28645  24141204.902    24141212.679
       212.000         144.000
  23517291.615    -7611382.03049  -5909440.68345  23517290.868    23517301.095
       209.000         151.000
  21312278.823    -8433231.01149  -6555891.75347  21312278.097    21312283.579
       238.000         197.000
  23488419.267    11681652.02649   9104107.71645  23488418.546    23488428.056
       212.000         156.000
  21940787.368   -12966324.18249 -10074237.71046  21940787.709    21940795.304
       224.000         174.000
  20246826.213    -5402195.25449  -4190355.74647  20246826.044    20246831.917
       241.000         208.000
 03  5 12 18 36 30.0000000  0 11G17G30G15G29G18G16G23G21G10G26G 6
  21114207.021    -6058973.24849  -4703851.72147  21114206.239    21114213.600
       240.000         202.000
  23427859.335    11842079.80649   9229419.28045  23427859.720    23427868.359
       219.000         157.000
  23502104.013    -9568550.80149  -7420494.77245  23502102.813    23502111.661
       214.000         153.000
  22669860.466    -7478011.13749  -5812093.68845  22669860.302    22669866.635
       213.000         154.000
  22382643.526   -14511319.73749 -11285145.61946  22382642.729    22382649.470
       229.000         177.000
  24130391.112    -9331916.72149  -7236560.44645  24130389.169    24130398.252
       213.000         144.000
  23499698.427    -7703834.00849  -5981481.05545  23499696.798    23499708.936
       212.000         151.000
  21305486.635    -8468923.47849  -6583704.05147  21305485.879    21305491.733
       239.000         197.000
  23507762.741    11783303.54449   9183316.64445  23507761.725    23507770.019
       213.000         156.000
  21930339.036   -13021230.62349 -10117021.91446  21930339.312    21930347.131
       224.000         174.000
  20247039.575    -5401074.17749  -4189482.17747  20247039.136    20247045.492
       241.000         208.000
 03  5 12 18 37  0.0000000  0 11G17G30G15G29G18G16G23G21G10G26G 6
  21110364.086    -6079168.20749  -4719588.04647  21110363.260    21110370.598
       239.000         202.000
  23446810.321    11941666.85149   9307019.43445  23446811.610    23446820.466
       219.000         157.000
  23488750.173    -9638725.80549  -7475176.50745  23488749.817    23488759.064
       216.000         154.000
  22668215.014    -7486657.33349  -5818830.94045  22668213.932    22668222.201
       214.000         154.000
  22366281.892   -14597300.84249 -11352143.80346  22366280.986    22366288.317
       229.000         177.000
  24119664.803    -9388282.22449  -7280481.59145  24119664.004    24119671.631
       210.000         143.000
  23482152.498    -7796037.71649  -6053327.98345  23482151.055    23482161.493
       214.000         151.000
  21298725.215    -8504455.27549  -6611391.14947  21298724.720    21298729.633
       240.000         197.000
  23527129.869    11885078.89149   9262622.06045  23527129.367    23527138.525
       213.000         155.000
  21919984.880   -13075641.55949 -10159420.00546  21919984.451    21919992.569
       226.000         174.000
  20247341.425    -5399487.96949  -4188246.17147  20247341.237    20247347.515
       241.000         208.000
 03  5 12 18 37 30.0000000  0 11G17G30G15G29G18G16G23G21G10G26G 6
  21106549.435    -6099214.44949  -4735208.48247  21106548.940    21106555.907
       239.000         202.000
  23465775.183    12041326.77149   9384676.37045  23465776.121    23465784.493
       220.000         158.000
  23475412.476    -9708816.76849  -7529792.75645  23475411.511    23475421.314
       214.000         154.000
  22666669.374    -7494779.25349  -5825159.66145  22666668.592    22666676.258
       214.000         155.000
  22349978.836   -14682973.94049 -11418901.97846  22349977.912    22349984.779
       229.000         177.000
  24109026.739    -9444185.03149  -7324042.18745  24109027.637    24109032.995
       213.000         143.000
  23464654.013    -7887992.67749  -6124981.09445  23464653.309    23464664.183
       213.000         152.000
  21291994.068    -8539827.63749  -6638954.00447  21291993.420    21291998.815
       239.000         197.000
  23546520.077    11986974.39949   9342021.11845  23546519.943    23546528.244
       214.000         154.000
  21909725.426   -13129555.23149 -10201430.60146  21909725.343    21909733.458
       226.000         174.000
  20247731.731    -5397436.86449  -4186647.90647  20247731.507    20247737.594
       241.000         208.000
 03  5 12 18 38  0.0000000  0 11G17G30G15G29G18G16G23G21G10G26G 6
  21102763.092    -6119111.91349  -4750712.99947  21102762.442    21102769.169
       239.000         202.000
  23484753.311    12141056.88749   9462387.98245  23484754.063    23484763.325
       220.000         158.000
  23462090.278    -9778823.61449  -7584343.47545  23462088.284    23462098.884
       214.000         154.000
  22665223.658    -7502376.05049  -5831079.18345  22665222.543    22665231.255
       214.000         156.000
  22333734.640   -14768337.35449 -11485418.85846  22333733.598    22333740.388
       229.000         177.000
  24098477.517    -9499623.62449  -7367241.03445  24098478.061    24098485.068
       214.000         142.000
  23447203.155    -7979697.05549  -6196438.95645  23447202.150    23447211.935
       212.000         153.000
  21285293.206    -8575040.69549  -6666392.74147  21285292.788    21285298.155
       240.000         197.000
  23565932.807    12088987.71349   9421511.95945  23565932.165    23565939.232
       215.000         153.000
  21899561.124   -13182968.64549 -10243051.39546  21899560.820    21899567.966
       224.000         174.000
  20248210.721    -5394919.68049  -4184686.46947  20248210.426    20248216.575
       241.000         208.000
 03  5 12 18 38 30.0000000  0 11G17G30G15G29G18G16G23G21G10G26G 6
  21099005.132    -6138860.13149  -4766101.21447  21099004.423    21099011.277
       240.000         202.000
  23503744.433    12240854.79049   9540152.43245  23503746.155    23503753.471
       219.000         158.000
  23448784.388    -9848745.66249  -7638828.11645  23448783.195    23448793.113
       215.000         154.000
  22663878.369    -7509445.61749  -5836587.90945  22663878.184    22663884.936
       216.000         158.000
  22317549.786   -14853388.67049 -11551692.54446  22317549.932    22317555.512
       229.000         178.000
  24088016.792    -9554595.45849  -7410076.20845  24088014.854    24088023.686
       211.000         142.000
  23429800.421    -8071148.40049  -6267699.62945  23429799.647    23429809.929
       214.000         153.000
  21278622.955    -8610093.52149  -6693706.61647  21278622.226    21278627.576
       239.000         197.000
  23585367.625    12191117.09749   9501093.24645  23585366.301    23585375.929
       214.000         153.000
  21889492.796   -13235878.19549 -10284279.59346  21889491.720    21889500.905
       222.000         173.000
  20248778.770    -5391934.82049  -4182360.60647  20248778.412    20248784.457
       241.000         208.000
 03  5 12 18 39  0.0000000  0 11G17G30G15G29G18G16G23G21G10G26G 6
  21095275.510    -6158459.60949  -4781373.52347  21095274.525    21095281.962
       239.000         202.000
  23522747.690    12340717.28449   9617967.19745  23522748.050    23522756.770
       216.000         158.000
  23435494.770    -9918583.41149  -7693247.05745  23435494.175    23435503.130
       215.000         154.000
  22662633.331    -7515987.84549  -5841685.69545  22662632.666    22662640.580
       216.000         159.000
  22301424.604   -14938126.63749 -11617722.05546  22301423.646    22301430.886
       229.000         177.000
  24077644.580    -9609099.33749  -7452546.73745  24077643.234    24077651.800
       208.000         142.000
  23412446.271    -8162345.40949  -6338762.13145  23412445.291    23412455.860
       214.000         153.000
  21271982.906    -8644986.49349  -6720895.92147  21271982.093    21271987.606
       239.000         197.000
  23604823.833    12293359.95349   9580762.94345  23604823.281    23604831.157
       213.000         153.000
  21879520.553   -13288281.51349 -10325113.30546  21879520.653    21879529.065
       223.000         174.000
  20249435.939    -5388481.44849  -4179669.66847  20249435.677    20249441.616
       242.000         208.000
 03  5 12 18 39 30.0000000  0 11G17G30G15G29G18G16G23G21G10G26G 6
  21091574.070    -6177910.49949  -4796530.05647  21091572.988    21091580.660
       238.000         202.000
  23541762.724    12440641.79449   9695830.28745  23541762.897    23541772.743
       213.000         155.000
  23422221.211    -9988336.70849  -7747600.18445  23422220.684    23422229.145
       214.000         154.000
  22661488.874    -7522001.52249  -5846371.63745  22661488.238    22661495.293
       217.000         161.000
  22285359.307   -15022549.77249 -11683506.23846  22285358.367    22285365.245
       230.000         178.000
  24067362.003    -9663133.48949  -7494651.24845  24067361.043    24067368.645
       210.000         141.000
  23395140.731    -8253286.29049  -6409625.04245  23395139.772    23395150.701
       213.000         153.000
  21265373.360    -8679719.56049  -6747960.64147  21265373.049    21265378.573
       239.000         197.000
  23624301.148    12395714.12149   9660519.39345  23624300.827    23624308.717
       214.000         153.000
  21869645.537   -13340175.51849 -10365550.16346  21869645.759    21869652.931
       226.000         176.000
  20250182.453    -5384558.55849  -4176612.87647  20250182.281    20250188.139
       242.000         208.000
 03  5 12 18 40  0.0000000  0 11G17G30G15G29G18G16G23G21G10G26G 6
  21087900.872    -6197213.14049  -4811571.06947  21087900.290    21087907.037
       239.000         202.000
  23560788.843    12540625.01349   9773739.11245  23560789.555    23560799.831
       215.000         153.000
  23408963.436   -10058005.75049  -7801887.69445  23408962.752    23408971.378
       215.000         153.000
  22660445.253    -7527486.14549  -5850645.31845  22660445.380    22660452.418
       219.000         162.000
  22269354.243   -15106656.82649 -11749044.13446  22269354.397    22269360.081
       230.000         178.000
  24057169.717    -9716696.71649  -7536388.78745  24057169.928    24057175.816
       210.000         141.000
  23377884.056    -8343969.75549  -6480287.35745  23377882.429    23377893.594
       213.000         152.000
  21258794.234    -8714293.23849  -6774901.14647  21258793.683    21258798.840
       239.000         197.000
  23643799.047    12498176.58249   9740360.21045  23643798.309    23643806.498
       215.000         151.000
  21859867.753   -13391557.74749 -10405588.20446  21859867.818    21859874.935
       226.000         176.000
  20251018.417    -5380165.62649  -4173189.81147  20251018.252    20251023.988
       241.000         208.000
 03  5 12 18 40 30.0000000  0 11G17G30G15G29G18G16G23G21G10G26G 6
  21084255.740    -6216368.67249  -4826497.44947  21084255.294    21084262.405
       239.000         202.000
  23579825.524    12640663.19249   9851690.77445  23579825.147    23579836.225
       216.000         152.000
  23395721.538   -10127591.51449  -7856110.28845  23395721.609    23395729.967
       215.000         153.000
  22659502.325    -7532441.73249  -5854506.77646  22659502.743    22659508.698
       220.000         163.000
  22253409.444   -15190447.07949 -11814335.16946  22253408.706    22253415.489
       232.000         179.000
  24047066.706    -9769788.34649  -7577758.84645  24047065.123    24047075.477
       206.000         140.000
  23360676.718    -8434394.90449  -6550748.41745  23360676.200    23360685.620
       214.000         152.000
  21252245.242    -8748708.01349  -6801717.84047  21252244.747    21252249.905
       240.000         197.000
  23663317.097    12600744.31149   9820283.06845  23663315.667    23663325.441
       212.000         152.000
  21850187.843   -13442426.09549 -10445225.83146  21850188.239    21850195.950
       227.000         176.000
  20251943.859    -5375302.36049  -4169400.25747  20251943.471    20251949.684
       241.000         208.000
 03  5 12 18 41  0.0000000  0 11G17G30G15G29G18G16G23G21G10G26G 6
  21080638.908    -6235375.20849  -4841307.73247  21080638.148    21080645.440
       238.000         203.000
  23598872.491    12740755.04349   9929684.26145  23598872.760    23598881.904
       217.000         153.000
  23382496.014   -10197092.63849  -7910266.93645  23382495.095    23382504.417
       215.000         153.000
  22658660.452    -7536865.89049  -5857954.13146  22658660.026    22658667.617
       220.000         165.000
  22237525.533   -15273917.45649 -11879376.94746  22237524.562    22237531.505
       229.000         179.000
  24037053.751    -9822405.13349  -7618758.94845  24037052.655    24037060.915
       207.000         139.000
  23343519.023    -8524558.76849  -6621005.87345  23343517.999    23343526.956
       214.000         152.000
  21245726.957    -8782962.39349  -6828409.54647  21245726.899    21245731.420
       241.000         198.000
  23682855.033    12703416.27049   9900287.13045  23682854.191    23682863.417
       212.000         151.000
  21840606.425   -13492776.50349 -10484459.85046  21840606.453    21840613.587
       224.000         175.000
  20252959.246    -5369966.39849  -4165242.36747  20252958.988    20252965.108
       241.000         208.000
 03  5 12 18 41 30.0000000  0 11G17G30G15G29G18G16G23G21G10G26G 6
  21077050.052    -6254234.75249  -4856003.47747  21077049.332    21077056.477
       238.000         203.000
  23617928.997    12840896.70449  10007716.56345  23617929.787    23617939.428
       216.000         153.000
  23369286.219   -10266510.05949  -7964358.33545  23369286.150    23369294.834
       214.000         153.000
  22657919.540    -7540758.92849  -5860987.62146  22657919.509    22657925.768
       221.000         165.000
  22221702.404   -15357067.49149 -11944169.10546  22221701.606    22221708.682
       230.000         180.000
  24027131.581    -9874546.81449  -7659388.77945  24027131.683    24027139.097
       210.000         139.000
  23326411.192    -8614460.68749  -6691059.21345  23326410.912    23326419.665
       214.000         153.000
  21239238.893    -8817057.60949  -6854977.22847  21239238.101    21239243.700
       238.000         198.000
  23702411.996    12806188.85249   9980369.61045  23702411.812    23702419.553
       212.000         150.000
  21831123.803   -13542607.20749 -10523288.93146  21831123.388    21831130.976
       223.000         174.000
  20254064.601    -5364157.84249  -4160716.22347  20254064.323    20254070.400
       241.000         208.000
 03  5 12 18 42  0.0000000  0 11G17G30G15G29G18G16G23G21G10G26G 6
  21073489.301    -6272946.45749  -4870584.01547  21073488.667    21073495.464
       239.000         202.000
  23636994.553    12941085.55949  10085785.63445  23636995.988    23637004.859
       216.000         153.000
  23356092.328   -10335843.52749  -8018384.34345  23356091.654    23356101.568
       213.000         153.000
  22657279.984    -7544119.67149  -5863606.33446  22657279.122    22657287.221
       221.000         166.000
  22205940.787   -15439895.43249 -12008710.28446  22205940.287    22205947.030
       231.000         180.000
  24017300.331    -9926211.25049  -7699646.75645  24017298.670    24017306.819
       208.000         138.000
  23309353.493    -8704098.72949  -6760906.93945  23309352.511    23309362.538
       216.000         154.000
  21232781.005    -8850993.08549  -6881420.43747  21232780.452    21232785.977
       240.000         198.000
  23721987.731    12909060.13749  10060528.99845  23721986.940    23721995.759
       211.000         149.000
  21821740.828   -13591914.94449 -10561710.50046  21821740.633    21821748.363
       225.000         175.000
  20255260.061    -5357875.45449  -4155820.86247  20255259.686    20255265.772
       241.000         208.000
 03  5 12 18 42 30.0000000  0 11G17G30G15G29G18G16G23G21G10G26G 6
  21069956.669    -6291510.78049  -4885049.71947  21069955.943    21069962.845
       238.000         202.000
  23656068.394    13041318.70549  10163889.21045  23656068.874    23656078.268
       215.000         153.000
  23342914.556   -10405093.17849  -8072345.03545  23342913.677    23342922.560
       214.000         152.000
  22656741.677    -7546947.56549  -5865809.83746  22656741.085    22656748.591
       220.000         166.000
  22190240.756   -15522400.01449 -12072999.51046  22190240.276    22190247.059
       232.000         180.000
  24007559.816    -9977397.23549  -7739531.89945  24007557.334    24007566.153
       206.000         137.000
  23292346.279    -8793471.43749  -6830547.91545  23292345.375    23292355.520
       217.000         156.000
  21226353.721    -8884769.38049  -6907739.60847  21226353.141    21226358.349
       240.000         198.000
  23741581.600    13012027.49449  10140763.24045  23741581.195    23741590.143
       212.000         148.000
  21812457.899   -13640697.33349 -10599722.69346  21812457.560    21812465.339
       226.000         177.000
  20256545.849    -5351118.60849  -4150555.79747  20256545.615    20256551.652
       241.000         208.000
 03  5 12 18 43  0.0000000  0 11G17G30G15G29G18G16G23G21G10G26G 6
  21066452.174    -6309927.06449  -4899400.06747  21066451.579    21066458.315
       238.000         203.000
  23675150.357    13141593.44549  10242025.19845  23675151.204    23675160.402
       213.000         153.000
  23329752.783   -10474258.71249  -8126240.16445  23329751.199    23329761.483
       215.000         153.000
  22656305.136    -7549241.38849  -5867597.18846  22656304.857    22656312.775
       220.000         167.000
  22174602.558   -15604579.24149 -12137035.21346  22174602.112    22174608.100
       230.000         180.000
  23997910.721   -10028102.95449  -7779042.81345  23997909.743    23997918.069
       208.000         137.000
  23275390.047    -8882576.75949  -6899980.54545  23275390.253    23275398.809
       216.000         156.000
  21219956.818    -8918385.61549  -6933934.06047  21219956.290    21219961.537
       239.000         198.000
  23761193.610    13115089.18149  10221071.01845  23761194.397    23761202.271
       211.000         146.000
  21803275.511   -13688951.09849 -10637322.96646  21803275.816    21803283.213
       227.000         178.000
  20257922.193    -5343885.89949  -4144919.92947  20257922.052    20257928.115
       241.000         208.000
 03  5 12 18 43 30.0000000  0 11G17G30G15G29G18G16G23G21G10G26G 6
  21062975.563    -6328196.96749  -4913636.34247  21062975.096    21062981.986
       239.000         202.000
  23694239.261    13241906.05749  10320190.66545  23694239.349    23694249.530
       211.000         151.000
  23316606.803   -10543341.34049  -8180070.70845  23316604.940    23316614.609
       215.000         152.000
  22655970.080    -7551001.89849  -5868968.96546  22655969.629    22655976.434
       220.000         168.000
  22159026.213   -15686433.00949 -12200817.29246  22159025.556    22159032.322
       230.000         181.000
  23988353.232   -10078327.88549  -7818179.11145  23988352.509    23988358.082
       210.000         137.000
  23258484.819    -8971414.28349  -6969204.49445  23258484.266    23258494.047
       217.000         156.000
  21213589.997    -8951843.32949  -6960004.98047  21213589.298    21213594.691
       240.000         198.000
  23780823.179    13218241.93249  10301449.73845  23780821.990    23780831.004
       213.000         146.000
  21794193.956   -13736675.03949 -10674510.38746  21794193.874    21794201.328
       226.000         178.000
  20259389.030    -5336177.75049  -4138913.58447  20259388.787    20259394.934
       241.000         208.000
 03  5 12 18 44  0.0000000  0 11G17G30G15G29G18G16G23G21G10G26G 6
  21059526.938    -6346319.58149  -4927757.85147  21059526.073    21059533.425
       239.000         202.000
  23713334.920    13342254.38249  10398383.95845  23713335.589    23713344.951
       213.000         151.000
  23303476.481   -10612340.22249  -8233835.99945  23303474.720    23303485.817
       211.000         151.000
  22655736.773    -7552227.32449  -5869923.80246  22655736.450    22655743.984
       220.000         168.000
  22143512.321   -15767958.82249 -12264343.83646  22143512.076    22143518.357
       232.000         181.000
  23978887.778   -10128070.09649  -7856939.24445  23978887.462    23978894.146
       208.000         137.000
  23241630.944    -9059981.62049  -7038217.90045  23241630.264    23241639.480
       216.000         156.000
  21207253.646    -8985141.21449  -6985951.36647  21207252.884    21207257.952
       240.000         198.000
  23800469.786    13321484.03449  10381898.05645  23800468.349    23800477.362
       213.000         146.000
  21785213.878   -13783865.43249 -10711282.06346  21785212.931    21785220.380
       225.000         176.000
  20260946.646    -5327992.35049  -4132535.36347  20260946.419    20260952.271
       241.000         208.000
 03  5 12 18 44 30.0000000  0 11G17G30G15G29G18G16G23G21G10G26G 6
  21056106.300    -6364295.03049  -4941764.68547  21056105.741    21056112.785
       239.000         203.000
  23732436.943    13442635.30949  10476602.67145  23732438.035    23732447.017
       215.000         153.000
  23290362.142   -10681255.65449  -8287536.24745  23290362.248    23290370.344
       215.000         152.000
  22655605.401    -7552917.31349  -5870461.41846  22655604.631    22655612.008
       219.000         168.000
  22128061.056   -15849155.47249 -12327613.88546  22128060.083    22128066.734
       230.000         181.000
  23969514.113   -10177328.21549  -7895322.15445  23969511.303    23969520.791
       206.000         136.000
  23224828.720    -9148277.35949  -7107019.67145  23224827.856    23224837.123
       215.000         155.000
  21200947.569    -9018279.69149  -7011773.53547  21200947.020    21200952.079
       239.000         198.000
  23820132.848    13424812.74249  10462413.87645  23820131.286    23820139.094
       213.000         145.000
  21776335.708   -13830519.86949 -10747636.09346  21776335.357    21776342.388
       225.000         175.000
  20262595.223    -5319329.15249  -4125784.82547  20262594.947    20262601.108
       240.000         208.000
 03  5 12 18 45  0.0000000  0 11G17G30G15G29G18G16G23G21G10G26G 6
  21052713.747    -6382123.18149  -4955656.73447  21052712.870    21052720.212
       239.000         202.000
  23751544.784    13543046.41549  10554844.92045  23751545.097    23751555.224
       217.000         155.000
  23277264.209   -10750087.27149  -8341171.20045  23277262.606    23277272.504
       215.000         152.000
  22655576.071    -7553071.05549  -5870581.17746  22655575.731    22655583.179
       219.000         168.000
  22112672.701   -15930021.38449 -12390626.22646  22112671.916    22112678.345
       231.000         181.000
  23960232.905   -10226100.40449  -7933326.43845  23960232.816    23960240.912
       205.000         137.000
  23208078.424    -9236299.68149  -7175608.38945  23208077.312    23208087.130
       215.000         155.000
  21194671.917    -9051258.41949  -7037471.22547  21194671.254    21194676.366
       239.000         198.000
  23839811.764    13528226.12949  10542995.67845  23839811.492    23839818.352
       213.000         145.000
  21767560.186   -13876635.46249 -10783570.25646  21767560.222    21767567.906
       227.000         176.000
  20264334.895    -5310186.99249  -4118661.07247  20264334.643    20264340.842
       241.000         208.000
 03  5 12 18 45 30.0000000  0 11G17G30G15G29G18G16G23G21G10G26G 6
  21049349.036    -6399804.74249  -4969434.56947  21049348.329    21049355.197
       239.000         202.000
  23770657.686    13643484.06949  10633107.83045  23770658.546    23770668.268
       216.000         155.000
  23264181.562   -10818835.83749  -8394741.43845  23264179.843    23264189.011
       211.000         152.000
  22655648.877    -7552688.59449  -5870283.12746  22655648.551    22655655.570
       221.000         167.000
  22097347.567   -16010555.74549 -12453380.21746  22097347.754    22097354.321
       232.000         181.000
  23951044.600   -10274386.14549  -7970951.65945  23951043.967    23951050.798
       208.000         137.000
  23191380.375    -9324047.96549  -7243983.57545  23191380.431    23191389.934
       217.000         157.000
  21188426.528    -9084078.18449  -7063045.04847  21188425.708    21188430.938
       239.000         198.000
  23859506.085    13631721.24249  10623641.16545  23859504.529    23859514.040
       211.000         146.000
  21758887.604   -13922210.41549 -10819083.13846  21758887.466    21758894.760
       227.000         178.000
  20266165.713    -5300566.04449  -4111164.23947  20266165.476    20266171.565
       241.000         208.000
 03  5 12 18 46  0.0000000  0 11G17G30G15G29G18G16G23G21G10G26G 6
  21046012.362    -6417339.36549  -4983097.89947  21046011.669    21046018.400
       238.000         202.000
  23789775.091    13743946.47149  10711390.01245  23789776.251    23789785.678
       218.000         155.000
  23251114.849   -10887500.51549  -8448246.29845  23251114.978    23251122.942
       215.000         151.000
  22655823.993    -7551768.53749  -5869566.15146  22655823.120    22655831.607
       218.000         167.000
  22082085.973   -16090756.24249 -12515874.05246  22082085.650    22082092.025
       233.000         182.000
  23941949.189   -10322183.11849  -8008196.01745  23941948.114    23941955.638
       204.000         138.000
  23174735.086    -9411519.67749  -7312143.24545  23174733.796    23174744.324
       217.000         158.000
  21182211.492    -9116738.13449  -7088494.33547  21182210.621    21182215.996
       238.000         198.000
  23879215.742    13735296.67049  10704349.24545  23879214.924    23879223.180
       211.000         145.000
  21750318.418   -13967241.27349 -10854172.04346  21750318.918    21750326.229
       228.000         179.000
  20268088.006    -5290464.47549  -4103292.89847  20268087.475    20268093.958
       241.000         208.000
 03  5 12 18 46 30.0000000  0 11G17G30G15G29G18G16G23G21G10G26G 6
  21042703.454    -6434727.52849  -4996647.10747  21042702.500    21042709.535
       238.000         202.000
  23808896.625    13844429.90049  10789688.60045  23808897.223    23808906.972
       217.000         155.000
  23238064.517   -10956081.89149  -8501686.24745  23238064.443    23238071.907
       216.000         152.000
  22656101.180    -7550310.91849  -5868430.30946  22656101.267    22656107.295
       219.000         166.000
  22066887.879   -16170622.18849 -12578107.17946  22066887.012    22066893.364
       231.000         183.000
  23932946.751   -10369490.69949  -8045059.04345  23932946.756    23932953.369
       206.000         138.000
  23158142.475    -9498714.04149  -7380086.79245  23158141.842    23158150.867
       217.000         158.000
  21176026.822    -9149238.56049  -7113819.32347  21176026.292    21176031.466
       239.000         198.000
  23898940.245    13838949.54449  10785117.65945  23898938.989    23898947.719
       210.000         145.000
  21741853.300   -14011726.12149 -10888835.49746  21741852.898    21741861.118
       227.000         179.000
  20270101.718    -5279882.27749  -4095047.04247  20270101.421    20270107.821
       241.000         208.000
 03  5 12 18 47  0.0000000  0 11G17G30G15G29G18G16G23G21G10G26G 6
  21039422.331    -6451969.75249  -5010082.58747  21039421.691    21039428.646
       239.000         202.000
  23828021.724    13944931.63349  10868001.43745  23828022.813    23828032.180
       218.000         154.000
  23225029.717   -11024580.03449  -8555061.34645  23225028.717    23225038.111
       213.000         153.000
  22656480.884    -7548315.24449  -5866875.21446  22656480.415    22656488.256
       217.000         165.000
  22051753.639   -16250152.28249 -12640078.61946  22051752.619    22051759.752
       232.000         183.000
  23924037.717   -10416307.67649  -8081539.79345  23924037.134    23924045.037
       209.000         138.000
  23141603.009    -9585629.66049  -7447813.14345  23141602.532    23141611.836
       217.000         158.000
  21169872.535    -9181579.80349  -7139020.26947  21169871.853    21169877.281
       240.000         199.000
  23918679.100    13942677.50949  10865944.58645  23918678.823    23918687.789
       211.000         144.000
  21733492.329   -14055662.52149 -10923071.58546  21733491.627    21733499.599
       226.000         178.000
  20272207.061    -5268818.73149  -4086426.10547  20272206.773    20272212.965
       241.000         208.000
 03  5 12 18 47 30.0000000  0 11G17G30G15G29G18G16G23G21G10G26G 6
  21036169.178    -6469065.21449  -5023403.71347  21036168.464    21036175.319
       239.000         202.000
  23847149.715    14045449.14549  10946326.57645  23847150.711    23847160.150
       216.000         152.000
  23212010.549   -11092994.99749  -8608371.64145  23212008.971    23212019.209
       214.000         153.000
  22656963.227    -7545780.74949  -5864900.25546  22656963.111    22656970.343
       217.000         164.000
  22036683.657   -16329345.07849 -12701787.23846  22036683.132    22036689.540
       231.000         183.000
  23915222.495   -10462632.36449  -8117636.90845  23915222.366    23915229.639
       207.000         138.000
  23125116.964    -9672264.70549  -7515320.86445  23125116.945    23125125.677
       218.000         159.000
  21163748.626    -9213761.02049  -7164096.52047  21163747.932    21163753.197
       239.000         199.000
  23938431.756    14046478.39549  10946828.33145  23938431.519    23938439.586
       211.000         145.000
  21725236.301   -14099047.72849 -10956878.17446  21725235.822    21725244.101
       225.000         177.000
  20274404.207    -5257272.80549  -4077429.29147  20274403.952    20274410.226
       241.000         208.000
 03  5 12 18 48  0.0000000  0 11G17G30G15G29G18G16G23G21G10G26G 6
  21032943.835    -6486014.23349  -5036610.72647  21032943.176    21032949.976
       238.000         202.000
  23866280.129    14145979.28449  11024661.54145  23866280.498    23866290.318
       215.000         151.000
  23199007.379   -11161327.02049  -8661617.29945  23199007.421    23199015.042
       216.000         153.000
  22657548.097    -7542707.34249  -5862505.36746  22657547.466    22657554.532
       216.000         163.000
  22021678.152   -16408199.26849 -12763231.99946  22021677.650    22021684.111
       231.000         182.000
  23906500.935   -10508463.75749  -8153349.64445  23906499.695    23906507.421
       207.000         139.000
  23108684.377    -9758617.85949  -7582608.93045  23108683.881    23108693.183
       217.000         159.000
  21157655.028    -9245782.87949  -7189048.59147  21157654.501    21157659.691
       239.000         199.000
  23958197.811    14150349.80749  11027767.05245  23958196.626    23958206.732
       210.000         145.000
  21717085.586   -14141879.45449 -10990253.48446  21717084.855    21717093.207
       226.000         176.000
  20276693.208    -5245244.05649  -4068056.24947  20276692.868    20276699.124
       241.000         208.000
 03  5 12 18 48 30.0000000  0 11G17G30G15G29G18G16G23G21G10G26G 6
  21029746.475    -6502816.27549  -5049703.21147  21029745.560    21029752.750
       239.000         202.000
  23885412.508    14246519.95749  11103004.71545  23885413.073    23885423.922
       213.000         150.000
  23186020.182   -11229575.39049  -8714797.78145  23186019.753    23186027.579
       214.000         153.000
  22658235.710    -7539093.94149  -5859689.71245  22658235.400    22658242.895
       214.000         162.000
  22006737.434   -16486712.94949 -12824411.43846  22006736.983    22006743.498
       232.000         183.000
  23897873.475   -10553800.09849  -8188676.63745  23897873.886    23897879.415
       206.000         139.000
  23092305.783    -9844687.17949  -7649675.81645  23092305.410    23092314.900
       218.000         160.000
  21151591.890    -9277644.81149  -7213876.05447  21151591.228    21151596.317
       239.000         199.000
  23977976.914    14254290.06849  11108759.41645  23977976.003    23977984.778
       212.000         146.000
  21709040.879   -14184154.70449 -11023195.16246  21709040.284    21709048.266
       227.000         177.000
  20279074.343    -5232731.32649  -4058306.08747  20279074.059    20279080.177
       241.000         207.000
 03  5 12 18 49  0.0000000  0 11G17G30G15G29G18G16G23G21G10G26G 6
  21026576.763    -6519473.02149  -5062682.47847  21026576.154    21026583.172
       238.000         202.000
  23904545.971    14347066.81949  11181352.68145  23904545.887    23904556.735
       213.000         150.000
  23173048.378   -11297741.69849  -8767914.31645  23173048.153    23173056.753
       216.000         154.000
  22659025.782    -7534941.54449  -5856454.05545  22659025.293    22659032.225
       214.000         160.000
  21991861.554   -16564886.14949 -12885325.55946  21991860.652    21991866.971
       233.000         184.000
  23889340.557   -10598641.55849  -8223618.01845  23889340.504    23889347.803
       208.000         139.000
  23075981.175    -9930472.66349  -7716521.53645  23075980.031    23075990.186
       218.000         160.000
  21145558.972    -9309347.96849  -7238579.79847  21145558.415    21145563.527
       239.000         199.000
  23997768.409    14358295.19249  11189802.30545  23997767.102    23997777.104
       210.000         146.000
  21701102.205   -14225872.46849 -11055702.44646  21701102.319    21701109.484
       227.000         178.000
  20281547.367    -5219735.51149  -4048179.49047  20281546.867    20281553.333
       241.000         207.000
 03  5 12 18 49 30.0000000  0 11G17G30G15G29G18G16G23G21G10G26G 6
  21023434.914    -6535983.57749  -5075547.83147  21023434.509    21023441.683
       239.000         202.000
  23923680.248    14447617.94749  11259703.95045  23923680.950    23923691.077
       214.000         149.000
  23160092.763   -11365825.03549  -8820966.19445  23160091.962    23160099.657
       216.000         154.000
  22659918.704    -7530248.90349  -5852797.43245  22659918.105    22659926.349
       213.000         158.000
  21977050.816   -16642716.72049 -12945972.69246  21977050.814    21977057.058
       232.000         185.000
  23880902.092   -10642985.93349  -8258172.04345  23880901.406    23880908.534
       208.000         140.000
  23059711.056   -10015971.92949  -7783144.23145  23059709.875    23059720.007
       217.000         159.000
  21139556.424    -9340891.55349  -7263159.19447  21139555.640    21139561.091
       239.000         199.000
  24017572.052    14462364.07349  11270894.89645  24017571.811    24017580.934
       210.000         146.000
  21693270.188   -14267029.60649 -11087772.87046  21693270.481    21693276.669
       228.000         180.000
  20284112.583    -5206254.97049  -4037675.19047  20284112.251    20284118.417
       241.000         207.000
 03  5 12 18 50  0.0000000  0 11G17G30G15G29G18G16G23G21G10G26G 6
  21020321.063    -6552347.39949  -5088298.85047  21020320.595    21020327.377
       239.000         203.000
  23942815.152    14548171.10149  11338056.83545  23942816.013    23942825.549
       215.000         150.000
  23147152.867   -11433824.76349  -8873952.93245  23147152.200    23147160.103
       216.000         155.000
  22660914.680    -7525015.16349  -5848719.16845  22660913.986    22660922.049
       211.000         156.000
  21962305.651   -16720202.87549 -13006351.45346  21962304.593    21962311.035
       232.000         184.000
  23872558.487   -10686831.60049  -8292337.45445  23872558.062    23872566.888
       207.000         141.000
  23043495.735   -10101182.98249  -7849542.33045  23043494.551    23043504.514
       217.000         159.000
  21133584.352    -9372274.72949  -7287613.59547  21133583.684    21133589.154
       239.000         199.000
  24037387.735    14566495.07549  11352035.88145  24037387.673    24037396.196
       212.000         146.000
  21685545.563   -14307623.06349 -11119404.07546  21685545.339    21685552.808
       227.000         180.000
  20286770.336    -5192288.64249  -4026792.34647  20286770.181    20286776.204
       241.000         208.000
 03  5 12 18 50 30.0000000  0 11G17G30G15G29G18G16G23G21G10G26G 6
  21017234.860    -6568565.44949  -5100936.27047  21017233.692    21017240.833
       238.000         202.000
  23961949.776    14648722.69249  11416408.51545  23961950.267    23961960.253
       216.000         151.000
  23134228.475   -11501741.78549  -8926875.23045  23134227.667    23134236.906
       218.000         155.000
  22662013.517    -7519240.85649  -5844219.68745  22662014.194    22662020.576
       211.000         155.000
  21947626.087   -16797344.27749 -13066461.58246  21947625.555    21947632.000
       232.000         184.000
  23864309.811   -10730178.00849  -8326113.86845  23864309.962    23864316.734
       207.000         141.000
  23027335.453   -10186105.27149  -7915715.43445  23027334.748    23027344.419
       218.000         160.000
  21127642.644    -9403498.44049  -7311943.74647  21127641.858    21127647.343
       239.000         199.000
  24057214.490    14670684.94149  11433222.73745  24057213.608    24057222.511
       209.000         146.000
  21677928.358   -14347651.33849 -11150594.88346  21677928.303    21677935.314
       227.000         180.000
  20289520.455    -5177836.79949  -4015531.18347  20289520.088    20289526.227
       241.000         208.000
 03  5 12 18 51  0.0000000  0 11G17G30G15G29G18G16G23G21G10G26G 6
  21014176.415    -6584637.15449  -5113459.65847  21014175.599    21014182.798
       239.000         202.000
  23981083.492    14749270.38749  11494757.11445  23981084.910    23981094.947
       215.000         150.000
  23121320.074   -11569575.86149  -8979732.87145  23121319.623    23121328.936
       219.000         156.000
  22663215.485    -7512925.14749  -5839298.34245  22663215.702    22663223.515
       210.000         153.000
  21933012.544   -16874139.18749 -13126301.71046  21933012.262    21933018.111
       234.000         185.000
  23856156.730   -10773023.79149  -8359500.17745  23856157.646    23856162.662
       210.000         141.000
  23011230.577   -10270736.97449  -7981662.10945  23011229.357    23011238.437
       220.000         160.000
  21121731.423    -9434562.22249  -7336149.26947  21121730.760    21121735.925
       240.000         199.000
  24077052.230    14774932.07249  11514454.21645  24077051.264    24077060.473
       211.000         146.000
  21670419.252   -14387111.93949 -11181343.35046  21670419.011    21670426.652
       227.000         180.000
  20292363.176    -5162898.23749  -4003890.75847  20292362.959    20292368.878
       241.000         208.000
 03  5 12 18 51 30.0000000  0 11G17G30G15G29G18G16G23G21G10G26G 6
  21011145.768    -6600563.47849  -5125869.77647  21011145.327    21011152.113
       238.000         203.000
  24000215.914    14849810.75849  11573100.03145  24000218.295    24000226.816
       214.000         149.000
  23108427.542   -11637327.42549  -9032526.21645  23108426.539    23108434.754
       220.000         157.000
  22664520.371    -7506068.29349  -5833955.31545  22664519.530    22664526.908
       208.000         151.000
  21918465.089   -16950586.92849 -13185871.32546  21918464.593    21918470.664
       233.000         186.000
  23848099.009   -10815368.32049  -8392495.87545  23848097.965    23848104.725
       208.000         142.000
  22995181.194   -10355077.40849  -8047381.83845  22995180.208    22995189.243
       220.000         160.000
  21115850.619    -9465466.38749  -7360230.42947  21115849.941    21115855.043
       239.000         199.000
  24096900.341    14879233.42549  11595727.93945  24096898.724    24096908.088
       208.000         146.000
  21663018.466   -14426002.83549 -11211647.89046  21663018.215    21663025.176
       228.000         180.000
  20295298.492    -5147473.18349  -3991871.25047  20295298.257    20295304.544
       241.000         208.000
 03  5 12 18 52  0.0000000  0 11G17G30G15G29G18G16G23G21G10G26G 6
  21008142.896    -6616343.75549  -5138166.07747  21008142.336    21008148.936
       239.000         202.000
  24019346.404    14950341.43849  11651435.39745  24019347.392    24019357.760
       211.000         145.000
  23095550.595   -11704996.24449  -9085255.11045  23095548.385    23095558.323
       218.000         157.000
  22665928.256    -7498669.76749  -5828190.23745  22665927.505    22665934.940
       209.000         150.000
  21903983.894   -17026685.99949 -13245169.22946  21903982.968    21903989.990
       232.000         186.000
  23840136.490   -10857210.17749  -8425099.90545  23840135.568    23840144.225
       208.000         142.000
  22979187.462   -10439124.70749  -8112873.12445  22979186.520    22979196.050
       220.000         161.000
  21110000.161    -9496210.52249  -7384186.87747  21109999.641    21110005.093
       239.000         200.000
  24116758.308    14983587.32149  11677042.60345  24116756.677    24116765.793
       207.000         144.000
  21655726.732   -14464321.42049 -11241506.48246  21655727.052    21655733.472
       229.000         180.000
  20298326.543    -5131560.63749  -3979471.87847  20298326.191    20298332.644
       241.000         208.000
 03  5 12 18 52 30.0000000  0 11G17G30G15G29G18G16G23G21G10G26G 6
  21005167.899    -6631977.22949  -5150347.99447  21005167.315    21005173.975
       238.000         202.000
  24038474.615    15050860.27149  11729761.52345  24038474.420    24038484.950
       205.000         139.000
  23082689.338   -11772581.54949  -9137918.90545  23082689.177    23082697.955
       220.000         158.000
  22667439.452    -7490728.64849  -5822002.34445  22667439.538    22667445.814
       212.000         150.000
  21889569.303   -17102434.43049 -13304193.92646  21889568.827    21889575.209
       233.000         186.000
  23832270.219   -10898547.63949  -8457310.91345  23832269.913    23832277.668
       205.000         142.000
  22963249.870   -10522876.90749  -8178134.46645  22963248.354    22963258.511
       220.000         162.000
  21104180.227    -9526794.02049  -7408018.16247  21104179.441    21104184.810
       239.000         199.000
  24136625.873    15087992.14149  11758396.96045  24136624.583    24136633.670
       208.000         144.000
  21648544.308   -14502065.05249 -11270917.05146  21648543.935    21648550.785
       229.000         179.000
  20301447.602    -5115159.41149  -3966691.72147  20301447.211    20301453.126
       241.000         208.000
 03  5 12 18 53  0.0000000  0 11G17G30G15G29G18G16G23G21G10G26G 6
  21002220.608    -6647465.09449  -5162416.44547  21002220.116    21002226.959
       239.000         203.000
  24057599.838    15151363.47349  11808075.48545  24057600.280    24057610.048
       205.000         135.000
  23069843.984   -11840084.66249  -9190518.66745  23069842.320    23069851.355
       221.000         159.000
  22669053.838    -7482245.83249  -5815392.37145  22669053.861    22669060.186
       212.000         150.000
  21875221.534   -17177832.14649 -13362945.32846  21875220.760    21875227.320
       234.000         187.000
  23824499.723   -10939380.78249  -8489128.90245  23824499.053    23824506.332
       208.000         142.000
  22947368.499   -10606333.76449  -8243165.68345  22947367.598    22947376.748
       219.000         161.000
  21098390.730    -9557217.90449  -7431725.06947  21098390.268    21098395.465
       240.000         200.000
  24156502.513    15192444.69349  11839788.50545  24156501.422    24156511.114
       207.000         145.000
  21641471.547   -14539232.32349 -11299878.51146  21641471.381    21641477.765
       229.000         179.000
  20304661.490    -5098270.28249  -3953531.37547  20304661.166    20304667.436
       241.000         208.000
 03  5 12 18 53 30.0000000  0 11G17G30G15G29G18G16G23G21G10G26G 6
  20999301.291    -6662806.14449  -5174370.49847  20999300.497    20999307.287
       238.000         202.000
  24076721.866    15251849.40049  11886375.97445  24076723.381    24076732.996
       204.000         133.000
  23057014.485   -11907504.13449  -9243053.24945  23057012.942    23057022.233
       220.000         159.000
  22670771.302    -7473219.90749  -5808359.17945  22670770.202    22670777.692
       212.000         152.000
  21860940.975   -17252876.56249 -13421421.44546  21860940.236    21860946.558
       233.000         187.000
  23816825.543   -10979707.19149  -8520552.05345  23816824.755    23816833.315
       207.000         141.000
  22931543.764   -10689492.71249  -8307964.75645  22931542.933    22931552.083
       221.000         160.000
  21092632.009    -9587480.75449  -7455306.49347  21092631.075    21092636.637
       240.000         200.000
  24176387.992    15296944.19249  11921216.61445  24176387.555    24176397.303
       205.000         144.000
  21634509.137   -14575819.92149 -11328388.28246  21634508.701    21634516.094
       229.000         179.000
  20307968.638    -5080891.28449  -3939989.31547  20307968.416    20307974.722
       241.000         208.000
 03  5 12 18 54  0.0000000  0 11G17G30G15G29G18G16G23G21G10G26G 6
  20996409.857    -6678000.70149  -5186210.40347  20996409.508    20996415.972
       239.000         202.000
  24095839.929    15352315.37649  11964660.86945  24095839.797    24095851.391
       203.000         133.000
  23044200.824   -11974840.07549  -9295522.75445  23044199.992    23044208.403
       220.000         160.000
  22672591.978    -7463650.80149  -5800902.74145  22672592.341    22672598.271
       217.000         154.000
  21846727.865   -17327566.84849 -13479621.61146  21846726.686    21846733.819
       233.000         187.000
  23809248.559   -11019525.75749  -8551579.49545  23809248.940    23809256.565
       210.000         143.000
  22915776.091   -10772352.55549  -8372530.77145  22915775.799    22915784.517
       222.000         162.000
  21086903.772    -9617582.61949  -7478762.48447  21086903.151    21086907.986
       239.000         200.000
  24196282.118    15401488.22849  12002679.45145  24196282.412    24196289.810
       210.000         144.000
  21627657.456   -14611825.72649 -11356444.71946  21627657.364    21627664.380
       229.000         180.000
  20311369.025    -5063022.16449  -3926065.34947  20311368.692    20311374.939
       241.000         208.000
 03  5 12 18 54 30.0000000  0 11G17G30G15G29G18G16G23G21G10G26G 6
  20993546.088    -6693050.43549  -5197937.46447  20993545.411    20993552.325
       239.000         202.000
  24114953.305    15452756.83649  12042926.67645  24114953.635    24114964.634
       208.000         138.000
  23031402.747   -12042094.06449  -9347928.40045  23031402.242    23031410.128
       220.000         160.000
  22674516.136    -7453539.86949  -5793024.10345  22674516.019    22674522.068
       219.000         156.000
  21832582.026   -17401903.19949 -13537545.97246  21832581.189    21832587.894
       233.000         187.000
  23801768.090   -11058837.27049  -8582211.84245  23801767.649    23801774.081
       210.000         144.000
  22900065.317   -10854913.51549  -8436863.88546  22900064.125    22900073.393
       220.000         163.000
  21081205.951    -9647524.89549  -7502094.11247  21081205.445    21081210.411
       240.000         200.000
  24216183.957    15506072.79549  12084173.85845  24216184.045    24216192.076
       208.000         144.000
  21620916.569   -14647249.27349 -11384047.46046  21620916.651    21620923.624
       229.000         181.000
  20314862.472    -5044664.13849  -3911760.41647  20314862.383    20314868.180
       241.000         207.000
 03  5 12 18 55  0.0000000  0 11G17G30G15G29G18G16G23G21G10G26G 6
  20990709.959    -6707954.39549  -5209550.93447  20990709.104    20990716.315
       238.000         203.000
  24134061.931    15553171.96149  12121171.97545  24134063.456    24134073.585
       211.000         143.000
  23018620.475   -12109265.45549  -9400269.67045  23018619.451    23018627.607
       221.000         160.000
  22676543.495    -7442886.39949  -5784722.72445  22676543.246    22676550.740
       221.000         159.000
  21818503.936   -17475883.76749 -13595193.11446  21818503.205    21818508.831
       234.000         187.000
  23794384.127   -11097640.19449  -8612447.87645  23794383.581    23794389.129
       208.000         144.000
  22884411.739   -10937173.49149  -8500962.46846  22884410.312    22884419.940
       219.000         163.000
  21075538.647    -9677306.66749  -7525300.67747  21075537.869    21075543.330
       239.000         200.000
  24236093.238    15610696.61749  12165698.83445  24236093.052    24236100.564
       207.000         144.000
  21614286.937   -14682087.66649 -11411194.22746  21614286.980    21614294.374
       230.000         182.000
  20318449.177    -5025816.01049  -3897073.58647  20318449.010    20318455.165
       241.000         207.000
 03  5 12 18 55 30.0000000  0 11G17G30G15G29G18G16G23G21G10G26G 6
  20987901.492    -6722712.69349  -5221050.89747  20987900.529    20987907.680
       238.000         203.000
  24153165.018    15653557.65149  12199394.35045  24153166.081    24153178.012
       213.000         148.000
  23005853.769   -12176354.52649  -9452546.79845  23005851.650    23005860.802
       219.000         161.000
  22678674.055    -7431690.50749  -5775998.67145  22678674.380    22678680.552
       222.000         162.000
  21804493.819   -17549507.59149 -13652562.27946  21804493.303    21804499.298
       234.000         187.000
  23787097.177   -11135933.47849  -8642286.77845  23787095.746    23787103.484
       208.000         143.000
  22868815.393   -11019131.65749  -8564825.86945  22868813.880    22868823.562
       219.000         162.000
  21069901.803    -9706928.38649  -7548382.52147  21069901.081    21069906.314
       240.000         200.000
  24256009.811    15715357.42049  12247252.64045  24256009.014    24256018.334
       208.000         143.000
  21607769.091   -14716338.97649 -11437883.52846  21607769.223    21607775.900
       230.000         182.000
  20322129.216    -5006477.60349  -3882004.71447  20322128.903    20322134.950
       241.000         207.000
 03  5 12 18 56  0.0000000  0 11G17G30G15G29G18G16G23G21G10G26G 6
  20985120.871    -6737324.78349  -5232436.93647  20985120.284    20985127.144
       239.000         202.000
  24172262.082    15753911.84749  12277592.15245  24172262.951    24172274.178
       212.000         150.000
  22993102.838   -12243360.86449  -9504759.45945  22993102.316    22993111.106
       221.000         161.000
  22680907.987    -7419951.55049  -5766851.45146  22680907.325    22680914.487
       223.000         165.000
  21790551.812   -17622773.10649 -13709652.22647  21790551.245    21790557.836
       233.000         188.000
  23779907.435   -11173715.94149  -8671727.64845  23779907.113    23779915.601
       209.000         144.000
  22853276.898   -11100785.99149  -8628452.53045  22853275.846    22853285.275
       218.000         162.000
  21064295.575    -9736389.25849  -7571339.03047  21064295.112    21064300.064
       240.000         200.000
  24275933.148    15820053.77149  12328834.12845  24275932.052    24275940.346
       207.000         141.000
  21601363.405   -14750000.70149 -11464113.42146  21601363.707    21601370.340
       230.000         182.000
  20325902.687    -4986648.00749  -3866553.10547  20325902.301    20325908.558
       241.000         207.000
 03  5 12 18 56 30.0000000  0 11G17G30G15G29G18G16G23G21G10G26G 6
  20982368.088    -6751790.86649  -5243709.20647  20982367.469    20982374.757
       239.000         203.000
  24191352.492    15854231.49249  12355763.02345  24191353.405    24191364.600
       214.000         152.000
  22980367.650   -12310284.66949  -9556907.82745  22980366.713    22980375.187
       221.000         162.000
  22683245.084    -7407669.69149  -5757281.19246  22683244.896    22683251.378
       225.000         168.000
  21776678.137   -17695679.51949 -13766462.35747  21776677.300    21776683.857
       233.000         188.000
  23772815.008   -11210986.88749  -8700769.94145  23772813.514    23772821.901
       208.000         145.000
  22837796.371   -11182135.58349  -8691841.73445  22837794.084    22837804.246
       218.000         162.000
  21058719.985    -9765689.13049  -7594170.08547  21058719.212    21058724.599
       239.000         200.000
  24295862.878    15924783.09249  12410441.33445  24295861.925    24295870.704
       209.000         139.000
  21595070.378   -14783071.11049 -11489882.54546  21595070.284    21595077.861
       230.000         181.000
  20329769.659    -4966327.14949  -3850718.68847  20329769.354    20329775.525
       242.000         207.000
 03  5 12 18 57  0.0000000  0 11G17G30G15G29G18G16G23G21G10G26G 6
  20979643.230    -6766110.32449  -5254867.22947  20979642.686    20979649.781
       239.000         203.000
  24210435.940    15954514.36549  12433905.25245  24210437.683    24210448.256
       215.000         153.000
  22967648.146   -12377125.46049  -9608991.50145  22967646.099    22967654.792
       220.000         162.000
  22685685.516    -7394844.67049  -5747287.69646  22685685.627    22685692.961
       226.000         171.000
  21762873.105   -17768225.12349 -13822991.34847  21762872.637    21762878.377
       234.000         188.000
  23765820.025   -11247744.99449  -8729412.62845  23765819.266    23765826.142
       208.000         145.000
  22822374.356   -11263178.70349  -8754992.12246  22822374.169    22822382.791
       220.000         163.000
  21053175.080    -9794827.70449  -7616875.45947  21053174.521    21053179.543
       240.000         200.000
  24315798.447    16029543.53749  12492072.77945  24315796.444    24315806.288
       205.000         139.000
  21588890.388   -14815547.76049 -11515189.02346  21588890.572    21588897.499
       228.000         180.000
  20333730.258    -4945514.25749  -3834500.87647  20333729.912    20333736.336
       241.000         207.000
 03  5 12 18 57 30.0000000  0 11G17G30G15G29G18G16G23G21G10G26G 6
  20976946.123    -6780283.67149  -5265911.39547  20976945.423    20976952.232
       238.000         203.000
  24229511.799    16054757.25749  12512016.31945  24229513.027    24229522.944
       214.000         154.000
  22954944.610   -12443883.46949  -9661010.66345  22954943.743    22954952.197
       220.000         162.000
  22688229.330    -7381476.69549  -5736871.10746  22688229.156    22688236.589
       228.000         173.000
  21749136.814   -17840409.32649 -13879238.72847  21749135.817    21749142.439
       235.000         188.000
  23758922.846   -11283989.52149  -8757655.10245  23758922.360    23758928.994
       210.000         144.000
  22807010.857   -11343914.62949  -8817903.14246  22807009.956    22807018.712
       221.000         165.000
  21047660.905    -9823805.26349  -7639455.36347  21047660.258    21047665.495
       239.000         200.000
  24335739.196    16134332.85949  12573726.72245  24335737.470    24335745.890
       204.000         137.000
  21582823.615   -14847428.89049 -11540031.44746  21582823.582    21582829.801
       228.000         179.000
  20337784.405    -4924209.33349  -3817899.66547  20337784.155    20337790.376
       241.000         207.000
 03  5 12 18 58  0.0000000  0 11G17G30G15G29G18G16G23G21G10G26G 6
  20974276.841    -6794310.60049  -5276841.47047  20974276.281    20974283.095
       238.000         202.000
  24248579.607    16154957.68249  12590094.31045  24248579.798    24248590.937
       214.000         154.000
  22942256.664   -12510558.70149  -9712965.34145  22942255.027    22942264.098
       220.000         162.000
  22690876.636    -7367565.81149  -5726031.47846  22690876.743    22690883.960
       229.000         175.000
  21735469.613   -17912230.74749 -13935203.42147  21735469.208    21735475.505
       235.000         188.000
  23752123.726   -11319719.60149  -8785496.72545  23752123.547    23752132.093
       210.000         145.000
  22791706.091   -11424341.98149  -8880573.72046  22791705.041    22791714.170
       220.000         165.000
  21042177.348    -9852621.51949  -7661909.57247  21042176.454    21042181.615
       239.000         200.000
  24355685.056    16239148.82649  12655401.44945  24355683.171    24355694.267
       205.000         136.000
  21576870.414   -14878712.57649 -11564408.32546  21576870.483    21576877.415
       229.000         179.000
  20341932.321    -4902411.90649  -3800914.68747  20341931.934    20341938.213
       241.000         207.000
 03  5 12 18 58 30.0000000  0 11G17G30G15G29G18G16G23G21G10G26G 6
  20971635.314    -6808191.77349  -5287657.96947  20971634.779    20971641.819
       238.000         203.000
  24267638.692    16255112.78049  12668136.97845  24267639.313    24267651.001
       215.000         152.000
  22929584.456   -12577151.17449  -9764855.53545  22929583.280    22929591.707
       219.000         162.000
  22693627.178    -7353112.14149  -5714768.90146  22693627.129    22693634.644
       226.000         177.000
  21721871.673   -17983688.77049 -13990884.95047  21721871.281    21721877.406
       235.000         189.000
  23745422.643   -11354934.61249  -8812936.98045  23745422.496    23745430.011
       210.000         145.000
  22776460.161   -11504459.66349  -8943003.00246  22776460.025    22776468.087
       221.000         164.000
  21036724.402    -9881276.60649  -7684238.20447  21036723.589    21036728.870
       239.000         200.000
  24375635.492    16343989.37249  12737095.32545  24375633.550    24375644.189
       206.000         138.000
  21571031.338   -14909396.84049 -11588318.12346  21571031.576    21571039.233
       230.000         181.000
  20346174.016    -4880121.87049  -3783545.85847  20346173.817    20346180.136
       241.000         207.000
 03  5 12 18 59  0.0000000  0 11G17G30G15G29G18G16G23G21G10G26G 6
  20969021.771    -6821926.22949  -5298360.14347  20969021.039    20969027.969
       238.000         203.000
  24286688.712    16355220.48249  12746142.70345  24286690.074    24286700.152
       214.000         151.000
  22916928.155   -12643660.38049  -9816680.81745  22916926.942    22916934.876
       220.000         162.000
  22696480.966    -7338115.14849  -5703082.94946  22696480.194    22696488.659
       227.000         178.000
  21708343.096   -18054781.71249 -14046281.99147  21708342.337    21708348.877
       236.000         189.000
  23738819.675   -11389633.21349  -8839974.84345  23738818.218    23738826.150
       208.000         145.000
  22761273.442   -11584265.93049  -9005189.62346  22761272.749    22761281.002
       221.000         164.000
  21031302.334    -9909769.72949  -7706440.62147  21031301.483    21031307.047
       239.000         200.000
  24395589.949    16448853.09249  12818807.23345  24395589.325    24395597.296
       205.000         138.000
  21565306.849   -14939479.47549 -11611759.12846  21565307.248    21565313.640
       232.000         183.000
  20350509.615    -4857338.28149  -3765792.43847  20350509.475    20350515.679
       241.000         207.000
 03  5 12 18 59 30.0000000  0 11G17G30G15G29G18G16G23G21G10G26G 6
  20966436.154    -6835513.65349  -5308947.74747  20966435.599    20966442.239
       238.000         202.000
  24305729.258    16455277.81849  12824109.18945  24305729.114    24305740.891
       210.000         149.000
  22904287.706   -12710086.45049  -9868441.35545  22904287.572    22904295.304
       220.000         162.000
  22699437.980    -7322575.35249  -5690974.02646  22699437.556    22699444.762
       225.000         178.000
  21694884.167   -18125508.55249 -14101393.76747  21694883.635    21694889.239
       236.000         189.000
  23732315.075   -11423814.75749  -8866609.81345  23732315.330    23732321.366
       211.000         146.000
  22746146.246   -11663759.66049  -9067132.70446  22746145.611    22746154.316
       221.000         164.000
  21025911.090    -9938100.73349  -7728516.71447  21025910.825    21025915.522
       240.000         201.000
  24415548.638    16553737.79249  12900535.54145  24415547.318    24415556.455
       209.000         136.000
  21559697.194   -14968958.67149 -11634729.92146  21559697.562    21559704.444
       232.000         184.000
  20354939.139    -4834061.11349  -3747654.41447  20354938.909    20354945.036
       241.000         207.000
 03  5 12 19  0  0.0000000  0 11G17G30G15G29G18G16G23G21G10G26G 6
  20963878.396    -6848955.02149  -5319421.53347  20963877.709    20963884.567
       239.000         203.000
  24324759.547    16555281.69049  12902034.01345  24324760.419    24324771.460
       208.000         146.000
  22891662.947   -12776430.05849  -9920137.61745  22891662.142    22891670.464
       220.000         162.000
  22702498.236    -7306493.42149  -5678442.66346  22702497.868    22702505.033
       226.000         178.000
  21681495.120   -18195868.86849 -14156219.95347  21681494.124    21681500.275
       235.000         190.000
  23725909.258   -11457478.99749  -8892841.66445  23725909.155    23725916.076
       209.000         147.000
  22731078.536   -11742940.48049  -9128831.95446  22731077.712    22731087.434
       220.000         165.000
  21020550.651    -9966270.05749  -7750466.82447  21020550.026    21020555.013
       239.000         201.000
  24435511.049    16658640.53849  12982277.88445  24435510.918    24435521.159
       209.000         137.000
  21554202.498   -14997833.14849 -11657229.50146  21554202.336    21554209.353
       232.000         185.000
  20359462.531    -4810290.77449  -3729132.10147  20359462.328    20359468.385
       241.000         207.000
 03  5 12 19  0 30.0000000  0 11G17G30G15G29G18G16G23G21G10G26G 6
  20961348.459    -6862249.87449  -5329781.15247  20961347.761    20961354.798
       238.000         203.000
  24343779.202    16655229.67349  12979915.26345  24343780.362    24343792.732
       206.000         143.000
  22879053.861   -12842690.97249  -9971769.44245  22879051.852    22879061.498
       220.000         162.000
  22705661.939    -7289868.92949  -5665488.52746  22705662.087    22705668.615
       224.000         177.000
  21668175.887   -18265861.38049 -14210759.52447  21668175.424    21668181.419
       236.000         190.000
  23719601.739   -11490624.86649  -8918669.60645  23719600.232    23719608.432
       208.000         147.000
  22716070.636   -11821806.76349  -9190286.10446  22716069.682    22716078.867
       222.000         166.000
  21015221.010    -9994277.47649  -7772290.77347  21015220.256    21015225.461
       239.000         201.000
  24455476.796    16763559.85349  13064033.16145  24455475.836    24455484.871
       212.000         137.000
  21548823.337   -15026100.74749 -11679256.18846  21548823.490    21548830.302
       230.000         184.000
  20364079.856    -4786026.71749  -3710225.06547  20364079.701    20364085.393
       241.000         206.000
 03  5 12 19  1  0.0000000  0 11G17G30G15G29G18G16G23G21G10G26G 6
  20958846.305    -6875398.42649  -5340026.77347  20958845.633    20958852.677
       239.000         203.000
  24362787.701    16755118.64849  13057750.56745  24362787.593    24362800.000
       204.000         139.000
  22866460.430   -12908869.38749 -10023336.99346  22866459.280    22866467.642
       220.000         163.000
  22708928.557    -7272702.81349  -5652112.34546  22708928.356    22708934.846
       221.000         175.000
  21654926.827   -18335485.86149 -14265012.32147  21654926.217    21654932.311
       237.000         190.000
  23713392.629   -11523252.43049  -8944093.68345  23713392.700    23713399.791
       208.000         147.000
  22701122.832   -11900357.95549  -9251494.73946  22701122.510    22701130.725
       222.000         167.000
  21009922.113   -10022123.27349  -7793988.77247  21009921.634    21009926.870
       240.000         201.000
  24475445.329    16868493.16949  13145799.34545  24475444.292    24475453.512
       211.000         137.000
  21543559.987   -15053760.24649 -11700809.04346  21543559.914    21543566.562
       229.000         183.000
  20368791.120    -4761269.30849  -3690933.59347  20368790.820    20368796.941
       241.000         206.000
 03  5 12 19  1 30.0000000  0 11G17G30G15G29G18G16G23G21G10G26G 6
  20956372.290    -6888399.88949  -5350157.76347  20956371.686    20956378.566
       239.000         203.000
  24381784.507    16854946.81349  13135538.45145  24381785.831    24381798.089
       202.000         134.000
  22853883.026   -12974964.31549 -10074839.46245  22853881.817    22853890.107
       221.000         162.000
  22712298.397    -7254994.12249  -5638313.36546  22712297.963    22712305.097
       220.000         173.000
  21641748.220   -18404739.96649 -14318976.50347  21641747.340    21641753.624
       237.000         191.000
  23707282.727   -11555359.65749  -8969112.26445  23707282.240    23707289.946
       211.000         147.000
  22686235.191   -11978591.91549  -9312456.17046  22686233.437    22686243.908
       220.000         167.000
  21004654.207   -10049806.11849  -7815559.80447  21004653.501    21004658.598
       239.000         201.000
  24495416.134    16973439.32449  13227575.49545  24495415.357    24495423.985
       212.000         139.000
  21538412.696   -15080808.94549 -11721885.93246  21538411.938    21538420.210
       228.000         182.000
  20373596.383    -4736017.39949  -3671256.80647  20373595.923    20373602.229
       242.000         206.000
 03  5 12 19  2  0.0000000  0 11G17G30G15G29G18G16G23G21G10G26G 6
  20953926.221    -6901254.27249  -5360174.15447  20953925.349    20953932.626
       238.000         203.000
  24400769.135    16954711.27449  13213276.70244  24400768.959    24400779.716
       199.000         129.000
  22841321.281   -13040976.05949 -10126277.13146  22841319.554    22841328.112
       220.000         163.000
  22715771.247    -7236743.55249  -5624092.12646  22715771.089    22715778.626
       216.000         171.000
  21628640.177   -18473622.91549 -14372651.48947  21628639.484    21628645.767
       237.000         191.000
  23701271.957   -11586946.40049  -8993725.31945  23701272.031    23701278.576
       210.000         148.000
  22671408.113   -12056507.80749  -9373169.76346  22671406.572    22671416.398
       222.000         167.000
  20999417.308   -10077326.14149  -7837003.96147  20999416.786    20999421.754
       241.000         201.000
  24515388.929    17078396.23349  13309360.07445  24515387.740    24515395.854
       210.000         138.000
  21533382.118   -15107245.21149 -11742485.60346  21533381.870    21533389.206
       228.000         181.000
  20378495.746    -4710271.05549  -3651194.74347  20378495.611    20378501.617
       243.000         206.000
 03  5 12 19  2 30.0000000  0 11G17G30G15G29G18G16G23G21G10G26G 6
  20951507.895    -6913962.42549  -5370076.60447  20951507.253    20951514.321
       239.000         203.000
  24419740.962    17054408.43149  13290962.52144  24419742.434    24419755.124
       199.000         125.000
  22828775.078   -13106905.82249 -10177650.91846  22828774.438    22828781.855
       221.000         163.000
  22719347.076    -7217952.32049  -5609449.60346  22719346.833    22719354.105
       215.000         169.000
  21615602.751   -18542134.96549 -14426037.46247  21615602.350    21615608.504
       236.000         192.000
  23695360.285   -11618012.90849  -9017932.98945  23695359.794    23695367.481
       211.000         148.000
  22656641.781   -12134105.57449  -9433635.48346  22656640.174    22656649.552
       222.000         167.000
  20994211.253   -10104684.21449  -7858321.92447  20994210.501    20994215.534
       239.000         201.000
  24535363.131    17183360.65149  13391150.48945  24535360.304    24535371.052
       210.000         139.000
  21528468.202   -15133068.39249 -11762607.54746  21528468.391    21528475.439
       228.000         180.000
  20383489.059    -4684031.19249  -3630748.11447  20383488.804    20383495.124
       242.000         206.000
 03  5 12 19  3  0.0000000  0 11G17G30G15G29G18G16G23G21G10G26G 6
  20949117.674    -6926523.19649  -5379864.20547  20949116.918    20949123.923
       239.000         203.000
  24438699.714    17154036.65749  13368594.62244  24438701.939    24438710.974
       201.000         123.000
  22816244.994   -13172752.32349 -10228959.81546  22816243.593    22816252.449
       220.000         163.000
  22723025.840    -7198619.64249  -5594385.16046  22723025.587    22723033.591
       215.000         167.000
  21602636.293   -18610274.07149 -14479132.82047  21602635.637    21602641.584
       236.000         192.000
  23689548.139   -11648557.29249  -9041733.79345  23689548.707    23689555.932
       213.000         150.000
  22641936.273   -12211382.98249  -9493851.54646  22641935.264    22641943.924
       222.000         166.000
  20989036.170   -10131879.26449  -7879512.85847  20989035.513    20989040.782
       240.000         201.000
  24555338.318    17288331.76249  13472946.12245  24555336.764    24555345.234
       208.000         141.000
  21523671.264   -15158275.88349 -11782249.72546  21523671.023    21523678.508
       229.000         180.000
  20388576.479    -4657296.55649  -3609915.95447  20388576.222    20388582.351
       242.000         206.000
 03  5 12 19  3 30.0000000  0 11G17G30G15G29G18G16G23G21G10G26G 6
  20946755.468    -6938936.49849  -5389536.89947  20946754.644    20946761.735
       238.000         203.000
  24457645.108    17253593.25249  13446170.94444  24457645.314    24457656.862
       207.000         128.000
  22803730.463   -13238515.21749 -10280203.57646  22803729.237    22803737.022
       220.000         163.000
  22726807.879    -7178745.87049  -5578899.10846  22726807.858    22726814.470
       217.000         165.000
  21589741.010   -18678039.42149 -14531936.95047  21589740.244    21589746.491
       235.000         192.000
  23683835.148   -11678579.39349  -9065127.63045  23683834.093    23683842.998
       210.000         149.000
  22627291.993   -12288338.98249  -9553817.16246  22627291.902    22627300.890
       223.000         167.000
  20983892.266   -10158910.77149  -7900576.35347  20983891.704    20983896.546
       240.000         201.000
  24575314.217    17393307.53849  13554745.35745  24575313.764    24575322.950
       209.000         141.000
  21518991.857   -15182866.03549 -11801410.86146  21518992.102    21518999.033
       230.000         181.000
  20393758.039    -4630067.14749  -3588698.25747  20393757.865    20393763.989
       242.000         206.000
 03  5 12 19  4  0.0000000  0 11G17G30G15G29G18G16G23G21G10G26G 6
  20944421.349    -6951202.46949  -5399094.78847  20944420.609    20944427.505
       238.000         203.000
  24476576.252    17353075.65049  13523689.44844  24476577.508    24476588.677
       210.000         131.000
  22791232.125   -13304194.78549 -10331382.39146  22791231.249    22791239.487
       220.000         163.000
  22730692.774    -7158331.39749  -5562991.73146  22730693.079    22730700.080
       216.000         164.000
  21576916.948   -18745430.04349 -14584449.08147  21576916.112    21576922.453
       236.000         192.000
  23678221.518   -11708078.34149  -9088113.83845  23678220.479    23678228.117
       211.000         149.000
  22612709.098   -12364972.57649  -9613531.55746  22612708.198    22612717.380
       223.000         169.000
  20978779.430   -10185778.77549  -7921512.44247  20978778.804    20978783.829
       239.000         201.000
  24595290.735    17498285.86149  13636546.61345  24595290.015    24595299.309
       210.000         143.000
  21514430.291   -15206837.45249 -11820089.85946  21514430.370    21514437.215
       231.000         182.000
  20399033.806    -4602343.14549  -3567095.15947  20399033.763    20399039.785
       242.000         206.000
 03  5 12 19  4 30.0000000  0 11G17G30G15G29G18G16G23G21G10G26G 6
  20942115.279    -6963320.84849  -5408537.67147  20942114.636    20942121.483
       239.000         203.000
  24495492.718    17452481.20649  13601148.02845  24495494.052    24495504.637
       211.000         133.000
  22778749.459   -13369790.92349 -10382496.20946  22778749.180    22778756.843
       222.000         163.000
  22734680.252    -7137376.24449  -5546663.04046  22734679.629    22734688.205
       219.000         165.000
  21564164.465   -18812444.49449 -14636668.09747  21564163.570    21564169.592
       236.000         192.000
  23672707.871   -11737053.48049  -9110691.86945  23672707.656    23672715.058
       210.000         149.000
  22598187.758   -12441282.45049  -9672993.69246  22598186.761    22598195.498
       224.000         169.000
  20973697.839   -10212482.83449  -7942320.78547  20973697.082    20973702.360
       240.000         201.000
  24615267.369    17603265.26649  13718348.71145  24615267.645    24615274.269
       205.000         141.000
  21509986.872   -15230188.05549 -11838285.11146  21509986.636    21509993.699
       231.000         184.000
  20404403.752    -4574124.18849  -3545106.38047  20404403.316    20404409.869
       242.000         206.000
 03  5 12 19  5  0.0000000  0 11G17G30G15G29G18G16G23G21G10G26G 6
  20939837.405    -6975291.39449  -5417865.36647  20939836.573    20939843.800
       238.000         203.000
  24514394.106    17551807.40749  13678544.81545  24514394.738    24514406.746
       212.000         136.000
  22766282.987   -13435303.77849 -10433545.13546  22766282.251    22766290.988
       221.000         164.000
  22738770.629    -7115881.14549  -5529913.62346  22738770.207    22738778.218
       219.000         165.000
  21551483.602   -18879082.47849 -14688593.76547  21551482.859    21551488.892
       235.000         192.000
  23667293.598   -11765504.57149  -9132861.54145  23667292.864    23667301.511
       211.000         149.000
  22583728.197   -12517267.91349  -9732203.05646  22583727.471    22583736.208
       223.000         169.000
  20968647.365   -10239023.14549  -7963001.53347  20968646.838    20968651.776
       239.000         201.000
  24635243.824    17708243.33049  13800149.75945  24635243.086    24635253.254
       204.000         138.000
  21505661.719   -15252916.66649 -11855995.69446  21505661.530    21505668.843
       231.000         185.000
  20409867.786    -4545410.36949  -3522731.99647  20409867.483    20409873.648
       241.000         206.000
 03  5 12 19  5 30.0000000  0 11G17G30G15G29G18G16G23G21G10G26G 6
  20937587.638    -6987114.03549  -5427077.80047  20937587.080    20937593.727
       238.000         203.000
  24533279.883    17651051.66649  13755877.75345  24533279.954    24533292.695
       210.000         137.000
  22753831.976   -13500732.92149 -10484528.80946  22753830.671    22753839.463
       219.000         164.000
  22742963.633    -7093846.29249  -5512743.62646  22742963.614    22742970.127
       222.000         165.000
  21538874.560   -18945343.04949 -14740225.33147  21538874.188    21538880.088
       236.000         193.000
  23661979.265   -11793430.95849  -9154622.37845  23661978.713    23661985.603
       214.000         150.000
  22569330.522   -12592927.75749  -9791158.67346  22569330.028    22569337.985
       223.000         169.000
  20963628.155   -10265399.19549  -7983554.28647  20963627.263    20963632.433
       239.000         201.000
  24655219.584    17813218.30849  13881948.37445  24655219.876    24655227.123
       199.000         135.000
  21501455.322   -15275021.43649 -11873220.17546  21501455.622    21501462.277
       231.000         185.000
  20415426.056    -4516201.42849  -3499971.80147  20415425.785    20415431.992
       241.000         205.000
 03  5 12 19  6  0.0000000  0 11G17G30G15G29G18G16G23G21G10G26G 6
  20935365.979    -6998788.83549  -5436175.03847  20935365.138    20935372.133
       238.000         203.000
  24552149.465    17750211.19449  13833144.63945  24552150.150    24552162.548
       207.000         138.000
  22741396.903   -13566078.69249 -10535447.53646  22741396.269    22741403.191
       221.000         164.000
  22747259.354    -7071272.38849  -5495153.58646  22747259.700    22747265.644
       223.000         165.000
  21526337.580   -19011225.66149 -14791562.39047  21526337.137    21526342.551
       236.000         193.000
  23656765.134   -11820832.46349  -9175974.20745  23656765.502    23656772.127
       215.000         151.000
  22554994.961   -12668261.30649  -9849860.04746  22554993.653    22555002.817
       222.000         169.000
  20958640.120   -10291611.25949  -8003979.25447  20958639.706    20958644.940
       239.000         201.000
  24675194.451    17918188.06149  13963742.92345  24675194.418    24675204.123
       199.000         132.000
  21497367.823   -15296501.30949 -11889957.72146  21497367.742    21497375.083
       229.000         185.000
  20421078.459    -4486497.76049  -3476826.10647  20421077.982    20421084.376
       241.000         205.000
 03  5 12 19  6 30.0000000  0 11G17G30G15G29G18G16G23G21G10G26G 6
  20933172.448    -7010315.90549  -5445157.16647  20933171.677    20933178.755
       238.000         203.000
  24571002.358    17849283.04649  13910343.18445  24571003.348    24571014.307
       209.000         138.000
  22728977.946   -13631341.11449 -10586301.31646  22728977.276    22728984.899
       221.000         164.000
  22751657.561    -7048160.12549  -5477144.04746  22751657.865    22751664.083
       223.000         165.000
  21513872.528   -19076729.72749 -14842604.48147  21513871.587    21513877.930
       236.000         193.000
  23651650.946   -11847708.71849  -9196916.75245  23651650.353    23651657.770
       213.000         151.000
  22540721.647   -12743267.65249  -9908306.45046  22540720.384    22540729.096
       223.000         169.000
  20953683.381   -10317658.89449  -8024276.10247  20953682.697    20953687.963
       239.000         201.000
  24695168.304    18023150.53849  14045531.83045  24695168.331    24695178.549
       203.000         132.000
  21493399.506   -15317354.89049 -11906207.25446  21493399.719    21493406.664
       229.000         185.000
  20426824.994    -4456299.44849  -3453294.98347  20426824.823    20426830.988
       241.000         205.000
 03  5 12 19  7  0.0000000  0 11G17G30G15G29G18G16G23G21G10G26G 6
  20931007.058    -7021695.06649  -5454024.04447  20931006.426    20931013.471
       238.000         203.000
  24589838.320    17948264.86249  13987471.60045  24589839.908    24589849.960
       210.000         138.000
  22716574.705   -13696520.38149 -10637090.31146  22716573.663    22716582.698
       220.000         164.000
  22756158.127    -7024509.85649  -5458715.29346  22756158.589    22756166.219
       223.000         166.000
  21501479.676   -19141854.28049 -14893350.85047  21501479.246    21501485.437
       236.000         193.000
  23646636.530   -11874059.22249  -9217449.62645  23646635.995    23646643.818
       211.000         151.000
  22526510.771   -12817945.85849  -9966497.18046  22526510.551    22526519.153
       224.000         170.000
  20948757.936   -10343542.23949  -8044444.93347  20948757.497    20948762.329
       240.000         201.000
  24715140.360    18128103.66849  14127313.42644  24715139.485    24715149.695
       199.000         131.000
  21489550.600   -15337580.78749 -11921967.69246  21489550.444    21489557.629
       227.000         184.000
  20432665.633    -4425606.62449  -3429378.52547  20432665.530    20432671.511
       241.000         205.000
 03  5 12 19  7 30.0000000  0 10G17G30G15G29G18G16G23G21G26G 6
  20928870.108    -7032924.76049  -5462774.44747  20928869.475    20928876.196
       238.000         203.000
  24608656.838    18047155.03049  14064528.60745  24608660.249    24608669.186
       207.000         138.000
  22704187.312   -13761615.53449 -10687813.74346  22704186.179    22704194.284
       221.000         165.000
  22760761.006    -7000321.17549  -5439866.98846  22760760.733    22760767.120
       223.000         166.000
  21489159.388   -19206597.40549 -14943799.99647  21489158.495    21489164.972
       236.000         194.000
  23641722.580   -11899882.79549  -9237571.89845  23641721.767    23641729.036
       213.000         152.000
  22512362.708   -12892293.83149 -10024430.57446  22512362.386    22512370.942
       223.000         171.000
  20943864.047   -10369259.95049  -8064484.69247  20943863.475    20943868.456
       240.000         202.000
  21485821.533   -15357176.63449 -11937237.17546  21485821.086    21485828.869
       227.000         183.000
  20438600.602    -4394418.39849  -3405076.03347  20438600.401    20438606.833
       241.000         205.000
 03  5 12 19  8  0.0000000  0 10G17G30G15G29G18G16G23G21G26G 6
  20926761.440    -7044005.72649  -5471408.96347  20926760.585    20926767.791
       238.000         203.000
  24627457.349    18145950.33849  14141511.67645  24627458.675    24627469.913
       206.000         139.000
  22691815.939   -13826626.98749 -10738471.96146  22691815.603    22691823.341
       222.000         165.000
  22765466.175    -6975595.12449  -5420599.93746  22765466.545    22765473.317
       221.000         166.000
  21476911.647   -19270958.88849 -14993951.75547  21476910.894    21476917.483
       236.000         194.000
  23636908.895   -11925179.72349  -9257283.77745  23636908.629    23636915.212
       214.000         152.000
  22498277.582   -12966311.24949 -10082106.40146  22498276.517    22498286.288
       225.000         171.000
  20939001.596   -10394812.37149  -8084395.66047  20939000.841    20939006.126
       240.000         202.000
  21482212.510   -15376141.54149 -11952015.01746  21482212.364    21482219.949
       228.000         183.000
  20444629.698    -4362735.37449  -3380387.99547  20444629.498    20444635.789
       241.000         205.000
 03  5 12 19  8 30.0000000  0 10G17G30G15G29G18G16G23G21G26G 6
  20924681.048    -7054938.17249  -5479927.75047  20924680.475    20924687.328
       239.000         203.000
  24646239.027    18244647.90149  14218418.57445  24646239.953    24646252.012
       203.000         139.000
  22679460.598   -13891554.66349 -10789064.90946  22679459.867    22679467.741
       222.000         165.000
  22770273.438    -6950332.63049  -5400914.87646  22770273.178    22770280.599
       218.000         167.000
  21464736.779   -19334938.35749 -15043805.84547  21464736.082    21464741.761
       236.000         194.000
  23632195.272   -11949949.33549  -9276584.77445  23632194.962    23632201.527
       214.000         152.000
  22484255.466   -13039997.43249 -10139524.11746  22484254.834    22484263.683
       224.000         171.000
  20934170.616   -10420199.46549  -8104177.79847  20934169.896    20934174.791
       240.000         202.000
  21478723.928   -15394474.40749 -11966300.36046  21478724.069    21478730.918
       229.000         184.000
  20450752.825    -4330557.90049  -3355314.66247  20450752.758    20450758.792
       241.000         205.000
 03  5 12 19  9  0.0000000  0 10G17G30G15G29G18G16G23G21G26G 6
  20922629.091    -7065721.32349  -5488330.19947  20922628.336    20922635.354
       238.000         203.000
  24665001.837    18343245.69949  14295247.72345  24665002.764    24665014.310
       202.000         138.000
  22667121.273   -13956398.10749 -10839592.21546  22667121.009    22667129.257
       222.000         166.000
  22775182.647    -6924533.75649  -5380811.84046  22775182.579    22775189.828
       218.000         167.000
  21452634.815   -19398534.59449 -15093361.31547  21452634.450    21452639.873
       237.000         194.000
  23627582.109   -11974191.26049  -9295474.59045  23627581.546    23627588.739
       215.000         152.000
  22470296.656   -13113351.12549 -10196682.75746  22470296.378    22470304.377
       223.000         171.000
  20929371.129   -10445420.77949  -8123830.75747  20929370.398    20929375.357
       240.000         201.000
  21475355.862   -15412173.68249 -11980091.99646  21475356.290    21475362.418
       230.000         183.000
  20456970.200    -4297885.78449  -3329855.89947  20456970.124    20456976.393
       241.000         205.000
 03  5 12 19  9 30.0000000  0 10G17G30G15G29G18G16G23G21G26G 6
  20920605.366    -7076355.74949  -5496616.76247  20920604.617    20920611.709
       237.000         202.000
  24683745.060    18441740.61449  14371996.71645  24683746.238    24683759.039
       204.000         139.000
  22654797.868   -14021157.71949 -10890054.20046  22654797.410    22654804.285
       221.000         166.000
  22780194.004    -6898199.60649  -5360291.70746  22780194.300    22780200.464
       216.000         167.000
  21440605.878   -19461747.27749 -15142617.91147  21440605.278    21440611.698
       236.000         195.000
  23623069.493   -11997905.51749  -9313953.20945  23623068.920    23623076.269
       213.000         152.000
  22456401.290   -13186371.91549 -10253581.99046  22456400.218    22456408.629
       224.000         171.000
  20924603.099   -10470476.60649  -8143354.76347  20924602.469    20924607.567
       239.000         201.000
  21472108.637   -15429238.47849 -11993389.22846  21472108.788    21472115.761
       230.000         184.000
  20463281.530    -4264719.70749  -3304012.23647  20463281.205    20463287.572
       241.000         205.000
 03  5 12 19 10  0.0000000  0 10G17G30G15G29G18G16G23G21G26G 6
  20918610.008    -7086841.43049  -5504787.42347  20918609.378    20918616.164
       238.000         203.000
  24702468.088    18540129.58649  14448663.15545  24702469.866    24702481.377
       206.000         141.000
  22642490.360   -14085834.28849 -10940451.46946  22642490.090    22642497.784
       222.000         166.000
  22785306.940    -6871331.34949  -5339355.37846  22785306.421    22785313.842
       215.000         167.000
  21428649.798   -19524576.15049 -15191575.42547  21428649.075    21428655.400
       236.000         195.000
  23618657.082   -12021092.31949  -9332020.85845  23618655.585    23618663.622
       213.000         151.000
  22442569.249   -13259059.49149 -10310221.57646  22442568.333    22442576.807
       226.000         172.000
  20919866.601   -10495366.76249  -8162749.67847  20919866.348    20919871.124
       240.000         202.000
  21468982.174   -15445668.12849 -12006191.53946  21468982.163    21468988.780
       232.000         184.000
  20469686.694    -4231060.35949  -3277784.20647  20469686.391    20469693.049
       241.000         205.000
 03  5 12 19 10 30.0000000  0 10G17G30G15G29G18G16G23G21G26G 6
  20916643.274    -7097176.82649  -5512840.97447  20916642.590    20916649.399
       238.000         203.000
  24721170.762    18638411.57449  14525246.21745  24721171.369    24721185.350
       206.000         141.000
  22630199.018   -14150425.91949 -10990782.57546  22630198.120    22630206.913
       222.000         166.000
  22790521.603    -6843928.03449  -5318002.11846  22790520.531    22790529.197
       217.000         167.000
  21416767.266   -19587018.98449 -15240232.13747  21416766.861    21416772.761
       238.000         195.000
  23614345.269   -12043750.23249  -9349676.37045  23614344.839    23614351.155
       213.000         151.000
  22428801.205   -13331411.41949 -10366599.62546  22428800.455    22428808.602
       226.000         173.000
  20915162.074   -10520089.47949  -8182014.12147  20915161.525    20915166.503
       240.000         202.000
  21465977.089   -15461459.71949 -12018496.64946  21465977.313    21465983.952
       231.000         184.000
  20476186.060    -4196906.27649  -3251170.66947  20476185.891    20476192.351
       240.000         204.000
 03  5 12 19 11  0.0000000  0 10G17G30G15G29G18G16G23G21G26G 6
  20914705.104    -7107361.96849  -5520777.45147  20914704.461    20914711.455
       238.000         203.000
  24739852.468    18736583.98349  14601743.91345  24739853.716    24739865.662
       207.000         140.000
  22617923.735   -14214932.90449 -11041047.70746  22617923.238    22617931.048
       222.000         166.000
  22795837.788    -6815990.62649  -5296232.68646  22795838.160    22795844.926
       217.000         168.000
  21404958.439   -19649075.21949 -15288587.61547  21404957.736    21404963.693
       237.000         195.000
  23610134.427   -12065878.99849  -9366919.56345  23610134.404    23610140.984
       215.000         152.000
  22415097.033   -13403427.01149 -10422715.60446  22415095.982    22415105.240
       226.000         173.000
  20910489.344   -10544645.05149  -8201148.32247  20910488.930    20910493.970
       239.000         202.000
  21463093.540   -15476612.36249 -12030303.88846  21463093.370    21463100.614
       230.000         183.000
  20482779.445    -4162257.91449  -3224171.98147  20482779.197    20482785.806
       241.000         204.000
 03  5 12 19 11 30.0000000  0 10G17G30G15G29G18G16G23G21G26G 6
  20912795.421    -7117397.16649  -5528597.08547  20912794.843    20912801.957
       238.000         203.000
  24758512.815    18834643.67649  14678153.77345  24758514.117    24758525.684
       207.000         139.000
  22605664.519   -14279355.46249 -11091247.06746  22605663.795    22605671.343
       222.000         166.000
  22801255.569    -6787520.29149  -5274048.00246  22801255.080    22801262.491
       220.000         169.000
  21393223.074   -19710744.63749 -15336641.65847  21393222.390    21393228.314
       236.000         195.000
  23606024.150   -12087478.70549  -9383750.49745  23606023.140    23606030.923
       212.000         152.000
  22401456.954   -13475105.85449 -10478569.17446  22401455.935    22401465.091
       224.000         173.000
  20905848.283   -10569034.02949  -8220152.71047  20905847.783    20905852.652
       240.000         202.000
  21460331.726   -15491125.50849 -12041612.81846  21460332.071    21460338.962
       231.000         183.000
  20489466.731    -4127116.00849  -3196788.71947  20489466.547    20489473.052
       240.000         204.000
 03  5 12 19 12  0.0000000  0 10G17G30G15G29G18G16G23G21G26G 6
  20910914.404    -7127281.95049  -5536299.51647  20910913.586    20910920.890
       238.000         203.000
  24777151.258    18932588.45949  14754474.11245  24777151.855    24777163.547
       209.000         137.000
  22593421.385   -14343693.39249 -11141380.46746  22593420.510    22593428.575
       224.000         167.000
  22806774.648    -6758517.61549  -5251448.51146  22806774.559    22806782.140
       220.000         170.000
  21381561.503   -19772026.53749 -15384393.74447  21381561.183    21381566.771
       238.000         196.000
  23602014.491   -12108549.15149  -9400169.04345  23602013.626    23602021.396
       214.000         152.000
  22387881.066   -13546446.96349 -10534159.56946  22387880.433    22387888.765
       225.000         173.000
  20901239.133   -10593255.32249  -8239026.43747  20901238.444    20901243.412
       240.000         202.000
  21457692.067   -15504997.57649 -12052422.21246  21457692.189    21457699.051
       230.000         183.000
  20496247.963    -4091480.72749  -3169021.00447  20496247.643    20496253.963
       240.000         204.000
 03  5 12 19 12 30.0000000  0 10G17G30G15G29G18G16G23G21G26G 6
  20909061.920    -7137016.72449  -5543885.05547  20909061.228    20909068.033
       238.000         203.000
  24795767.123    19030415.35749  14830702.57845  24795768.127    24795780.578
       207.000         136.000
  22581194.424   -14407946.92749 -11191448.10246  22581193.775    22581202.193
       223.000         167.000
  22812394.812    -6728983.52449  -5228434.93646  22812395.097    22812402.312
       223.000         170.000
  21369973.784   -19832920.55349 -15431843.58847  21369973.245    21369979.202
       237.000         196.000
  23598105.766   -12129090.60049  -9416175.37145  23598106.401    23598112.217
       216.000         152.000
  22374369.702   -13617449.70949 -10589486.31746  22374369.147    22374377.347
       226.000         174.000
  20896661.811   -10617308.93649  -8257769.50147  20896661.153    20896666.551
       239.000         202.000
  21455174.357   -15518228.00049 -12062731.61946  21455173.932    21455181.562
       229.000         183.000
  20503122.897    -4055352.72149  -3140869.34947  20503122.574    20503129.320
       241.000         204.000
 03  5 12 19 13  0.0000000  0 10G17G30G15G29G18G16G23G21G26G 6
  20907238.131    -7146600.85149  -5551353.20647  20907237.471    20907244.196
       238.000         202.000
  24814360.256    19128122.08049  14906837.40745  24814360.656    24814374.208
       206.000         139.000
  22568983.540   -14472115.68349 -11241449.68846  22568982.359    22568990.546
       224.000         167.000
  22818116.110    -6698918.69149  -5205007.80046  22818116.127    22818123.451
       222.000         169.000
  21358459.846   -19893426.03049 -15478990.67247  21358459.086    21358465.271
       237.000         196.000
  23594297.780   -12149102.57949  -9431769.12245  23594296.848    23594304.841
       214.000         152.000
  22360922.835   -13688113.23049 -10644548.73046  22360921.506    22360930.613
       226.000         174.000
  20892116.365   -10641195.08749  -8276382.07847  20892116.239    20892120.938
       240.000         202.000
  21452779.046   -15530815.59949 -12072540.14146  21452779.190    21452786.181
       228.000         183.000
  20510091.629    -4018732.09249  -3112333.83447  20510091.699    20510097.865
       241.000         204.000
 03  5 12 19 13 30.0000000  0 10G17G30G15G29G18G16G23G21G26G 6
  20905443.072    -7156034.18049  -5558703.85247  20905442.403    20905449.414
       238.000         203.000
  24832930.101    19225706.22249  14982876.70245  24832931.569    24832945.066
       206.000         139.000
  22556788.793   -14536199.54349 -11291385.11246  22556788.001    22556795.533
       223.000         167.000
  22823938.044    -6668323.96849  -5181167.77946  22823936.927    22823944.395
       222.000         167.000
  21347020.090   -19953542.31849 -15525834.50347  21347019.696    21347025.264
       238.000         196.000
  23590590.113   -12168584.85149  -9446950.13845  23590589.555    23590596.516
       214.000         151.000
  22347540.611   -13758436.68049 -10699346.15246  22347539.820    22347548.440
       225.000         174.000
  20887603.050   -10664912.87649  -8294863.46847  20887602.624    20887607.505
       240.000         202.000
  21450506.196   -15542759.27449 -12081846.89746  21450506.523    21450512.806
       228.000         183.000
  20517154.106    -3981618.91849  -3083414.51647  20517153.670    20517160.103
       240.000         204.000
 03  5 12 19 14  0.0000000  0  9G17G15G29G18G16G23G21G26G 6
  20903677.963    -7165310.06949  -5565931.81547  20903677.285    20903684.364
       238.000         203.000
  22544611.226   -14600192.05849 -11341249.36946  22544610.851    22544618.178
       224.000         167.000
  22829861.965    -6637193.54949  -5156910.32446  22829862.415    22829869.068
       220.000         166.000
  21335655.876   -20013261.94849 -15572369.23647  21335655.373    21335661.253
       238.000         197.000
  23586984.923   -12187530.91849  -9461713.29745  23586984.910    23586991.347
       216.000         151.000
  22334224.468   -13828412.82649 -10753872.95046  22334223.789    22334231.971
       227.000         174.000
  20883123.026   -10688455.68349  -8313208.50947  20883122.525    20883127.429
       240.000         202.000
  21448357.414   -15554051.47149 -12090646.01146  21448357.491    21448364.318
       228.000         183.000
  20524311.415    -3944007.09949  -3054106.63947  20524311.035    20524317.583
       241.000         204.000
 03  5 12 19 14 30.0000000  0  9G17G15G29G18G16G23G21G26G 6
  20901941.735    -7174434.24749  -5573041.56547  20901941.157    20901948.032
       238.000         203.000
  22532450.102   -14664099.67749 -11391047.46946  22532449.050    22532456.719
       224.000         168.000
  22835886.476    -6605534.78049  -5132241.17546  22835886.205    22835892.942
       219.000         164.000
  21324365.952   -20072590.91149 -15618599.55547  21324365.279    21324371.352
       237.000         197.000
  23583480.470   -12205947.34049  -9476063.78245  23583480.037    23583486.896
       213.000         151.000
  22320973.426   -13898047.47849 -10808133.64746  22320973.202    22320981.138
       226.000         174.000
  20878675.061   -10711829.97849  -8331422.23647  20878674.205    20878679.703
       240.000         202.000
  21446331.456   -15564697.79849 -12098941.84646  21446330.924    21446338.409
       227.000         183.000
  20531562.276    -3905903.47249  -3024415.53647  20531562.085    20531568.396
       240.000         204.000
 03  5 12 19 15  0.0000000  0  9G17G15G29G18G16G23G21G26G 6
  20900233.994    -7183408.50949  -5580034.49947  20900233.090    20900240.126
       239.000         203.000
  22520304.741   -14727923.73949 -11440780.45846  22520303.288    22520311.387
       223.000         168.000
  22842010.924    -6573350.40049  -5107162.44445  22842011.145    22842016.808
       217.000         162.000
  21313149.990   -20131530.57349 -15664526.52947  21313149.354    21313154.909
       237.000         196.000
  23580076.242   -12223835.86549  -9490002.92045  23580075.354    23580082.660
       214.000         152.000
  22307787.154   -13967341.51949 -10862128.92446  22307786.321    22307794.903
       228.000         175.000
  20874258.859   -10735037.23849  -8349505.81947  20874258.082    20874263.496
       240.000         202.000
  21444428.297   -15574699.09649 -12106735.06046  21444428.081    21444435.030
       228.000         184.000
  20538906.291    -3867310.32849  -2994343.00247  20538906.281    20538912.488
       240.000         204.000
 03  5 12 19 15 30.0000000  0  9G17G15G29G18G16G23G21G26G 6
  20898554.907    -7192232.20949  -5586910.11547  20898553.922    20898561.321
       238.000         203.000
  22508175.330   -14791663.27049 -11490447.58246  22508174.975    22508182.280
       224.000         168.000
  22848235.366    -6540640.20449  -5081673.99345  22848235.945    22848242.402
       216.000         162.000
  21302008.504   -20190079.34649 -15710148.91947  21302008.376    21302013.880
       238.000         197.000
  23576772.919   -12241195.42949  -9503529.85945  23576772.030    23576779.836
       214.000         151.000
  22294666.058   -14036293.26149 -10915857.48746  22294664.525    22294673.329
       227.000         175.000
  20869874.830   -10758075.69049  -8367457.85347  20869874.217    20869879.143
       240.000         202.000
  21442648.194   -15584053.44649 -12114024.16846  21442648.214    21442655.355
       228.000         185.000
  20546343.692    -3828227.08649  -2963888.56447  20546343.472    20546349.846
       240.000         204.000
 03  5 12 19 16  0.0000000  0  9G17G15G29G18G16G23G21G26G 6
  20896904.442    -7200905.02649  -5593668.15947  20896903.745    20896910.714
       238.000         203.000
  22496062.104   -14855318.50949 -11540049.02046  22496061.321    22496069.702
       224.000         168.000
  22854559.738    -6507405.41249  -5055776.74546  22854559.318    22854566.880
       217.000         163.000
  21290941.603   -20248236.81949 -15755466.39547  21290941.238    21290947.220
       237.000         198.000
  23573570.173   -12258026.22349  -9516644.77445  23573569.437    23573577.586
       213.000         151.000
  22281609.987   -14104902.23249 -10969318.94846  22281608.863    22281616.968
       226.000         175.000
  20865522.806   -10780945.65149  -8385278.60147  20865521.950    20865527.116
       239.000         202.000
  21440991.262   -15592760.24949 -12120808.68146  21440991.201    21440998.520
       230.000         186.000
  20553874.166    -3788654.24149  -2933052.62347  20553874.019    20553880.276
       241.000         204.000
 03  5 12 19 16 30.0000000  0  9G17G15G29G18G16G23G21G26G 6
  20895282.980    -7209425.86449  -5600307.77447  20895282.527    20895289.623
       238.000         203.000
  22483965.181   -14918888.55149 -11589584.08446  22483963.946    22483972.619
       223.000         169.000
  22860983.909    -6473646.31449  -5029470.94846  22860984.560    22860991.054
       218.000         165.000
  21279949.278   -20306001.69249 -15800477.94647  21279948.508    21279954.315
       237.000         197.000
  23570468.091   -12274327.58449  -9529347.16045  23570467.995    23570474.959
       215.000         151.000
  22268619.479   -14173167.13749 -11022512.31146  22268619.006    22268627.252
       227.000         175.000
  20861202.961   -10803646.04549  -8402967.21547  20861202.480    20861207.771
       240.000         202.000
  21439457.934   -15600818.02149 -12127087.46746  21439458.272    21439464.978
       229.000         186.000
  20561497.813    -3748591.67949  -2901835.08247  20561497.531    20561504.246
       241.000         204.000
 03  5 12 19 17  0.0000000  0  9G17G15G29G18G16G23G21G26G 6
  20893690.699    -7217793.46449  -5606827.98247  20893689.879    20893697.205
       238.000         203.000
  22471884.517   -14982372.55949 -11639052.10346  22471883.059    22471891.673
       224.000         169.000
  22867507.816    -6439362.80649  -5002756.51946  22867507.684    22867514.469
       221.000         167.000
  21269031.934   -20363372.50449 -15845182.44347  21269031.536    21269037.134
       238.000         198.000
  23567467.159   -12290098.71149  -9541636.35245  23567467.012    23567473.769
       214.000         152.000
  22255694.880   -14241086.27449 -11075436.23746  22255694.054    22255702.295
       228.000         176.000
  20856915.782   -10826175.57049  -8420522.68747  20856915.388    20856920.392
       240.000         203.000
  21438048.381   -15608225.07249 -12132859.17646  21438048.168    21438055.696
       230.000         186.000
  20569214.807    -3708039.01249  -2870235.63547  20569214.639    20569220.896
       241.000         204.000
 03  5 12 19 17 30.0000000  0  9G17G15G29G18G16G23G21G26G 6
  20892127.519    -7226007.79449  -5613228.76647  20892126.822    20892133.871
       238.000         203.000
  22459820.168   -15045770.44149 -11688453.00046  22459819.530    22459827.384
       224.000         169.000
  22874131.510    -6404556.09349  -4975634.41346  22874131.268    22874138.683
       221.000         169.000
  21258189.632   -20420349.40749 -15889580.00147  21258189.002    21258194.854
       239.000         198.000
  23564566.698   -12305340.02349  -9553512.70845  23564565.171    23564574.234
       213.000         151.000
  22242836.234   -14308659.26849 -11128090.45046  22242835.775    22242843.253
       228.000         176.000
  20852660.986   -10848534.52149  -8437945.24647  20852660.314    20852665.514
       240.000         202.000
  21436762.859   -15614980.90249 -12138123.45546  21436763.168    21436770.185
       231.000         187.000
  20577024.862    -3666996.93549  -2838254.83447  20577024.592    20577031.046
       241.000         203.000
 03  5 12 19 18  0.0000000  0  9G17G15G29G18G16G23G21G26G 6
  20890593.560    -7234068.83949  -5619510.10047  20890592.993    20890600.201
       238.000         203.000
  22447772.516   -15109081.83249 -11737786.52146  22447771.561    22447779.133
       224.000         169.000
  22880854.422    -6369227.12649  -4948105.34646  22880854.144    22880861.245
       221.000         170.000
  21247422.398   -20476931.43149 -15933669.85447  21247421.596    21247427.729
       237.000         198.000
  23561767.025   -12320051.15349  -9564975.95245  23561766.219    23561773.555
       214.000         151.000
  22230043.554   -14375885.23149 -11180474.24646  22230042.612    22230051.016
       228.000         176.000
  20848438.891   -10870721.95749  -8455234.15247  20848438.306    20848443.282
       240.000         203.000
  21435601.414   -15621084.39749 -12142879.41046  21435601.352    21435608.632
       231.000         187.000
  20584927.981    -3625465.75849  -2805892.92147  20584928.051    20584934.261
       241.000         203.000
 03  5 12 19 18 30.0000000  0  9G17G15G29G18G16G23G21G26G 6
  20889088.895    -7241976.07849  -5625671.59247  20889088.275    20889095.053
       238.000         203.000
  22435741.198   -15172306.50249 -11787052.46646  22435740.680    22435748.344
       224.000         170.000
  22887676.367    -6333376.65249  -4920169.90946  22887676.311    22887683.785
       222.000         171.000
  21236730.469   -20533117.60849 -15977451.25647  21236730.008    21236735.429
       239.000         198.000
  23559068.572   -12334232.17749  -9576026.10545  23559067.517    23559075.089
       215.000         151.000
  22217316.986   -14442763.30349 -11232586.95746  22217316.032    22217324.506
       229.000         177.000
  20844249.482   -10892737.43549  -8472389.07347  20844248.977    20844254.072
       240.000         203.000
  21434564.248   -15626534.76449 -12147126.44146  21434564.820    21434571.450
       232.000         187.000
  20592924.203    -3583445.69849  -2773150.06247  20592924.055    20592930.399
       241.000         203.000
 03  5 12 19 19  0.0000000  0  9G17G15G29G18G16G23G21G26G 6
  20887613.650    -7249728.75949  -5631712.65547  20887613.026    20887619.926
       238.000         203.000
  22423726.408   -15235444.04449 -11836250.51446  22423725.418    22423732.898
       224.000         170.000
  22894597.614    -6297005.29949  -4891828.61146  22894598.070    22894604.995
       222.000         170.000
  21226114.036   -20588907.57349 -16020923.92947  21226113.727    21226119.502
       238.000         199.000
  23556471.031   -12347882.81249  -9586662.97945  23556470.145    23556478.662
       214.000         151.000
  22204656.820   -14509292.57249 -11284427.87946  22204656.096    22204663.154
       229.000         177.000
  20840092.965   -10914580.27649  -8489409.47447  20840092.384    20840097.410
       240.000         202.000
  21433651.606   -15631331.01649 -12150863.76946  21433651.442    21433659.052
       231.000         186.000
  20601013.363    -3540937.08149  -2740026.50547  20601013.205    20601019.874
       241.000         203.000
 03  5 12 19 19 30.0000000  0  9G17G15G29G18G16G23G21G26G 6
  20886167.724    -7257327.15549  -5637633.48547  20886167.007    20886173.944
       238.000         203.000
  22411728.180   -15298494.91549 -11885381.02946  22411727.514    22411735.281
       225.000         170.000
  22901617.678    -6260115.05449  -4863082.97546  22901617.920    22901625.339
       220.000         168.000
  21215572.855   -20644301.57149 -16064088.03847  21215571.945    21215577.790
       238.000         199.000
  23553974.114   -12361004.19449  -9596887.45645  23553973.743    23553981.032
       214.000         151.000
  22192063.065   -14575473.34749 -11335997.24246  22192061.935    22192069.992
       229.000         177.000
  20835969.200   -10936250.99049  -8506295.73647  20835968.499    20835973.669
       239.000         203.000
  21432863.357   -15635473.28149 -12154091.49246  21432863.797    21432870.402
       231.000         186.000
  20609195.228    -3497941.37249  -2706523.39647  20609194.901    20609201.661
       241.000         203.000
 03  5 12 19 20  0.0000000  0  9G17G15G29G18G16G23G21G26G 6
  20884751.259    -7264770.93249  -5643433.83747  20884750.698    20884757.723
       238.000         203.000
  22399746.592   -15361458.89849 -11934443.84446  22399745.649    22399753.573
       225.000         170.000
  22908736.252    -6222707.06649  -4833933.90546  22908735.862    22908742.692
       217.000         165.000
  21205107.082   -20699299.15949 -16106943.26947  21205106.610    21205111.740
       239.000         199.000
  23551577.996   -12373596.59649  -9606699.73745  23551578.042    23551583.964
       215.000         151.000
  22179535.759   -14641305.00549 -11387294.56746  22179535.047    22179543.503
       228.000         177.000
  20831878.091   -10957749.68049  -8523047.96147  20831877.411    20831882.616
       240.000         203.000
  21432199.612   -15638961.04649 -12156809.21446  21432199.367    21432206.704
       231.000         186.000
  20617469.642    -3454459.02849  -2672641.09747  20617469.413    20617475.850
       240.000         203.000
 03  5 12 19 20 30.0000000  0  9G17G15G29G18G16G23G21G26G 6
  20883364.417    -7272058.88749  -5649112.77247  20883363.768    20883370.419
       238.000         203.000
  22387781.528   -15424335.15049 -11983438.28546  22387780.452    22387788.675
       224.000         170.000
  22915953.268    -6184781.37549  -4804381.42846  22915953.006    22915960.959
       218.000         163.000
  21194717.185   -20753899.09449 -16149488.64847  21194716.823    21194722.564
       239.000         199.000
  23549282.669   -12385659.26649  -9616099.25145  23549281.991    23549288.646
       214.000         151.000
  22167075.138   -14706786.00349 -11438318.65546  22167074.594    22167082.237
       229.000         178.000
  20827820.122   -10979074.48449  -8539664.69747  20827819.511    20827824.607
       240.000         203.000
  21431660.744   -15641792.72049 -12159015.69846  21431660.790    21431667.833
       230.000         185.000
  20625836.772    -3410489.64749  -2638379.28847  20625836.620    20625842.916
       241.000         203.000
 03  5 12 19 21  0.0000000  0  9G17G15G29G18G16G23G21G26G 6
  20882007.208    -7279191.12049  -5654670.35947  20882006.518    20882013.443
       237.000         203.000
  22375833.228   -15487123.61649 -12032364.32746  22375832.194    22375840.717
       224.000         171.000
  22923268.447    -6146339.39549  -4774426.65345  22923267.852    22923275.403
       219.000         161.000
  21184402.845   -20808100.73349 -16191723.65047  21184402.074    21184408.052
       238.000         199.000
  23547087.799   -12397192.62749  -9625086.33545  23547088.320    23547093.457
       213.000         151.000
  22154681.264   -14771915.96849 -11489069.20946  22154680.844    22154688.466
       229.000         178.000
  20823795.254   -11000225.41049  -8556145.93847  20823794.857    20823799.534
       240.000         203.000
  21431246.818   -15643967.96849 -12160710.68346  21431247.076    21431254.125
       231.000         184.000
  20634296.432    -3366034.15849  -2603738.68447  20634296.104    20634302.712
       240.000         203.000
 03  5 12 19 21 30.0000000  0  9G17G15G29G18G16G23G21G26G 6
  20880679.702    -7286166.97749  -5660106.09847  20880679.157    20880685.951
       238.000         203.000
  22363901.810   -15549823.74149 -12081221.53746  22363901.323    22363910.109
       224.000         171.000
  22930681.757    -6107381.70349  -4744070.00945  22930681.300    22930689.036
       216.000         161.000
  21174164.426   -20861903.67549 -16233647.98947  21174163.981    21174169.516
       239.000         199.000
  23544993.872   -12408196.39549  -9633660.72145  23544993.820    23545001.028
       215.000         151.000
  22142354.322   -14836693.96049 -11539545.50646  22142353.078    22142360.749
       229.000         178.000
  20819803.630   -11021201.70049  -8572491.09847  20819803.060    20819807.998
       242.000         203.000
  21430958.076   -15645485.91149 -12161893.48946  21430956.967    21430965.257
       230.000         184.000
  20642848.503    -3321092.66249  -2568719.38447  20642848.613    20642854.712
       241.000         203.000
 03  5 12 19 22  0.0000000  0  9G17G15G29G18G16G23G21G26G 6
  20879382.010    -7292986.55349  -5665420.05647  20879381.325    20879388.356
       238.000         203.000
  22351987.066   -15612435.83949 -12130010.14346  22351986.312    22351993.271
       226.000         171.000
  22938192.782    -6067910.12149  -4713312.93846  22938192.870    22938200.503
       218.000         163.000
  21164001.895   -20915308.11149 -16275261.81047  21164001.317    21164006.987
       239.000         199.000
  23543000.660   -12418671.62149  -9641823.27645  23543000.080    23543006.995
       214.000         151.000
  22130094.409   -14901119.84449 -11589747.43046  22130093.365    22130101.681
       230.000         178.000
  20815845.155   -11042003.52249  -8588700.31347  20815844.541    20815849.685
       242.000         203.000
  21430794.164   -15646346.55749 -12162564.11146  21430794.180    21430801.513
       229.000         183.000
  20651492.897    -3275666.36749  -2533322.31247  20651492.709    20651499.359
       241.000         203.000
 03  5 12 19 22 30.0000000  0  9G17G15G29G18G16G23G21G26G 6
  20878114.065    -7299649.37349  -5670611.87647  20878113.113    20878120.488
       237.000         203.000
  22340089.288   -15674959.84149 -12178730.11846  22340089.138    22340096.108
       226.000         171.000
  22945801.758    -6027925.72649  -4682156.27746  22945801.692    22945809.813
       222.000         166.000
  21153915.271   -20968313.67949 -16316564.81447  21153914.620    21153920.353
       239.000         200.000
  23541107.825   -12428618.51549  -9649574.14445  23541107.490    23541114.607
       213.000         150.000
  22117901.548   -14965193.24549 -11639674.68746  22117900.656    22117908.871
       229.000         178.000
  20811919.968   -11062630.44749  -8604773.24147  20811919.328    20811924.296
       242.000         203.000
  21430755.451   -15646549.58949 -12162722.30746  21430755.087    21430762.843
       229.000         183.000
  20660229.422    -3229755.91849  -2497547.97847  20660229.261    20660235.538
       241.000         203.000
 03  5 12 19 23  0.0000000  0  9G17G15G29G18G16G23G21G26G 6
  20876876.004    -7306155.47549  -5675681.57047  20876875.270    20876882.281
       238.000         203.000
  22328208.137   -15737395.49149 -12227381.24146  22328206.534    22328215.086
       226.000         172.000
  22953508.008    -5987429.93849  -4650601.12746  22953507.587    22953514.978
       220.000         168.000
  21143904.688   -21020919.61949 -16357556.42247  21143904.070    21143909.309
       239.000         200.000
  23539315.587   -12438037.45349  -9656913.59445  23539315.271    23539322.435
       213.000         151.000
  22105775.853   -15028913.49149 -11689326.76046  22105774.890    22105783.578
       229.000         178.000
  20808028.167   -11083082.13449  -8620709.62047  20808027.812    20808032.463
       241.000         203.000
  21430842.017   -15646094.46549 -12162367.65046  21430842.417    21430849.199
       229.000         182.000
  20669057.937    -3183362.06649  -2461396.96647  20669057.789    20669064.194
       241.000         203.000
 03  5 12 19 23 30.0000000  0  9G17G15G29G18G16G23G21G26G 6
  20875667.978    -7312503.73949  -5680628.27247  20875667.346    20875674.337
       238.000         203.000
  22316344.011   -15799741.88149 -12275962.78746  22316342.338    22316351.493
       225.000         172.000
  22961311.387    -5946423.16849  -4618647.81146  22961311.455    22961318.730
       222.000         169.000
  21133970.204   -21073125.37649 -16398236.20647  21133969.667    21133974.831
       238.000         200.000
  23537623.695   -12446928.10749  -9663841.40145  23537622.673    23537631.091
       213.000         151.000
  22093717.656   -15092279.46849 -11738702.79046  22093717.418    22093725.044
       230.000         179.000
  20804169.864   -11103357.66649  -8636508.73347  20804169.213    20804174.279
       242.000         203.000
  21431054.065   -15644980.22249 -12161499.39446  21431053.950    21431061.359
       228.000         182.000
  20677978.388    -3136485.07749  -2424869.47947  20677978.114    20677984.623
       240.000         202.000
 03  5 12 19 24  0.0000000  0  9G17G15G29G18G16G23G21G26G 6
  20874489.873    -7318694.30849  -5685452.09747  20874489.072    20874496.389
       239.000         203.000
  22304496.490   -15861999.38349 -12324475.09646  22304495.649    22304502.268
       225.000         172.000
  22969211.705    -5904907.31749  -4586297.79246  22969211.616    22969218.819
       223.000         169.000
  21124111.880   -21124931.07349 -16438604.25347  21124111.322    21124116.990
       239.000         200.000
  23536032.255   -12455291.47149  -9670358.32945  23536031.794    23536039.389
       211.000         152.000
  22081726.807   -15155291.33349 -11787802.88746  22081725.929    22081734.207
       229.000         179.000
  20800345.126   -11123457.05049  -8652170.59047  20800344.641    20800349.724
       242.000         204.000
  21431391.472   -15643206.97849 -12160117.64046  21431391.426    21431398.112
       227.000         182.000
  20686990.446    -3089126.15349  -2387966.46047  20686990.385    20686996.971
       240.000         202.000
 03  5 12 19 24 30.0000000  0  9G17G15G29G18G16G23G21G26G 6
  20873342.062    -7324726.27749  -5690152.34347  20873341.556    20873348.634
       240.000         203.000
  22292666.534   -15924167.35149 -12372917.63846  22292666.108    22292672.280
       228.000         172.000
  22977208.649    -5862883.17149  -4553551.71746  22977208.999    22977215.573
       220.000         168.000
  21114329.804   -21176335.83649 -16478659.88047  21114329.154    21114334.659
       238.000         200.000
  23534540.848   -12463127.52449  -9676464.37345  23534540.297    23534548.369
       213.000         151.000
  22069803.598   -15217948.05549 -11836626.24246  22069802.614    22069810.912
       229.000         179.000
  20796553.968   -11143379.48349  -8667694.56547  20796553.286    20796558.137
       241.000         203.000
  21431854.355   -15640774.17749 -12158221.94146  21431854.546    21431862.416
       228.000         181.000
  20696094.248    -3041285.40749  -2350687.99747  20696094.152    20696100.865
       240.000         202.000
 03  5 12 19 25  0.0000000  0  9G17G15G29G18G16G23G21G26G 6
  20872224.428    -7330599.81149  -5694729.12947  20872224.080    20872230.779
       240.000         203.000
  22280853.603   -15986245.63249 -12421290.28946  22280852.157    22280860.221
       225.000         173.000
  22985302.087    -5820351.80149  -4520410.38146  22985301.687    22985309.027
       219.000         166.000
  21104624.037   -21227339.57849 -16518403.03147  21104623.433    21104628.863
       239.000         200.000
  23533149.894   -12470436.73349  -9682159.87445  23533149.590    23533156.056
       213.000         150.000
  22057948.045   -15280249.13749 -11885172.48046  22057947.081    22057955.098
       228.000         179.000
  20792796.560   -11163124.95149  -8683080.64147  20792796.137    20792800.873
       242.000         203.000
  21432442.957   -15637681.30749 -12155811.91146  21432443.188    21432450.018
       228.000         181.000
  20705289.591    -2992963.83049  -2313034.85947  20705289.296    20705296.066
       240.000         202.000
 03  5 12 19 25 30.0000000  0  9G17G15G29G18G16G23G21G26G 6
  20871137.057    -7336314.39149  -5699182.05647  20871136.463    20871143.315
       240.000         203.000
  22269057.326   -16048234.00749 -12469592.87146  22269056.463    22269064.560
       227.000         173.000
  22993491.624    -5777315.05449  -4486875.23946  22993490.698    22993498.102
       217.000         164.000
  21094994.713   -21277942.05849 -16557833.50447  21094994.010    21094999.884
       239.000         200.000
  23531859.302   -12477219.56649  -9687445.23345  23531858.413    23531866.903
       210.000         150.000
  22046160.250   -15342194.44849 -11933441.51146  22046159.481    22046167.593
       229.000         180.000
  20789072.887   -11182693.06149  -8698328.51947  20789072.235    20789077.073
       242.000         204.000
  21433157.153   -15633928.48249 -12152887.62546  21433157.294    21433164.094
       229.000         181.000
  20714576.188    -2944162.32149  -2275007.74947  20714575.908    20714582.683
       241.000         202.000
